     2              OBSERVATION DATA    GPS                 RINEX VERSION / TYPE
teqc 2002Apr3 20051206 16:16:27UTC                          PGM / RUN BY / DATE
                                                            COMMENT
L1 & L2: 9 8 7 6 5 4 1                                      COMMENT
L1 & L2: 9 8 7 6 5 4 1                                      COMMENT
L1 & L2: 9 8 7 6 5 4 1                                      COMMENT
L1 & L2: 9 8 7 6 5 4 1                                      COMMENT
L1 & L2: 9 8 7 6 5 4 1                                      COMMENT
Original Marker Name: SANO                                  COMMENT
Campaign Name: CSUSB 2005                                   COMMENT
4-Character Station Name: SANO                              COMMENT
6-Character Antenna Code: DMRCHT                            COMMENT
Vertical Measurement Point: BCR                             COMMENT
Vertical Offset to Rinex Ref. Point: 0.0348                 COMMENT
Radial Measurement Point: ECF                               COMMENT
Radial Offset to Rinex Ref. Point: 0.1897                   COMMENT
Antenna Height from Field Measurement: 1.4880 m             COMMENT
Additional Antenna Identification Info.:                    COMMENT
Turborogue and Ashtech Choke Ring                           COMMENT
Original XYZ: -2458541.1830 -4680555.9340 3556361.2036      COMMENT
New XYZ position is based on association with SCEC monument COMMENT
E1D0Q5S9+0011. Position of that monument is believed to be  COMMENT
valid to within 1 m horizontally; vertical accuracy         COMMENT
should be no worse than 3-times this value.                 COMMENT
                                                            COMMENT
Revised Rinex header created by UCSD GPS archive for        COMMENT
GSAC on 01-Apr-2006 (2006:091) 00:15:57 GMT                 COMMENT
For assistance contact dagnew@ucsd.edu                      COMMENT
or anderson@python.ucsd.edu                                 COMMENT
                                                            COMMENT
SANO                                                        MARKER NAME
KTM HARVEY MUDD COLLEGE                                     OBSERVER / AGENCY
T262 TURBOROGUE SNR-8000 98.12.27                           REC # / TYPE / VERS
-UNKNOWN- DORNE-MARGOL. TYPE T                              ANT # / TYPE
 -2444783.0000 -4693771.0000  3548233.0000                  APPROX POSITION XYZ
        1.4411        0.0000        0.0000                  ANTENNA: DELTA H/E/N
     1     1     0                                          WAVELENGTH FACT L1/2
     7    C1    L1    L2    P1    P2    S1    S2            # / TYPES OF OBSERV
     0                                                      INTERVAL
  2005     6    24    15    35    0.000000                  TIME OF FIRST OBS
  2005     6    24    23    43    0.000000                  TIME OF LAST OBS
                                                            END OF HEADER
 05  6 24 15 35  0.0000000  0  3G 3G15G18
  23508624.7954         -0.42058        -0.56455                  23508630.7874
       214.0004          5.0004
  20862048.3234         -0.67159         0.08857                  20862051.1884
       742.0004         47.0004
  20532102.5874         -0.31759         0.91157                  20532103.5584
       703.0004         65.0004
 05  6 24 15 35 30.0000000  0  7G22G 3G 9G26G15G18G21
  21250032.6484         -0.31859         0.09057                  21250032.6794
       763.0004         44.0004
  23488075.8114    -107988.42848    -84147.00545                  23488079.3784
       219.0004          4.0004
  24998257.3164         -0.58058        -0.33754                  24998260.8714
       167.0004          2.0004
  22715786.3344         -1.04559        -1.19956                  22715788.2964
       377.0004         11.0004
  20848499.8674     -71197.97749    -55478.32447                  20848502.4974
       763.0004         47.0004
  20529255.6184     -14961.72149    -11657.32247                  20529256.4714
       703.0004         67.0004
  20611165.5004         -0.68059        -0.57757                  20611165.8424
       850.0004         57.0004
 05  6 24 15 36  0.0000000  0  7G22G 3G 9G26G15G18G21
  21237800.8474     -64279.34349    -50087.44547                  21237800.6254
       763.0004         46.0004
  23467910.4544    -213962.57748   -166724.25145                  23467914.0994
       232.0004          5.0004
  24979416.2474     -99017.00448    -77155.85244                  24979419.4284
       192.0004          3.0004
  22726932.7824      58576.54349     45643.64046                  22726934.5354
       357.0004         11.0004
  20835308.1314    -140520.88849   -109496.16747                  20835310.5914
       763.0004         47.0004
  20526794.4464     -27895.67449    -21735.72847                  20526795.0454
       722.0004         65.0004
  20609006.1964     -11347.79449     -8842.48947                  20609006.5524
       850.0004         57.0004
 05  6 24 15 36 30.0000000  0  7G22G 3G 9G26G15G18G21
  21226877.1684    -121684.01749    -94818.34647                  21226876.9844
       784.0004         46.0004
  23449048.7434    -313082.19148   -243960.29345                  23449051.7704
       238.0004          5.0004
  24961828.9964    -191430.05348   -149165.92144                  24961839.1734
       154.0004          2.0004
  22739415.9534     124175.16349     96759.42746                  22739417.8634
       348.0004         10.0004
  20823393.8924    -203130.04449   -158282.52047                  20823396.6374
       763.0004         47.0004
  20525639.2874     -33965.61249    -26465.55447                  20525639.9784
       722.0004         65.0004
  20608142.6824     -15885.64049    -12378.48047                  20608142.9564
       850.0004         57.0004
 05  6 24 15 37  0.0000000  0  7G22G 3G15G18G 9G21G26
  21216926.0954    -173977.11049   -135566.19747                  21216925.9904
       784.0004         46.0004
  23431155.7744    -407107.18348   -317226.50745                  23431159.1874
       232.0004          5.0004
  20812422.2164    -260786.89849   -203209.93747                  20812424.8204
       763.0004         46.0004
  20525454.8044     -34934.94549    -27220.88447                  20525455.7754
       703.0004         65.0004
  24945163.2784    -278998.81448   -217401.20644                  24945169.0724
       142.0004          2.0004
  20608239.5854     -15376.29549    -11981.59647                  20608239.8204
       850.0004         57.0004
  22752898.8184     195029.44549    151970.52246                  22752901.0984
       329.0004         10.0004
 05  6 24 15 37 30.0000000  0  8G22G14G15G 3G18G 9G21G26
  21207493.7064    -223542.99149   -174188.95247                  21207493.9774
       763.0004         46.0004
  24358990.3084         -0.59958        -0.56754                  24358992.8144
       186.0004          3.0004
  20801939.4314    -315873.99249   -246134.94147                  20801942.0054
       763.0004         47.0004
  23413778.7494    -498419.32648   -388378.78345                  23413782.5904
       219.0004          5.0004
  20525787.1594     -33189.17749    -25860.54947                  20525787.9714
       722.0004         65.0004
  24928971.3594    -364104.11448   -283716.91244                  24928973.2074
       197.0004          2.0004
  20608843.2894     -12203.73249     -9509.47447                  20608843.7214
       850.0004         57.0004
  22766928.6164     268752.45649    209416.99146                  22766930.8834
       338.0004         10.0004
 05  6 24 15 38  0.0000000  0  8G22G14G15G 3G18G 9G21G26
  21198883.2054    -268792.22149   -209448.08347                  21198883.0884
       763.0004         46.0004
  24336545.4334    -117951.51448    -91910.38944                  24336549.8394
       197.0004          3.0004
  20792248.5854    -366800.64249   -285818.04047                  20792251.0074
       763.0004         47.0004
  23397222.1074    -585426.51848   -456176.57345                  23397223.9814
       225.0004          5.0004
  20526938.2904     -27139.67849    -21146.66047                  20526939.0544
       722.0004         65.0004
  24913546.0604    -445153.42448   -346872.13244                  24913552.0344
       163.0004          3.0004
  20610256.5774      -4776.30749     -3721.88047                  20610256.9374
       827.0004         57.0004
  22781805.1844     346930.74649    270335.09746                  22781807.3544
       338.0004         10.0004
 05  6 24 15 38 30.0000000  0  7G22G14G 3G26G15G18G21
  21192910.7894    -300178.60849   -233904.99547                  21192910.7194
       784.0004         48.0004
  24316680.5354    -222340.25848   -173252.23544                  24316683.3954
       192.0004          3.0004
  23383301.2104    -658579.78648   -513179.09645                  23383303.3334
       232.0004          5.0004
  22799345.3404     439107.95349    342161.45445                  22799348.3664
       329.0004          9.0004
  20785166.2254    -404019.32149   -314819.60747                  20785168.6934
       784.0004         48.0004
  20530724.6804      -7241.40149     -5641.51447                  20530725.3524
       703.0004         63.0004
  20614296.4524      16452.78249     12820.26147                  20614296.5614
       850.0004         57.0004
 05  6 24 15 39  0.0000000  0  7G22G14G 3G26G15G18G21
  21188631.8474    -322665.02549   -251426.86747                  21188631.5704
       805.0004         48.0004
  24298452.9254    -318126.75648   -247891.03344                  24298455.9784
       192.0004          3.0004
  23371073.6434    -722839.17548   -563251.31245                  23371076.8424
       244.0004          5.0004
  22818604.9134     540318.85949    421027.07245                  22818607.7304
       329.0004          9.0004
  20779748.2484    -432491.20749   -337005.49347                  20779750.7194
       784.0004         48.0004
  20536202.0414      21542.00549     16787.11147                  20536202.7314
       703.0004         63.0004
  20620018.5784      46522.35149     36251.08747                  20620018.9274
       850.0004         57.0004
 05  6 24 15 39 30.0000000  0  7G22G14G15G 3G18G21G26
  21185898.4444    -337028.29249   -262619.01947                  21185898.0544
       805.0004         48.0004
  24281714.8814    -406085.14448   -316430.00844                  24281717.5144
       192.0004          3.0004
  20775846.9474    -452991.68549   -352979.89147                  20775849.5224
       763.0004         48.0004
  23360391.0694    -778978.79448   -606996.46145                  23360392.2974
       258.0004          5.0004
  20543222.1504      58432.89249     45533.25547                  20543222.9794
       703.0004         63.0004
  20627275.2574      84656.45049     65965.96447                  20627275.5394
       850.0004         55.0004
  22839435.9374     649783.67449    506324.30045                  22839438.8534
       338.0004          9.0004
 05  6 24 15 40  0.0000000  0  8G22G14G15G 3G18G 9G21G26
  21182225.8164    -356329.34949   -277658.79247                  21182225.3454
       827.0004         49.0004
  24263981.8594    -499273.38348   -389044.19544                  24263982.6584
       186.0004          2.0004
  20770977.5444    -478580.10249   -372918.91347                  20770980.3644
       763.0004         47.0004
  23348768.6344    -840057.15148   -654589.95145                  23348772.0824
       272.0004          6.0004
  20549299.4424      90369.47749     70418.90147                  20549300.5244
       703.0004         63.0004
  24869153.2404         -0.21758
       108.0004          1.0004
  20633581.4744     117795.43549     91788.53947                  20633581.8574
       850.0004         55.0004
  22859351.4924     754438.88249    587873.79945                  22859354.4704
       338.0004          8.0004
 05  6 24 15 40 30.0000000  0  8G22G14G15G 3G18G 9G21G26
  21177385.7834    -381764.58449   -297478.44447                  21177385.1164
       827.0004         48.0004
  24245026.1294    -598884.74448   -466663.41644                  24245029.2994
       181.0004          2.0004
  20764912.7634    -510451.17549   -397753.50647                  20764915.5464
       763.0004         48.0004
  23335979.0894    -907267.48648   -706961.63245                  23335981.0824
       288.0004          6.0004
  20554206.0834     116154.35049     90511.00747                  20554207.1214
       703.0004         63.0004
  24857268.7314     -61734.43648
       135.0004          1.0004
  20638709.6114     144744.33049    112787.66847                  20638709.9694
       827.0004         57.0004
  22878123.0874     853085.82449    664741.51645                  22878124.9194
       329.0004          8.0004
 05  6 24 15 41  0.0000000  0  7G22G14G15G 3G18G21G26
  21171852.1004    -410842.17649   -320136.29947                  21171851.6704
       805.0004         48.0004
  24225322.2154    -702424.45748   -547343.70044                  24225328.1094
       172.0004          3.0004
  20758126.9884    -546111.63649   -425540.87247                  20758129.4354
       784.0004         49.0004
  23322497.2704    -978115.66248   -762167.98545                  23322499.3714
       296.0004          6.0004
  20558416.2494     138278.05849    107750.25647                  20558417.0754
       722.0004         63.0004
  20643134.2424     167995.76849    130905.66147                  20643134.5124
       827.0004         55.0004
  22896224.8934     948213.35948    738866.84745                  22896226.9864
       312.0004          8.0004
 05  6 24 15 41 30.0000000  0  8G22G14G15G 3G18G 9G21G26
  21165906.8054    -442085.22749   -344481.52347                  21165906.2474
       805.0004         47.0004
  24205153.2474    -808412.76348   -629931.93244                  24205158.2174
       172.0004          3.0004
  20750901.2984    -584083.05149   -455128.99047                  20750903.8934
       784.0004         49.0004
  23308604.6504   -1051121.69048   -819055.77645                  23308607.4024
       296.0004          7.0004
  20562210.5724     158216.99649    123287.08747                  20562211.4374
       722.0004         65.0004
  24831551.2084         -0.46258        -0.71054                  24831557.0474
       163.0004          2.0004
  20647136.5654     189027.92349    147294.34247                  20647136.8694
       827.0004         57.0004
  22913937.7784    1041295.82948    811398.61045                  22913939.6134
       304.0004          7.0004
 05  6 24 15 42  0.0000000  0  8G22G14G15G 3G18G 9G21G26
  21159682.2024    -474796.16049   -369970.55347                  21159681.8484
       805.0004         47.0004
  24184652.1004    -916148.64248   -713881.98244                  24184655.2334
       181.0004          3.0004
  20743368.7504    -623666.16549   -485972.97147                  20743371.5024
       784.0004         51.0004
  23294434.4014   -1125585.15248   -877079.23745                  23294437.3384
       296.0004          7.0004
  20565721.7704     176668.00949    137664.49547                  20565722.4544
       722.0004         65.0004
  24818142.8854     -70466.18448    -54908.99344                  24818147.9364
       167.0004          2.0004
  20650849.4454     208539.72949    162498.33647                  20650849.9724
       827.0004         55.0004
  22931394.6164    1133028.32649    882878.43545                  22931396.4404
       321.0004          7.0004
 05  6 24 15 42 30.0000000  0  8G22G14G15G 3G18G 9G21G26
  21153265.4064    -508516.71149   -396246.29247                  21153265.0604
       805.0004         47.0004
  24163906.3354   -1025171.16648   -798834.52645                  24163911.7534
       192.0004          4.0004
  20735617.0454    -664401.01949   -517714.41147                  20735619.8404
       784.0004         51.0004
  23280075.2264   -1201045.43148   -935879.44645                  23280078.2834
       304.0004          7.0004
  20569036.7234     194088.09149    151238.58247                  20569037.5264
       722.0004         65.0004
  24804497.7964    -142169.66748   -110781.72744                  24804502.4494
       142.0004          2.0004
  20654360.4294     226990.42149    176875.48547                  20654360.9004
       827.0004         55.0004
  22948680.6774    1223866.22649    953661.18845                  22948681.6904
       338.0004          8.0004
 05  6 24 15 43  0.0000000  0  7G22G14G 3G26G15G18G21
  21146757.7934    -542714.11849   -422893.61147                  21146757.4424
       784.0004         47.0004
  24143017.2834   -1134944.28248   -884372.00244                  24143020.7064
       202.0004          3.0004
  23265628.2054   -1276966.65448   -995038.82445                  23265629.7374
       312.0004          7.0004
  22965897.2454    1314340.05649   1024160.23545                  22965899.0174
       338.0004          8.0004
  20727747.9944    -705753.16049   -549936.85147                  20727750.8124
       784.0004         49.0004
  20572256.5974     211009.41849    164424.02847                  20572257.3124
       722.0004         65.0004
  20657771.4134     244914.13549    190842.00247                  20657771.8284
       827.0004         57.0004
 05  6 24 15 43 30.0000000  0  7G22G14G15G 3G18G21G26
  21140138.8324    -577496.72049   -449996.92647                  21140138.4864
       784.0004         48.0004
  24121965.4674   -1245573.29948   -970576.40544                  24121967.8044
       208.0004          3.0004
  20719741.2494    -747829.41749   -582723.54047                  20719743.5434
       784.0004         49.0004
  23251073.6134   -1353454.11949  -1054639.43945                  23251075.3654
       321.0004          7.0004
  20575360.8794     227322.65149    177135.63247                  20575361.6754
       722.0004         63.0004
  20661061.5874     262203.82549    204314.47647                  20661061.9184
       850.0004         57.0004
  22983023.2694    1404338.73549   1094289.05545                  22983024.8894
       338.0004          7.0004
 05  6 24 15 44  0.0000000  0  8G22G14G15G 3G18G 9G21G26
  21133475.3644    -612513.15749   -477282.45047                  21133475.0204
       805.0004         48.0004
  24100817.7754   -1356703.50848  -1057171.32445                  24100821.2234
       208.0004          4.0004
  20711663.7714    -790276.45949   -615799.15447                  20711666.2464
       784.0004         49.0004
  23236477.5724   -1430153.93948  -1114405.51545                  23236479.5704
       312.0004          7.0004
  20578416.0984     243378.20049    189646.44447                  20578417.0774
       703.0004         63.0004
  24762770.9734         -0.51458         0.35954                  24762775.6834
       192.0004          3.0004
  20664298.2034     279212.05949    217567.63547                  20664298.5874
       850.0004         57.0004
  23000125.0024    1494210.71049   1164319.15245                  23000127.7664
       329.0004          8.0004
 05  6 24 15 44 30.0000000  0  8G22G14G15G 3G18G 9G21G26
  21126805.3564    -647565.13649   -504595.66647                  21126804.9924
       805.0004         49.0004
  24079613.7274   -1468134.39848  -1144000.57344                  24079615.1594
       214.0004          3.0004
  20703553.6704    -832894.70149   -649008.16747                  20703556.4934
       763.0004         49.0004
  23221879.7044   -1506865.30348  -1174180.59545                  23221882.7074
       304.0004          8.0004
  20581459.8324     259373.58549    202110.37347                  20581460.6844
       703.0004         61.0004
  24748705.4804     -73910.73548    -57591.91344                  24748709.4094
       192.0004          3.0004
  20667519.0744     296138.20949    230756.83547                  20667519.5244
       850.0004         55.0004
  23017240.4644    1584151.75849   1234403.04645                  23017242.3874
       338.0004          7.0004
 05  6 24 15 45  0.0000000  0  8G22G14G15G 3G18G 9G21G26
  21120143.9194    -682570.62149   -531872.65447                  21120143.4744
       805.0004         49.0004
  24058368.4474   -1579780.46948  -1230997.44945                  24058371.6844
       219.0004          5.0004
  20695426.9394    -875600.40849   -682285.33647                  20695429.8364
       763.0004         49.0004
  23207295.7234   -1583503.35448  -1233898.53345                  23207298.5304
       304.0004          7.0004
  20584507.7694     275389.68049    214590.44147                  20584508.6164
       722.0004         63.0004
  24734610.2444    -147983.98448   -115311.21344                  24734614.1434
       208.0004          3.0004
  20670740.2224     313065.79349    243947.15347                  20670740.6214
       827.0004         55.0004
  23034384.7384    1674241.04149   1304602.46945                  23034385.8034
       348.0004          8.0004
 05  6 24 15 45 30.0000000  0  8G22G14G15G 3G18G 9G21G26
  21113505.6384    -717454.07149   -559054.54647                  21113505.2754
       805.0004         49.0004
  24037097.0094   -1691563.02048  -1318100.68345                  24037100.0814
       219.0004          4.0004
  20687298.2814    -918316.35749   -715570.48447                  20687301.3414
       763.0004         51.0004
  23192740.9264   -1659989.65348  -1293498.22945                  23192743.7384
       296.0004          8.0004
  20587573.7234     291501.37749    227145.00447                  20587574.7794
       722.0004         65.0004
  24720498.5964    -222141.05048   -173095.74944                  24720500.7094
       208.0004          3.0004
  20673976.3204     330071.63749    257198.45547                  20673976.6614
       827.0004         54.0004
  23051569.8794    1764551.67249   1374974.35745                  23051571.8974
       338.0004          8.0004
 05  6 24 15 46  0.0000000  0  8G22G14G15G 3G18G 9G21G26
  21106905.2864    -752139.89449   -586082.44647                  21106905.0044
       805.0004         49.0004
  24015814.4924   -1803402.88048  -1405248.58245                  24015817.6434
       225.0004          5.0004
  20679182.5974    -960964.89249   -748803.10047                  20679185.6324
       763.0004         49.0004
  23178229.8204   -1736245.39348  -1352918.26645                  23178232.9944
       296.0004          8.0004
  20590672.1064     307783.59249    239832.43847                  20590672.9524
       722.0004         63.0004
  24706384.3924    -296302.22348   -230883.57444                  24706391.6324
       172.0004          3.0004
  20677242.0334     347232.78649    270570.77047                  20677242.4474
       827.0004         54.0004
  23068811.4814    1855156.99449   1445575.88045                  23068812.9454
       329.0004          8.0004
 05  6 24 15 46 30.0000000  0  8G22G14G15G 3G18G 9G21G26
  21100341.5614    -786632.14049   -612959.50847                  21100341.2184
       805.0004         49.0004
  23994520.7584   -1915301.62948  -1492442.35445                  23994523.9454
       219.0004          4.0004
  20671079.1854   -1003548.80849   -781985.36747                  20671082.2144
       763.0004         51.0004
  23163762.5614   -1812272.33248  -1412160.01745                  23163765.7304
       296.0004          8.0004
  20593802.0764     324231.05149    252648.63447                  20593802.9374
       722.0004         65.0004
  24692272.3724    -370468.28548   -288675.19644                  24692277.8184
       197.0004          3.0004
  20680536.5524     364546.17449    284061.70747                  20680537.0234
       827.0004         54.0004
  23086107.9624    1946049.74649   1516401.36145                  23086110.2374
       329.0004          8.0004
 05  6 24 15 47  0.0000000  0  8G22G14G15G 3G18G 9G21G26
  21093823.4134    -820884.79649   -639649.87747                  21093823.1234
       784.0004         49.0004
  23973225.5724   -2027209.88248  -1579643.54745                  23973227.8274
       219.0004          4.0004
  20662997.1284   -1046020.03249   -815079.82447                  20663000.0034
       763.0004         51.0004
  23149348.4834   -1888021.54148  -1471185.35245                  23149351.4874
       304.0004          8.0004
  20596972.2214     340889.31449    265629.09247                  20596972.7224
       742.0004         65.0004
  24678168.2674    -444589.29948   -346431.73544                  24678173.2174
       208.0004          3.0004
  20683869.2964     382059.17349    297708.18847                  20683869.6864
       827.0004         54.0004
  23103466.9304    2037273.82748   1587485.01945                  23103469.1684
       304.0004          8.0004
 05  6 24 15 47 30.0000000  0  8G22G14G15G 3G18G 9G21G26
  21087356.5664    -854868.96249   -666131.03247                  21087356.4704
       784.0004         49.0004
  23951934.1444   -2139095.60548  -1666827.15645                  23951937.8984
       214.0004          4.0004
  20654942.6514   -1088348.04649   -848062.69047                  20654945.5104
       784.0004         52.0004
  23134992.0824   -1963461.49248  -1529969.69645                  23134996.3224
       296.0004          9.0004
  20600187.4564     357786.10349    278795.41747                  20600188.0544
       742.0004         63.0004
  24664077.3224    -518632.75548   -404127.83444                  24664082.2664
       172.0004          3.0004
  20687245.7324     399801.58249    311533.43147                  20687245.8354
       850.0004         54.0004
  23120894.3124    2128855.13848   1658847.03445                  23120896.6064
       296.0004          8.0004
 05  6 24 15 48  0.0000000  0  8G22G14G15G 3G18G 9G21G26
  21080942.9044    -888572.47549   -692393.50047                  21080942.7074
       784.0004         49.0004
  23930649.7134   -2250943.20048  -1753981.05145                  23930653.1044
       214.0004          4.0004
  20646917.9524   -1130518.67949   -880922.92147                  20646920.4424
       805.0004         52.0004
  23120698.5044   -2038576.75448  -1588501.04745                  23120702.2414
       296.0004          9.0004
  20603450.3094     374933.25249    292156.82547                  20603451.1974
       722.0004         63.0004
  24650004.2754    -592582.32948   -461750.69644
       142.0004          1.0004
  20690668.0574     417786.97649    325548.01247                  20690668.4944
       827.0004         54.0004
  23138392.2014    2220803.57648   1730495.14045                  23138393.8784
       296.0004          7.0004
 05  6 24 15 48 30.0000000  0  8G22G14G15G 3G18G 9G21G26
  21074586.4414    -921976.72849   -718422.77847                  21074585.9434
       784.0004         49.0004
  23909377.0784   -2362731.27348  -1841088.56545                  23909379.8554
       208.0004          4.0004
  20638926.9414   -1172511.59749   -913644.67247                  20638929.6714
       805.0004         54.0004
  23106470.3064   -2113346.10948  -1646762.84445                  23106473.8074
       304.0004          9.0004
  20606764.4594     392348.24949    305726.94847                  20606765.0464
       742.0004         63.0004
  24635954.4164    -666415.86048   -519283.18544
       128.0004          1.0004
  20694140.7204     436035.96749    339767.99347                  20694141.0784
       827.0004         54.0004
  23155961.5104    2313135.00348   1802441.66045                  23155964.7024
       272.0004          7.0004
 05  6 24 15 49  0.0000000  0  8G22G14G15G 3G18G 9G21G26
  21068286.3524    -955084.03849   -744220.66447                  21068285.9024
       805.0004         49.0004
  23888115.5344   -2474458.84248  -1928148.91845                  23888120.4664
       197.0004          4.0004
  20630969.5504   -1214327.35949   -946228.37747                  20630972.0234
       784.0004         52.0004
  23092308.0384   -2187769.38748  -1704754.98045                  23092310.2374
       312.0004          9.0004
  20610128.9504     410028.15749    319503.49747                  20610129.5494
       742.0004         65.0004
  24621926.5014    -740131.98148   -576724.12544                  24621928.4684
       142.0004          2.0004
  20697663.4004     454547.09549    354192.23447                  20697663.7064
       827.0004         54.0004
  23173603.7764    2405844.32948   1874682.64345                  23173607.5774
       280.0004          7.0004
 05  6 24 15 49 30.0000000  0  8G22G14G15G 3G18G 9G21G26
  21062044.0944    -987886.11349   -769780.71347                  21062043.8254
       784.0004         49.0004
  23866869.2174   -2586114.59948  -2015153.34545                  23866871.2064
       208.0004          4.0004
  20623047.9334   -1255955.94849   -978666.23647                  20623050.4944
       784.0004         54.0004
  23078213.6724   -2261835.54149  -1762468.85645                  23078215.9874
       321.0004          9.0004
  20613545.0424     427980.64549    333492.44347                  20613545.7454
       742.0004         63.0004
  24607924.4124    -813718.76448   -634064.46544                  24607928.8984
       202.0004          3.0004
  20701237.6644     473329.81549    368828.10647                  20701238.0414
       827.0004         54.0004
  23191318.9074    2498937.06548   1947222.40145                  23191321.9184
       288.0004          7.0004
 05  6 24 15 50  0.0000000  0  8G22G14G15G 3G18G 9G21G26
  21055862.2004   -1020374.04049   -795095.97147                  21055861.7274
       805.0004         49.0004
  23845638.0284   -2697686.48148  -2102092.41745                  23845640.5594
       219.0004          4.0004
  20615163.9604   -1297386.56949  -1010949.83247                  20615166.4224
       805.0004         54.0004
  23064189.2354   -2335532.54948  -1819895.07845                  23064191.6124
       312.0004          9.0004
  20617014.5344     446213.09149    347699.53847                  20617015.2894
       722.0004         63.0004
  24593948.1914    -887163.16248   -691293.74945                  24593952.6884
       225.0004          4.0004
  20704865.7294     492394.60049    383683.76447                  20704866.0154
       850.0004         54.0004
  23209107.8334    2592419.77148   2020066.02545                  23209111.0174
       288.0004          7.0004
 05  6 24 15 50 30.0000000  0  8G22G14G15G 3G18G 9G21G26
  21049741.3044   -1052538.87749   -820159.47147                  21049740.7814
       805.0004         49.0004
  23824424.6364   -2809162.09748  -2188956.47045                  23824426.8084
       219.0004          4.0004
  20607319.7274   -1338608.42349  -1043070.75747                  20607322.0244
       805.0004         54.0004
  23050237.4664   -2408848.87248  -1877024.65745                  23050240.8594
       304.0004          8.0004
  20620538.8984     464733.80349    362131.25747                  20620539.5444
       722.0004         61.0004
  24580001.2584    -960452.44348   -748402.16644                  24580009.6974
       214.0004          3.0004
  20708549.2214     511751.68649    398767.18947                  20708549.3604
       850.0004         54.0004
  23226972.6184    2686298.63948   2093218.35945                  23226974.5664
       304.0004          7.0004
 05  6 24 15 51  0.0000000  0  8G22G14G15G 3G18G 9G21G26
  21043678.4434   -1084398.31649   -844984.99947                  21043678.1894
       805.0004         49.0004
  23803227.0574   -2920556.39048  -2275757.15045                  23803229.5914
       219.0004          4.0004
  20599512.1704   -1379637.81849  -1075041.70947                  20599514.6314
       805.0004         54.0004
  23036355.7114   -2481799.62849  -1933869.37545                  23036358.8794
       321.0004          9.0004
  20624114.6844     483524.50349    376773.35647                  20624115.3774
       722.0004         61.0004
  24566082.3064   -1033600.57748   -805400.75345                  24566085.9754
       219.0004          4.0004
  20712285.2024     531384.16149    414065.21047                  20712285.3504
       850.0004         54.0004
  23244909.1814    2780553.26048   2166663.49945                  23244910.7594
       312.0004          7.0004
 05  6 24 15 51 30.0000000  0  8G22G14G15G 3G18G 9G21G26
  21037676.0294   -1115942.33349   -869564.74447                  21037675.5424
       805.0004         51.0004
  23782047.5124   -3031855.17548  -2362483.39745                  23782051.5594
       214.0004          4.0004
  20591743.5984   -1420462.24849  -1106852.95147                  20591745.9974
       827.0004         54.0004
  23022545.4514   -2554371.50649  -1990418.87546                  23022549.2784
       321.0004         10.0004
  20627743.5314     502594.70549    391633.25247                  20627744.2354
       722.0004         61.0004
  24552191.2254   -1106593.38548   -862278.15244                  24552194.7114
       192.0004          3.0004
  20716075.7854     551304.03449    429587.17547                  20716075.9564
       827.0004         52.0004
  23262918.2544    2875191.46048   2240407.50745                  23262921.2044
       312.0004          8.0004
 05  6 24 15 52  0.0000000  0  8G22G14G15G 3G18G 9G21G26
  21031736.9694   -1147152.47149   -893884.32247                  21031736.4124
       827.0004         52.0004
  23760890.0594   -3143037.36448  -2449118.79445                  23760893.2814
       208.0004          4.0004
  20584017.7574   -1461061.38949  -1138488.64047                  20584020.1744
       805.0004         54.0004
  23008811.3304   -2626543.16949  -2046656.51345                  23008814.4074
       321.0004          9.0004
  20631429.0714     521962.08349    406724.71347                  20631429.7684
       722.0004         61.0004
  24538335.1304   -1179408.56848   -919017.17844                  24538338.2684
       192.0004          2.0004
  20719924.8304     571530.90549    445348.36447                  20719925.0004
       850.0004         52.0004
  23281003.0734    2970228.99448   2314462.68845                  23281005.3744
       304.0004          7.0004
 05  6 24 15 52 30.0000000  0  8G22G14G15G 3G18G 9G21G26
  21025860.6364   -1178031.90649   -917946.21147                  21025860.1904
       805.0004         51.0004
  23739754.3474   -3254103.01348  -2535663.37245                  23739757.2454
       208.0004          4.0004
  20576334.5684   -1501436.61049  -1169949.84947                  20576337.2334
       805.0004         55.0004
  22995153.9234   -2698315.08349  -2102582.67045                  22995157.1454
       321.0004          9.0004
  20635170.3014     541622.24849    422044.31947                  20635171.0824
       742.0004         61.0004
  24524513.5844   -1252045.58248   -975617.37244                  24524515.2254
       214.0004          2.0004
  20723832.0264     592062.69849    461347.15547                  20723832.1794
       850.0004         54.0004
  23299162.9594    3065659.77848   2388824.29845                  23299164.3404
       296.0004          7.0004
 05  6 24 15 53  0.0000000  0  8G22G14G15G 3G18G 9G21G26
  21020044.7634   -1208594.78549   -941761.43247                  21020044.2754
       805.0004         52.0004
  23718639.9434   -3365062.76148  -2622125.42645                  23718643.4594
       225.0004          4.0004
  20568691.7144   -1541599.99149  -1201245.98647                  20568694.2014
       805.0004         55.0004
  22981570.3294   -2769698.61749  -2158206.16946                  22981572.7594
       338.0004         11.0004
  20638964.5154     561560.87349    437580.90447                  20638965.3654
       742.0004         60.0004
  24510723.0364   -1324514.30648  -1032086.44044                  24510726.5214
       192.0004          2.0004
  20727794.6844     612887.08649    477573.94147                  20727794.9704
       827.0004         52.0004
  23317394.4044    3161467.62048   2463479.71345                  23317397.4854
       296.0004          7.0004
 05  6 24 15 53 30.0000000  0  8G22G14G15G 3G18G 9G21G26
  21014291.1764   -1238830.96449   -965322.08247                  21014290.7624
       805.0004         52.0004
  23697547.3504   -3475903.49248  -2708494.77645                  23697550.5604
       225.0004          4.0004
  20561091.5244   -1581539.71849  -1232367.85147                  20561094.2644
       827.0004         57.0004
  22968062.9354   -2840680.98649  -2213517.10446                  22968065.9434
       357.0004         11.0004
  20642813.4494     581787.15149    453341.63747                  20642814.1924
       742.0004         60.0004
  24496966.1334   -1396801.16448  -1088413.82544
       150.0004          1.0004
  20731815.1814     634015.02849    494037.25947                  20731815.4214
       827.0004         52.0004
  23335699.3884    3257659.61648   2538434.47645                  23335702.0474
       304.0004          7.0004
 05  6 24 15 54  0.0000000  0  7G22G14G15G 3G18G 9G21
  21008598.3924   -1268746.17849   -988632.63147                  21008598.1964
       805.0004         52.0004
  23676477.5384   -3586627.81548  -2794773.40845                  23676480.4884
       238.0004          5.0004
  20553532.9674   -1621259.73549  -1263318.50547                  20553535.6994
       805.0004         55.0004
  22954631.0124   -2911265.38449  -2268517.91346                  22954634.2234
       348.0004         11.0004
  20646715.8564     602294.05049    469321.03547                  20646716.4954
       742.0004         61.0004
  24483244.1634   -1468908.00548  -1144600.85944                  24483249.0714
       142.0004          2.0004
  20735892.6214     655442.10049    510733.66347                  20735892.9014
       827.0004         52.0004
 05  6 24 15 54 30.0000000  0  8G22G14G15G 3G18G 9G21G19
  21002969.0854   -1298327.98449  -1011683.38647                  21002968.9314
       805.0004         52.0004
  23655432.4524   -3697219.64948  -2880948.81545                  23655435.5894
       238.0004          5.0004
  20546019.0044   -1660745.07249  -1294086.30047                  20546021.8444
       805.0004         55.0004
  22941277.7004   -2981435.95649  -2323196.26546                  22941280.7684
       338.0004         10.0004
  20650673.9444     623093.94349    485528.73847                  20650674.7044
       742.0004         61.0004
  24469560.5604   -1540818.08348  -1200634.57344                  24469563.0134
       154.0004          2.0004
  20740029.7914     677182.94249    527674.56847                  20740030.1494
       827.0004         54.0004
  25441416.5204         -0.69258        -0.47254                  25441417.0034
       131.0004          2.0004
 05  6 24 15 55  0.0000000  0  8G22G14G15G 3G18G 9G21G19
  20997403.7694   -1327574.09649  -1034472.55847                  20997403.2744
       805.0004         51.0004
  23634414.4324   -3807673.37348  -2967016.61445                  23634417.5984
       238.0004          5.0004
  20538550.7574   -1699991.82149  -1324668.18047                  20538553.6154
       805.0004         55.0004
  22928003.9714   -3051188.01549  -2377548.50246                  22928007.0744
       329.0004         10.0004
  20654687.9254     644187.87349    501965.55647                  20654688.5144
       742.0004         61.0004
  24455915.3214   -1612525.43748  -1256510.31844                  24455921.2324
       167.0004          2.0004
  20744227.1984     699240.54549    544862.30047                  20744227.6184
       827.0004         54.0004
  25421871.1704    -103047.00647
        92.0004          1.0004
 05  6 24 15 55 30.0000000  0  7G22G14G 3G 9G15G18G21
  20991897.3734   -1356510.05949  -1057020.05447                  20991896.9644
       805.0004         49.0004
  23613417.2614   -3918011.50948  -3052994.31145                  23613420.7214
       238.0004          5.0004
  22914805.9274   -3120544.21249  -2431592.26846                  22914808.7734
       329.0004         10.0004
  24442304.7434   -1684051.96048  -1312245.26944                  24442312.3244
       186.0004          3.0004
  20531123.1604   -1739023.78249  -1355082.69147                  20531125.6894
       827.0004         57.0004
  20658753.1384     665550.10049    518611.44147                  20658753.6834
       763.0004         61.0004
  20748480.3244     721590.75549    562278.03447                  20748480.7094
       827.0004         52.0004
 05  6 24 15 56  0.0000000  0  7G14G22G15G 3G18G 9G21
  23592441.1024   -4028240.85348  -3138887.25545                  23592444.4414
       232.0004          5.0004
  20986448.2694   -1385145.99449  -1079333.76347                  20986447.7954
       827.0004         51.0004
  20523735.1484   -1777848.79649  -1385335.94747                  20523737.6354
       827.0004         57.0004
  22901681.9454   -3189511.97849  -2485333.38646                  22901685.0144
       329.0004         10.0004
  20662867.2704     687169.59049    535457.79247                  20662867.9424
       763.0004         61.0004
  24428726.1944   -1755403.44848  -1367843.77544                  24428733.6274
       172.0004          2.0004
  20752787.4114     744224.77149    579914.91947                  20752787.8904
       827.0004         52.0004
 05  6 24 15 56 30.0000000  0  8G14G22G15G 3G18G 9G21G19
  23571491.0994   -4138335.12348  -3224674.93845                  23571494.2744
       238.0004          5.0004
  20981060.3264   -1413458.73349  -1101395.63147                  20981060.2184
       805.0004         52.0004
  20516391.0124   -1816441.91149  -1415408.50447                  20516393.7824
       827.0004         57.0004
  22888636.7624   -3258065.31449  -2538751.55146                  22888639.7444
       329.0004         10.0004
  20667034.5064     709068.82949    552522.12847                  20667035.0744
       742.0004         61.0004
  24415186.5984   -1826553.15948  -1423285.01644                  24415190.9824
       167.0004          2.0004
  20757153.2754     767167.38549    597792.27647                  20757153.6614
       827.0004         51.0004
  25363365.3994         -0.48458         0.61254
       111.0004          1.0004
 05  6 24 15 57  0.0000000  0  8G14G22G15G 3G18G 9G21G19
  23550569.6134   -4248278.96348  -3310345.40145                  23550571.7784
       244.0004          5.0004
  20975736.4304   -1441436.46549  -1123196.45547                  20975735.9794
       805.0004         52.0004
  20509093.8174   -1854789.29149  -1445289.57747                  20509096.3164
       827.0004         57.0004
  22875672.9124   -3326189.63549  -2591835.41645                  22875675.6884
       329.0004          9.0004
  20671257.0644     731258.74049    569812.96147                  20671257.7994
       742.0004         61.0004
  24401689.9014   -1897485.25448  -1478556.70944                  24401695.2394
       192.0004          3.0004
  20761580.2734     790431.57849    615920.20947                  20761580.7094
       827.0004         51.0004
  25343908.0934    -102247.50348    -79672.30944                  25343909.7964
       124.0004          2.0004
 05  6 24 15 57 30.0000000  0  8G14G22G15G 3G18G 9G21G19
  23529673.7934   -4358086.48448  -3395909.66145                  23529675.4104
       238.0004          5.0004
  20970472.7224   -1469096.96449  -1144750.07947                  20970472.3954
       805.0004         54.0004
  20501840.3294   -1892906.46949  -1474991.27547                  20501842.9644
       827.0004         57.0004
  22862787.9884   -3393899.59849  -2644596.41445                  22862791.1674
       321.0004          9.0004
  20675531.4374     753720.95449    587315.97847                  20675532.1174
       742.0004         60.0004
  24388230.3594   -1968213.10948  -1533669.27844                  24388232.8124
       192.0004          3.0004
  20766065.4474     814001.18249    634286.12047                  20766065.9074
       827.0004         51.0004
  25324475.4044    -204375.49548   -159252.57044                  25324481.4914
       121.0004          2.0004
 05  6 24 15 58  0.0000000  0  8G14G22G15G 3G18G 9G21G19
  23508804.2244   -4467758.54348  -3481368.35545                  23508807.8424
       238.0004          5.0004
  20965268.7694   -1496443.80349  -1166059.28947                  20965268.4064
       805.0004         54.0004
  20494630.3424   -1930795.06049  -1504514.85347                  20494632.8334
       827.0004         57.0004
  22849981.9944   -3461196.52249  -2697035.56745                  22849985.3434
       329.0004          9.0004
  20679856.8194     776451.23149    605027.87547                  20679857.5744
       742.0004         60.0004
  24374809.8874   -2038736.74648  -1588622.71544                  24374813.0604
       177.0004          2.0004
  20770608.3784     837873.58949    652887.98347                  20770608.5534
       850.0004         51.0004
  25305062.8824    -306385.41248   -238740.77844                  25305069.0694
       124.0004          2.0004
 05  6 24 15 58 30.0000000  0  8G14G22G15G 3G18G 9G21G19
  23487962.6954   -4577283.82548  -3566712.69745                  23487966.1294
       244.0004          5.0004
  20960126.1684   -1523469.18849  -1187118.01447                  20960125.8274
       827.0004         54.0004
  20487465.6894   -1968445.27749  -1533852.68747                  20487468.0624
       827.0004         57.0004
  22837256.3794   -3528069.67149  -2749144.49745                  22837259.4784
       329.0004          9.0004
  20684234.5534     799456.77349    622954.26747                  20684235.2454
       742.0004         60.0004
  24361430.8054   -2109044.35348  -1643407.77744                  24361433.2864
       172.0004          2.0004
  20775210.5604     862058.25949    671733.16747                  20775210.7404
       850.0004         51.0004
  25285672.8314    -408266.25448   -318128.43444                  25285679.7924
       115.0004          3.0004
 05  6 24 15 59  0.0000000  0  8G14G22G15G 3G18G 9G21G19
  23467146.5144   -4686670.43048  -3651948.95545                  23467148.9054
       244.0004          5.0004
  20955042.1384   -1550184.66249  -1207935.24647                  20955042.0134
       805.0004         54.0004
  20480344.6144   -2005866.54949  -1563012.12347                  20480347.2064
       827.0004         57.0004
  22824610.3274   -3594527.77249  -2800930.01446                  22824612.4074
       348.0004         10.0004
  20688662.4474     822725.26549    641085.55247                  20688663.3284
       742.0004         60.0004
  24348090.9444   -2179143.59448  -1698030.49244                  24348095.9804
       172.0004          2.0004
  20779870.1444     886544.77749    690813.56047                  20779870.3594
       850.0004         51.0004
  25266308.8994    -510026.32948   -397422.01944                  25266315.6434
       131.0004          2.0004
 05  6 24 15 59 30.0000000  0  8G14G22G15G 3G18G 9G21G19
  23446360.2314   -4795898.04948  -3737061.35345                  23446363.4794
       238.0004          5.0004
  20950020.6084   -1576573.44949  -1228497.92447                  20950020.5844
       805.0004         54.0004
  20473270.7944   -2043039.73449  -1591978.24247                  20473273.6234
       827.0004         58.0004
  22812046.5054   -3660551.30149  -2852376.91146                  22812048.3354
       357.0004         10.0004
  20693143.5264     846273.23249    659434.61047                  20693144.2514
       742.0004         60.0004
  24334795.8584   -2249013.39448  -1752474.45144                  24334801.9834
       197.0004          2.0004
  20784590.6694     911351.75349    710143.65547                  20784591.0534
       827.0004         51.0004
  25246971.1034    -611645.86548   -476606.07044                  25246978.3934
       128.0004          2.0004
 05  6 24 16  0  0.0000000  0  8G14G22G15G 3G18G 9G21G19
  23425603.9234   -4904973.25448  -3822054.98445                  23425606.9714
       244.0004          5.0004
  20945059.4334   -1602644.66149  -1248813.14147                  20945059.0274
       805.0004         54.0004
  20466242.8224   -2079972.34849  -1620756.90547                  20466245.6954
       827.0004         58.0004
  22799564.0294   -3726146.92749  -2903490.38546                  22799565.9204
       357.0004         10.0004
  20697675.6744     870089.94549    677993.08347                  20697676.3134
       742.0004         60.0004
  24321542.6704   -2318659.31148  -1806743.97944                  24321546.2474
       192.0004          2.0004
  20789370.7734     936470.80249    729716.92647                  20789371.1984
       827.0004         51.0004
  25227658.6664    -713131.19748   -555685.51744                  25227665.2704
       118.0004          2.0004
 05  6 24 16  0 30.0000000  0  8G14G22G15G 3G18G 9G21G19
  23404877.4614   -5013891.27748  -3906926.13445                  23404879.3454
       244.0004          6.0004
  20940158.9244   -1628397.23749  -1268880.06947                  20940158.7994
       805.0004         54.0004
  20459261.1914   -2116661.26749  -1649345.67647                  20459263.9614
       827.0004         58.0004
  22787163.2074   -3791310.92249  -2954267.51146                  22787166.2364
       338.0004         11.0004
  20702259.1754     894176.44349    696761.77447                  20702259.8364
       742.0004         60.0004
  24308332.8034   -2388076.32548  -1860835.08844
       172.0004          1.0004
  20794210.5714     961904.66349    749535.50147                  20794211.0244
       827.0004         49.0004
  25208372.4744    -814478.13448   -634657.14744                  25208381.4104
       115.0004          3.0004
 05  6 24 16  1  0.0000000  0  8G14G22G15G 3G18G 9G21G19
  23384181.1554   -5122650.80248  -3991673.78045                  23384184.2914
       244.0004          5.0004
  20935318.7564   -1653833.73349  -1288700.69347                  20935318.2544
       827.0004         54.0004
  20452325.9504   -2153106.60849  -1677744.64647                  20452328.4504
       827.0004         60.0004
  22774845.3064   -3856042.38449  -3004707.59546                  22774848.4954
       338.0004         11.0004
  20706893.4714     918529.67249    715738.30647                  20706894.2524
       742.0004         58.0004
  24295166.9164   -2457262.34648  -1914746.17544                  24295170.6234
       158.0004          2.0004
  20799110.1554     987652.55449    769598.77747                  20799110.6614
       805.0004         49.0004
  25189111.2954    -915685.45648
       100.0004          1.0004
 05  6 24 16  1 30.0000000  0  8G14G22G15G 3G18G 9G21G19
  23363515.7874   -5231249.25348  -4076295.89445                  23363519.6544
       251.0004          5.0004
  20930537.8804   -1678954.57549  -1308275.36247                  20930537.6904
       805.0004         54.0004
  20445437.3284   -2189306.71449  -1705952.52447                  20445439.9424
       850.0004         60.0004
  22762610.2884   -3920339.44149  -3054809.18146                  22762613.4714
       357.0004         12.0004
  20711578.2994     943148.50449    734921.80447                  20711579.2614
       742.0004         60.0004
  24282045.8864   -2526214.20348  -1968474.83844                  24282050.6564
       186.0004          3.0004
  20804069.7814    1013715.10549    789907.24647                  20804070.3894
       827.0004         49.0004
  25169879.1224   -1016750.95647
        95.0004          1.0004
 05  6 24 16  2  0.0000000  0  8G14G22G15G 3G18G 9G21G19
  23342876.8254   -5339704.33348  -4160806.31745                  23342878.9594
       251.0004          6.0004
  20925813.9054   -1703780.84749  -1327620.49847                  20925813.4824
       827.0004         54.0004
  20438591.7964   -2225280.52749  -1733984.06547                  20438594.4044
       850.0004         60.0004
  22750454.4474   -3984219.93249  -3104586.16746                  22750457.6744
       357.0004         12.0004
  20716309.6864     968011.48949    754295.54947                  20716310.4874
       742.0004         60.0004
  24268966.5374   -2594948.94348  -2022034.31644                  24268971.5004
       214.0004          3.0004
  20809085.4774    1040072.82849    810445.72147                  20809085.9604
       827.0004         49.0004
  25150671.3104   -1117692.31047
        95.0004          1.0004
 05  6 24 16  2 30.0000000  0  8G14G22G15G 3G18G 9G21G19
  23322273.3984   -5447974.50648  -4245172.65345                  23322276.4834
       251.0004          6.0004
  20921153.1844   -1728274.28949  -1346706.28547                  20921152.6294
       827.0004         55.0004
  20431796.8574   -2260988.01049  -1761808.08147                  20431799.3474
       850.0004         60.0004
  22738385.0504   -4047643.17449  -3154006.84946                  22738387.7514
       348.0004         11.0004
  20721094.4504     993155.69249    773888.42547                  20721095.3644
       742.0004         60.0004
  24255935.5794   -2663424.39348  -2075391.76244                  24255939.7304
       208.0004          3.0004
  20814164.7824    1066764.88649    831244.71047                  20814165.2604
       827.0004         49.0004
  25131494.0974   -1218468.16547   -949454.51544                  25131504.5224
        76.0004          2.0004
 05  6 24 16  3  0.0000000  0  8G14G22G15G 3G18G 9G21G19
  23301708.3674   -5556045.27848  -4329383.61545                  23301712.3204
       258.0004          6.0004
  20916557.6454   -1752423.43649  -1365523.79247                  20916557.1934
       827.0004         55.0004
  20425055.1734   -2296415.82149  -1789414.17347                  20425057.5374
       850.0004         60.0004
  22726405.7584   -4110595.43949  -3203060.55046                  22726408.4354
       357.0004         12.0004
  20725934.7334    1018591.75049    793708.72147                  20725935.7074
       742.0004         60.0004
  24242956.7604   -2731625.37848  -2128535.32144                  24242960.4724
       202.0004          3.0004
  20819310.4294    1093804.33749    852314.39147                  20819310.7974
       827.0004         49.0004
  25112352.1594   -1319064.03747  -1027840.84744                  25112357.2584
        78.0004          2.0004
 05  6 24 16  3 30.0000000  0  8G14G22G15G 3G18G 9G21G19
  23281170.3914   -5663973.52948  -4413483.50545                  23281173.4924
       258.0004          6.0004
  20912016.0374   -1776289.16949  -1384120.45747                  20912015.5474
       827.0004         54.0004
  20418355.5654   -2331622.01949  -1816847.57647                  20418358.1124
       827.0004         60.0004
  22714505.2774   -4173134.09849  -3251791.97246                  22714507.8874
       377.0004         12.0004
  20730818.9884    1044258.84549    813709.04447                  20730819.9654
       742.0004         58.0004
  24230020.4104   -2799608.30748  -2181508.97444                  24230023.6814
       225.0004          3.0004
  20824510.7684    1121132.07849    873608.72147                  20824511.1244
       827.0004         49.0004
  25093235.2584   -1419537.09647  -1106131.51044                  25093240.0064
        95.0004          2.0004
 05  6 24 16  4  0.0000000  0  8G14G22G15G 3G18G 9G21G19
  23260663.5334   -5771739.57348  -4497457.02945                  23260666.2524
       272.0004          6.0004
  20907531.5934   -1799854.89349  -1402483.35047                  20907531.2174
       805.0004         54.0004
  20411701.7454   -2366588.02649  -1844093.81447                  20411704.4784
       827.0004         60.0004
  22702686.5414   -4235240.36549  -3300186.43946                  22702689.6134
       367.0004         12.0004
  20735750.3674    1070172.94849    833901.84147                  20735751.2754
       742.0004         58.0004
  24217129.3474   -2867352.50548  -2234296.66044                  24217132.8294
       232.0004          3.0004
  20829769.3824    1148765.75649    895141.44547                  20829769.7064
       850.0004         49.0004
  25074143.3624   -1519868.09148  -1184311.49644                  25074146.5824
       111.0004          3.0004
 05  6 24 16  4 30.0000000  0  8G14G22G15G 3G18G 9G21G19
  23240188.7404   -5879335.58148  -4581298.05845                  23240190.9874
       280.0004          7.0004
  20903105.0774   -1823116.16749  -1420609.00847                  20903104.6704
       805.0004         54.0004
  20405094.8804   -2401307.28249  -1871147.78047                  20405097.5134
       827.0004         58.0004
  22690951.8444   -4296906.97249  -3348238.31946                  22690954.3604
       367.0004         12.0004
  20740729.2744    1096337.65949    854289.91947                  20740730.1944
       742.0004         58.0004
  24204284.2484   -2934849.65948  -2286891.82644                  24204290.5124
       202.0004          3.0004
  20835087.3594    1176711.12949    916917.04647                  20835087.5044
       850.0004         49.0004
  25055080.8584   -1620049.42948  -1262374.85844                  25055084.4574
       150.0004          3.0004
 05  6 24 16  5  0.0000000  0  8G14G22G15G 3G18G 9G21G19
  23219747.4734   -5986754.53448  -4665001.11845                  23219750.9674
       288.0004          7.0004
  20898737.0154   -1846069.51749  -1438494.72547                  20898736.9164
       805.0004         54.0004
  20398536.0404   -2435774.00049  -1898004.96347                  20398538.5684
       827.0004         58.0004
  22679302.1904   -4358127.67249  -3395942.74646                  22679304.8304
       377.0004         12.0004
  20745756.4834    1122755.82749    874875.49647                  20745757.4354
       742.0004         58.0004
  24191489.2994   -3002092.47748  -2339288.77844                  24191492.1014
       214.0004          3.0004
  20840465.2974    1204973.24049    938939.45147                  20840465.5284
       850.0004         49.0004
  25036047.6864   -1720073.78148  -1340315.88644                  25036046.3674
       181.0004          3.0004
 05  6 24 16  5 30.0000000  0  8G14G22G15G 3G18G 9G21G19
  23199337.0904   -6094013.40648  -4748579.43145                  23199340.2014
       296.0004          7.0004
  20894423.9184   -1868735.22149  -1456156.30547                  20894423.5774
       784.0004         54.0004
  20392021.9114   -2470006.28549  -1924679.47447                  20392024.6494
       805.0004         57.0004
  22667733.2224   -4418919.91349  -3443313.32146                  22667736.1274
       367.0004         13.0004
  20750828.0094    1149406.66849    895642.37447                  20750828.9354
       742.0004         57.0004
  24178738.1094   -3069096.94648  -2391499.99844                  24178742.3284
       208.0004          3.0004
  20845900.1754    1233533.08249    961193.85447                  20845900.3304
       827.0004         48.0004
  25017040.9644   -1819958.61648  -1418148.24045                  25017040.8204
       208.0004          4.0004
 05  6 24 16  6  0.0000000  0  8G14G22G15G 3G18G 9G21G19
  23178965.2804   -6201070.93348  -4832000.87845                  23178967.7854
       312.0004          7.0004
  20890172.7764   -1891075.32249  -1473564.16647                  20890172.6034
       805.0004         54.0004
  20385559.8644   -2503964.28349  -1951140.25147                  20385562.4814
       827.0004         60.0004
  22656253.7554   -4479243.43949  -3490318.64446                  22656257.3304
       357.0004         13.0004
  20755951.1274    1176327.47649    916619.61947                  20755951.7214
       763.0004         57.0004
  24166041.1524   -3135821.23648  -2443492.88845                  24166047.8754
       214.0004          4.0004
  20851399.0204    1262429.85849    983710.80947                  20851399.2944
       850.0004         49.0004
  24998068.2434   -1919662.70148  -1495839.70045                  24998068.8004
       225.0004          4.0004
 05  6 24 16  6 30.0000000  0  8G14G22G15G 3G18G 9G21G19
  23158628.3824   -6307941.93048  -4915276.95445                  23158630.6934
       312.0004          8.0004
  20885980.0414   -1913108.01949  -1490732.49147                  20885979.8204
       805.0004         54.0004
  20379147.1174   -2537663.94249  -1977399.72147                  20379149.6994
       827.0004         60.0004
  22644861.6114   -4539113.66749  -3536970.75746                  22644863.9774
       377.0004         13.0004
  20761121.7074    1203499.70849    937792.78047                  20761122.3684
       763.0004         57.0004
  24153394.5404   -3202279.42248  -2495278.44344                  24153398.1894
       214.0004          3.0004
  20856958.6834    1291647.11649   1006477.48947                  20856959.0074
       827.0004         48.0004
  24979126.5254   -2019201.12148  -1573402.08045                  24979127.8144
       238.0004          4.0004
 05  6 24 16  7  0.0000000  0  8G14G22G15G 3G18G 9G21G19
  23138327.1904   -6414625.33248  -4998406.85045                  23138329.7514
       312.0004          8.0004
  20881845.7914   -1934835.76249  -1507663.19347                  20881845.3654
       827.0004         57.0004
  20372783.3934   -2571105.38349  -2003457.98547                  20372785.7664
       827.0004         58.0004
  22633554.7714   -4598530.46549  -3583269.56246                  22633557.0654
       387.0004         13.0004
  20766339.6494    1230920.32549    959159.48647                  20766340.4354
       742.0004         57.0004
  24140798.5284   -3268469.87848  -2546855.39045                  24140801.5104
       214.0004          4.0004
  20862579.4624    1321183.63449   1029492.94547                  20862579.8094
       827.0004         47.0004
  24960216.9844   -2118572.63748  -1650834.43745                  24960217.8644
       272.0004          4.0004
 05  6 24 16  7 30.0000000  0  8G14G22G15G 3G18G 9G21G19
  23118059.5754   -6521130.68448  -5081398.01345                  23118062.4044
       312.0004          8.0004
  20877766.2234   -1956271.63149  -1524366.45947                  20877766.0084
       805.0004         55.0004
  20366466.8574   -2604299.32949  -2029323.39347                  20366469.2464
       827.0004         60.0004
  22622332.2774   -4657504.02449  -3629222.97746                  22622335.4574
       377.0004         13.0004
  20771602.1284    1258575.55149    980709.00547                  20771603.1124
       742.0004         57.0004
  24128252.5014   -3334401.55148  -2598230.66444                  24128256.9974
       219.0004          3.0004
  20868258.6824    1351027.77749   1052748.10647                  20868259.1424
       827.0004         47.0004
  24941336.4134   -2217787.37848  -1728144.63245                  24941337.4514
       296.0004          5.0004
 05  6 24 16  8  0.0000000  0  8G14G22G15G 3G18G 9G21G19
  23097830.4724   -6627437.01748  -5164234.08145                  23097833.3704
       312.0004          8.0004
  20873746.3384   -1977397.81449  -1540828.41147                  20873746.0144
       827.0004         57.0004
  20360201.1924   -2637226.17449  -2054980.66947                  20360203.5604
       850.0004         60.0004
  22611198.2804   -4716013.97049  -3674815.12346                  22611201.4464
       377.0004         14.0004
  20776912.6744    1286482.87249   1002454.96447                  20776913.7784
       722.0004         57.0004
  24115759.7534   -3400052.79948  -2649387.45445                  24115761.9664
       232.0004          4.0004
  20873999.7454    1381198.44749   1076257.70647                  20874000.2784
       805.0004         47.0004
  24922489.5944   -2316824.44548  -1805316.32745                  24922490.5304
       288.0004          5.0004
 05  6 24 16  8 30.0000000  0  8G14G22G15G 3G18G 9G21G19
  23077637.3534   -6733552.00148  -5246921.05345                  23077639.4204
       312.0004          8.0004
  20869782.7384   -1998225.30049  -1557057.61447                  20869782.4714
       805.0004         55.0004
  20353984.4904   -2669894.43249  -2080436.45147                  20353987.0964
       827.0004         60.0004
  22600151.0534   -4774068.35449  -3720052.28646                  22600154.1144
       387.0004         14.0004
  20782269.1134    1314630.89349   1024388.48247                  20782269.8894
       742.0004         55.0004
  24103318.0934   -3465430.41448  -2700331.01744                  24103320.8924
       219.0004          2.0004
  20879801.4434    1411686.23149   1100014.40647                  20879801.7594
       805.0004         46.0004
  24903675.4944   -2415691.23948  -1882355.38245                  24903676.1264
       304.0004          5.0004
 05  6 24 16  9  0.0000000  0  8G14G22G15G 3G18G 9G21G19
  23057482.3534   -6839464.87848  -5329450.52545                  23057485.5434
       304.0004          8.0004
  20865877.4514   -2018746.98649  -1573048.53247                  20865877.0604
       805.0004         55.0004
  20347818.7704   -2702294.57849  -2105683.31447                  20347821.6244
       827.0004         60.0004
  22589191.8834   -4831657.77549  -3764927.15546                  22589195.1164
       387.0004         14.0004
  20787672.4384    1343025.53449   1046514.17147                  20787673.0184
       742.0004         55.0004
  24090932.0144   -3530523.53648  -2751052.86344                  24090935.2374
       225.0004          3.0004
  20885665.1004    1442499.80649   1124024.96747                  20885665.2354
       805.0004         46.0004
  24884895.4834   -2514377.48448  -1959253.74345                  24884897.2834
       288.0004          4.0004
 05  6 24 16  9 30.0000000  0  8G14G22G15G 3G18G 9G21G19
  23037366.4494   -6945173.04548  -5411820.50045                  23037369.5564
       296.0004          8.0004
  20862030.8974   -2038963.46049  -1588801.62047                  20862030.3064
       827.0004         57.0004
  20341704.5054   -2734425.19549  -2130720.15347                  20341707.4094
       827.0004         60.0004
  22578321.5004   -4888780.18049  -3809438.10146                  22578324.8094
       367.0004         13.0004
  20793122.6944    1371665.99549   1068831.41047                  20793123.2074
       763.0004         55.0004
  24078599.9014   -3595328.86048  -2801550.46444                  24078601.8454
       232.0004          2.0004
  20891590.7804    1473639.49449   1148289.64347                  20891591.0984
       805.0004         46.0004
  24866150.7844   -2612880.55048  -2036009.35745                  24866153.9044
       272.0004          4.0004
 05  6 24 16 10  0.0000000  0  8G14G22G15G 3G18G 9G21G19
  23017291.5784   -7050665.20548  -5494022.14645                  23017294.6874
       288.0004          8.0004
  20858243.1094   -2058866.91949  -1604310.79647                  20858242.5104
       805.0004         57.0004
  20335643.6034   -2766275.94849  -2155538.92047                  20335646.5024
       827.0004         61.0004
  22567542.7834   -4945424.95749  -3853576.86846                  22567545.4674
       387.0004         14.0004
  20798621.0574    1400559.75249   1091346.02047                  20798621.5984
       763.0004         55.0004
  24066324.4834   -3659834.26848  -2851814.38044                  24066327.5534
       232.0004          3.0004
  20897580.4414    1505115.01249   1172816.01047                  20897580.8204
       805.0004         46.0004
  24847443.4244   -2711189.06648  -2112613.39144                  24847443.2674
       258.0004          3.0004
 05  6 24 16 10 30.0000000  0  8G14G22G15G 3G18G 9G21G19
  22997259.4284   -7155935.81148  -5576051.14545                  22997261.8844
       296.0004          8.0004
  20854515.5724   -2078455.30349  -1619574.45947                  20854515.2564
       805.0004         57.0004
  20329636.7044   -2797842.97749  -2180136.60347                  20329639.3474
       827.0004         61.0004
  22556855.1104   -5001587.80249  -3897340.11246                  22556858.2334
       377.0004         14.0004
  20804168.0464    1429708.26549   1114059.14247                  20804168.4594
       763.0004         55.0004
  24054107.3534   -3724033.87148  -2901840.00545                  24054110.7304
       225.0004          4.0004
  20903634.5974    1536929.18549   1197606.26447                  20903634.8674
       805.0004         46.0004
  24828773.6374   -2809297.92048  -2189061.86144                  24828773.9704
       232.0004          3.0004
 05  6 24 16 11  0.0000000  0  8G14G22G15G 3G18G 9G21G19
  22977268.0284   -7260991.32548  -5657912.55645                  22977271.2944
       304.0004          9.0004
  20850846.0524   -2097738.65549  -1634600.43947                  20850845.7354
       805.0004         57.0004
  20323682.4124   -2829133.64249  -2204518.93647                  20323684.9614
       850.0004         61.0004
  22546257.8814   -5057275.80449  -3940733.33946                  22546261.1924
       377.0004         13.0004
  20809761.1754    1459100.95749   1136962.53547                  20809761.7014
       763.0004         55.0004
  24041947.8364   -3787933.22648  -2951631.63244                  24041951.2804
       232.0004          3.0004
  20909751.3314    1569073.84649   1222654.04647                  20909751.7844
       805.0004         46.0004
  24810140.7084   -2907213.43148  -2265359.65544                  24810140.7334
       208.0004          3.0004
 05  6 24 16 11 30.0000000  0  8G14G22G15G 3G18G 9G21G19
  22957317.8454   -7365828.47248  -5739603.80945                  22957320.7304
       304.0004          9.0004
  20847234.4064   -2116716.65449  -1649388.48047                  20847234.2624
       784.0004         55.0004
  20317780.9864   -2860145.43749  -2228683.97047                  20317783.5234
       850.0004         61.0004
  22535752.0084   -5112486.31049  -3983754.49446                  22535754.5784
       387.0004         13.0004
  20815400.7804    1488737.67749   1160056.08047                  20815401.4774
       763.0004         55.0004
  24029846.3934   -3851528.20848  -3001186.09645                  24029849.1944
       232.0004          4.0004
  20915931.4404    1601550.57749   1247960.58247                  20915932.0104
       805.0004         46.0004
  24791545.8394   -3004932.30148  -2341504.18544                  24791547.9274
       208.0004          3.0004
 05  6 24 16 12  0.0000000  0  8G14G22G15G 3G18G 9G21G19
  22937408.7804   -7470450.57948  -5821127.49445                  22937411.5684
       304.0004          9.0004
  20843680.1734   -2135396.38849  -1663944.11047                  20843679.5304
       827.0004         57.0004
  20311931.7094   -2890883.01749  -2252635.32747                  20311934.2994
       827.0004         61.0004
  22525336.1194   -5167223.66049  -4026406.96646                  22525338.6194
       409.0004         14.0004
  20821085.5094    1518611.04749   1183334.02747                  20821086.3584
       763.0004         55.0004
  24017801.4344   -3914821.74348  -3050505.66544                  24017804.3584
       219.0004          3.0004
  20922173.7534    1634353.96649   1273521.65547                  20922174.3774
       784.0004         46.0004
  24772987.3144   -3102458.17648  -2417498.38544                  24772986.8334
       208.0004          3.0004
 05  6 24 16 12 30.0000000  0  8G14G22G15G 3G18G 9G21G19
  22917539.4804   -7574863.00148  -5902487.78145                  22917541.9614
       296.0004          9.0004
  20840180.3984   -2153786.87749  -1678274.34647                  20840179.9494
       805.0004         57.0004
  20306133.4194   -2921353.17749  -2276378.30747                  20306136.0464
       850.0004         61.0004
  22515008.5924   -5221494.13249  -4068695.62946                  22515011.1704
       409.0004         14.0004
  20826813.2334    1548711.37749   1206788.82547                  20826813.9004
       763.0004         55.0004
  24005812.9544   -3977818.74348  -3099594.16044                  24005819.4744
       192.0004          3.0004
  20928476.6674    1667476.07249   1299331.07847                  20928477.0904
       784.0004         46.0004
  24754464.9324   -3199796.54048  -2493346.45644                  24754464.7064
       192.0004          2.0004
 05  6 24 16 13  0.0000000  0  8G14G22G15G 3G18G 9G21G19
  22897713.4484   -7679050.84748  -5983673.07845                  22897716.5264
       304.0004          9.0004
  20836738.2664   -2171876.24049  -1692369.94147                  20836737.6994
       827.0004         57.0004
  20300388.7484   -2951541.85949  -2299901.95647                  20300391.1694
       850.0004         61.0004
  22504773.0554   -5275283.65849  -4110609.53646                  22504775.0364
       409.0004         13.0004
  20832586.5314    1579049.91149   1230429.23747                  20832587.3964
       763.0004         55.0004
  23993884.0274   -4040503.80248  -3148439.59445                  23993889.5584
       186.0004          4.0004
  20934842.9314    1700929.99149   1325399.05847                  20934843.4304
       805.0004         46.0004
  24735980.3414   -3296932.53748  -2569036.82144                  24735979.9364
       186.0004          3.0004
 05  6 24 16 13 30.0000000  0  8G14G22G15G 3G18G 9G21G19
  22877926.8464   -7783031.58449  -6064696.98745                  22877930.1964
       321.0004          9.0004
  20833349.3374   -2189685.58849  -1706247.34347                  20833348.7014
       827.0004         57.0004
  20294694.0244   -2981467.73849  -2323220.82647                  20294696.5764
       827.0004         61.0004
  22494625.0854   -5328610.34249  -4152162.78746                  22494627.0164
       409.0004         13.0004
  20838401.2004    1609605.42349   1254238.72347                  20838401.7344
       763.0004         55.0004
  23982012.7644   -4102893.70748  -3197055.05945                  23982016.1104
       232.0004          4.0004
  20941268.5264    1734696.24649   1351710.41447                  20941268.6344
       805.0004         44.0004
  24717530.1474   -3393883.43848  -2644582.96944                  24717529.8254
       181.0004          3.0004
 05  6 24 16 14  0.0000000  0  8G14G22G15G 3G18G 9G21G19
  22858180.0054   -7886804.07949  -6145558.63145                  22858182.1264
       329.0004          9.0004
  20830013.1704   -2207217.01149  -1719908.18247                  20830012.6214
       827.0004         57.0004
  20289049.4524   -3011130.77149  -2346334.88147                  20289051.7964
       850.0004         60.0004
  22484565.4984   -5381474.16049  -4193355.36146                  22484567.8334
       409.0004         14.0004
  20844256.4684    1640375.06149   1278215.06447                  20844257.0474
       784.0004         54.0004
  23970197.0174   -4164986.56148  -3245439.04045                  23970199.6364
       238.0004          4.0004
  20947753.2114    1768773.76649   1378264.31247                  20947753.4184
       805.0004         44.0004
  24699115.9184   -3490648.33248  -2719984.14144                  24699115.7944
       154.0004          3.0004
 05  6 24 16 14 30.0000000  0  8G14G22G15G 3G18G 9G21G19
  22838483.4994   -7990310.74949  -6226213.14146                  22838485.4584
       338.0004         10.0004
  20826740.1434   -2224416.88949  -1733310.67247                  20826739.5704
       827.0004         57.0004
  20283465.5444   -3040474.87649  -2369200.41547                  20283467.8784
       850.0004         61.0004
  22474604.6174   -5433818.78849  -4234143.37546                  22474607.2114
       409.0004         14.0004
  20850162.6974    1671412.19549   1302399.83947                  20850163.2574
       763.0004         54.0004
  23958448.3904   -4226724.58248  -3293546.50645                  23958452.0424
       225.0004          4.0004
  20954307.6624    1803217.88349   1405103.87047                  20954308.1554
       805.0004         44.0004
  24680748.5314   -3587170.01948  -2795195.84944                  24680747.1084
       150.0004          2.0004
 05  6 24 16 15  0.0000000  0  8G14G22G15G 3G18G 9G21G19
  22818828.5774   -8093597.66949  -6306696.40846                  22818831.1584
       338.0004         10.0004
  20823520.6064   -2241334.12149  -1746492.92047                  20823520.2084
       805.0004         57.0004
  20277933.3424   -3069546.83349  -2391853.88747                  20277935.5354
       873.0004         61.0004
  22464733.5734   -5485690.68649  -4274563.01846                  22464736.5844
       409.0004         14.0004
  20856110.3614    1702667.58549   1326754.68347                  20856110.9314
       763.0004         54.0004
  23946758.6484   -4288152.79748  -3341412.58745                  23946761.8254
       232.0004          4.0004
  20960922.8824    1837980.81349   1432191.84847                  20960923.4084
       805.0004         44.0004
  24662418.0624   -3683494.24448  -2870253.62544                  24662419.6194
       142.0004          3.0004
 05  6 24 16 15 30.0000000  0  8G14G22G15G 3G18G 9G21G19
  22799216.0774   -8196661.19549  -6387005.60946                  22799217.7614
       338.0004         10.0004
  20820355.4574   -2257968.51049  -1759454.77247                  20820354.9454
       827.0004         57.0004
  20272453.4384   -3098343.95449  -2414293.20247                  20272455.5854
       850.0004         61.0004
  22454953.0314   -5537087.01849  -4314612.09646                  22454956.1074
       409.0004         14.0004
  20862099.4694    1734140.79349   1351279.24947                  20862100.0644
       763.0004         54.0004
  23935129.2984   -4349266.86048  -3389033.87245                  23935133.4734
       232.0004          4.0004
  20967599.0844    1873064.17349   1459529.51447                  20967599.3314
       784.0004         43.0004
  24644126.2474   -3779617.26548  -2945154.63045                  24644127.8684
       158.0004          4.0004
 05  6 24 16 16  0.0000000  0  8G14G22G15G 3G18G 9G21G19
  22779645.9214   -8299501.36849  -6467140.77346                  22779648.3874
       329.0004         10.0004
  20817243.0374   -2274323.72049  -1772199.07647                  20817242.5924
       827.0004         57.0004
  20267025.4454   -3126867.78349  -2436519.56347                  20267027.7854
       850.0004         61.0004
  22445262.9054   -5588009.10249  -4354291.62646                  22445265.9084
       409.0004         14.0004
  20868129.4454    1765827.72849   1375970.36047                  20868130.0614
       784.0004         55.0004
  23923559.2974   -4410066.57948  -3436410.22245                  23923561.6104
       232.0004          4.0004
  20974335.5314    1908465.54649   1487114.98447                  20974335.9464
       784.0004         42.0004
  24625873.8954   -3875539.40848  -3019899.11845                  24625874.9144
       202.0004          5.0004
 05  6 24 16 16 30.0000000  0  8G14G22G15G 3G18G 9G21G19
  22760119.4024   -8402115.54649  -6547099.83546                  22760122.3224
       338.0004         10.0004
  20814183.7504   -2290400.18849  -1784726.17947                  20814183.2144
       805.0004         57.0004
  20261649.8374   -3155116.41149  -2458531.47947                  20261652.2584
       850.0004         61.0004
  22435663.3134   -5638454.97949  -4393600.08146                  22435665.9334
       409.0004         14.0004
  20874199.6534    1797727.68749   1400827.46347                  20874200.3114
       763.0004         54.0004
  23912049.9684   -4470548.68048  -3483539.06945                  23912053.6844
       232.0004          4.0004
  20981132.8074    1944185.83949   1514948.96247                  20981133.4584
       763.0004         42.0004
  24607660.6754   -3971257.72648  -3094484.80845                  24607660.4514
       251.0004          5.0004
 05  6 24 16 17  0.0000000  0  8G21G14G22G15G 3G18G 9G19
  20987996.2194    1980252.84049   1543053.09647                  20987997.1844
       763.0004         43.0004
  22740641.4834   -8504473.73949  -6626859.42046                  22740644.3924
       348.0004         11.0004
  20811182.7594   -2306171.80549  -1797015.74047                  20811182.1204
       827.0004         57.0004
  20256332.1324   -3183061.03549  -2480306.51147                  20256334.5634
       850.0004         61.0004
  22426159.7294   -5688395.69349  -4432514.91246                  22426162.0424
       409.0004         15.0004
  20880315.3944    1829866.41749   1425870.61847                  20880316.2724
       763.0004         54.0004
  23900606.8504   -4530682.54148  -3530396.57245                  23900611.0204
       238.0004          4.0004
  24589490.5434   -4066742.42048  -3168888.45445                  24589489.9004
       258.0004          6.0004
 05  6 24 16 17 30.0000000  0  8G21G14G22G15G 3G18G 9G19
  20994924.2034    2016660.05149   1571422.33047                  20994924.7714
       763.0004         43.0004
  22721211.2634   -8606580.20849  -6706422.85446                  22721214.4094
       348.0004         10.0004
  20808237.7464   -2321646.08249  -1809073.60547                  20808237.3554
       805.0004         57.0004
  20251071.3874   -3210707.10449  -2501848.90347                  20251073.7384
       850.0004         63.0004
  22416751.4224   -5737836.62349  -4471040.29846                  22416753.8244
       409.0004         14.0004
  20886474.8194    1862235.37849   1451093.17347                  20886475.6254
       742.0004         54.0004
  23889229.1514   -4590471.82848  -3576985.56045                  23889232.1104
       238.0004          4.0004
  24571364.4294   -4161998.09148  -3243113.61545                  24571364.9324
       251.0004          6.0004
 05  6 24 16 18  0.0000000  0  8G21G14G22G15G 3G18G 9G19
  21001914.7934    2053395.98249   1600047.71347                  21001915.3444
       763.0004         42.0004
  22701826.8454   -8708444.55649  -6785797.63846                  22701829.2184
       348.0004         11.0004
  20805347.0284   -2336836.25949  -1820910.09347                  20805346.5664
       805.0004         57.0004
  20245865.2234   -3238065.17749  -2523166.88147                  20245867.7394
       850.0004         63.0004
  22407436.3584   -5786788.35149  -4509184.49146                  22407438.9044
       420.0004         15.0004
  20892675.8774    1894821.57049   1476485.00047                  20892676.5964
       763.0004         52.0004
  23877916.2594   -4649925.45148  -3623312.98845                  23877919.6054
       258.0004          4.0004
  24553279.9564   -4257034.00048  -3317167.53145                  24553280.9244
       258.0004          6.0004
 05  6 24 16 18 30.0000000  0  8G21G14G22G15G 3G18G 9G19
  21008968.8584    2090464.30149   1628932.10147                  21008969.2334
       784.0004         42.0004
  22682489.9524   -8810060.54449  -6864978.88846                  22682492.7724
       348.0004         11.0004
  20802511.3304   -2351739.47649  -1832522.97747                  20802510.7464
       805.0004         57.0004
  20240714.8224   -3265130.32649  -2544256.60647                  20240717.2934
       850.0004         63.0004
  22398215.6294   -5835245.97649  -4546943.66446                  22398218.4644
       432.0004         16.0004
  20898918.7684    1927627.74849   1502048.24747                  20898919.5024
       763.0004         52.0004
  23866666.6624   -4709037.08148  -3669373.95545                  23866669.4234
       238.0004          5.0004
  24535237.5654   -4351844.33648  -3391045.68245                  24535238.3644
       265.0004          6.0004
 05  6 24 16 19  0.0000000  0  8G21G14G22G15G 3G18G 9G19
  21016084.5454    2127857.30549   1658069.48347                  21016085.0634
       784.0004         41.0004
  22663198.4884   -8911434.47849  -6943971.51046                  22663201.6494
       338.0004         10.0004
  20799727.9884   -2366365.03249  -1843919.49947                  20799727.4814
       805.0004         57.0004
  20235618.9704   -3291909.48549  -2565123.48247                  20235621.4024
       850.0004         65.0004
  22389086.9004   -5883215.97349  -4584322.87546                  22389089.9904
       432.0004         16.0004
  20905201.5154    1960643.73849   1527774.98647                  20905202.1364
       763.0004         52.0004
  23855482.2774   -4767811.75548  -3715172.33745                  23855485.0974
       238.0004          5.0004
  24517236.8704   -4446434.77448  -3464752.49845                  24517238.0264
       272.0004          7.0004
 05  6 24 16 19 30.0000000  0  8G21G14G22G15G 3G18G 9G19
  21023265.0834    2165591.50549   1687472.73547                  21023265.4754
       784.0004         41.0004
  22643957.2424   -9012547.42749  -7022760.77646                  22643960.5114
       338.0004         11.0004
  20797000.5334   -2380697.77149  -1855087.85047                  20797000.3544
       805.0004         57.0004
  20230580.9014   -3318385.05449  -2585753.79847                  20230583.4864
       850.0004         65.0004
  22380054.6724   -5930680.89349  -4621308.51246                  22380057.8144
       432.0004         16.0004
  20911527.0034    1993884.11649   1553676.56647                  20911527.6114
       763.0004         52.0004
  23844365.3404   -4826230.32848  -3760693.24045                  23844368.5744
       232.0004          4.0004
  24499282.0204   -4540786.82148  -3538273.52845                  24499283.8354
       265.0004          7.0004
 05  6 24 16 20  0.0000000  0  8G21G14G22G15G 3G18G 9G19
  21030510.9534    2203668.82449   1717143.35047                  21030511.3434
       763.0004         40.0004
  22624766.4124   -9113395.22249  -7101343.43346                  22624769.6514
       338.0004         11.0004
  20794328.9294   -2394736.75849  -1866027.31347                  20794328.6544
       805.0004         57.0004
  20225601.0794   -3344553.79449  -2606145.02647                  20225603.8324
       850.0004         65.0004
  22371118.9774   -5977637.94049  -4657898.40546                  22371121.4204
       432.0004         16.0004
  20917895.3024    2027349.52649   1579753.49647                  20917895.9424
       763.0004         51.0004
  23833317.0814   -4884288.04548  -3805932.93945                  23833320.9574
       232.0004          4.0004
  24481373.8134   -4634896.21148  -3611605.48845                  24481375.6724
       251.0004          6.0004
 05  6 24 16 20 30.0000000  0  8G21G14G22G15G 3G18G 9G19
  21037820.1394    2242078.15649   1747072.68247                  21037820.5234
       784.0004         41.0004
  22605624.5994   -9213987.25149  -7179726.78946                  22605627.2454
       348.0004         11.0004
  20791710.8354   -2408494.79349  -1876747.85047                  20791710.4634
       805.0004         57.0004
  20220677.7254   -3370426.12049  -2626305.28347                  20220680.4784
       850.0004         65.0004
  22362278.2534   -6024097.16049  -4694100.39046                  22362280.9834
       444.0004         16.0004
  20924303.9724    2061027.00249   1605995.67347                  20924304.6014
       763.0004         51.0004
  23822336.5844   -4941993.70548  -3850898.34145                  23822339.7624
       238.0004          5.0004
  24463509.0694   -4728772.15448  -3684755.54645                  24463510.3754
       214.0004          5.0004
 05  6 24 16 21  0.0000000  0  8G21G14G22G15G 3G18G 9G19
  21045194.4934    2280830.44949   1777269.25547                  21045194.9504
       784.0004         41.0004
  22586533.9274   -9314310.01549  -7257900.32246                  22586536.2144
       357.0004         12.0004
  20789148.2854   -2421961.91249  -1887241.70147                  20789147.8404
       805.0004         57.0004
  20215813.0844   -3395989.82949  -2646225.05747                  20215815.6274
       850.0004         65.0004
  22353534.0604   -6070046.34049  -4729904.93246                  22353537.1214
       432.0004         16.0004
  20930754.7714    2094926.24949   1632410.66147                  20930755.1464
       763.0004         51.0004
  23811425.1344   -4999333.44548  -3895578.62245                  23811427.0284
       251.0004          4.0004
  24445691.6754   -4822401.52448  -3757713.44945                  24445694.8474
       197.0004          4.0004
 05  6 24 16 21 30.0000000  0  8G21G14G22G15G 3G18G 9G19
  21052633.6904    2319923.74549   1807731.54747                  21052634.0984
       784.0004         40.0004
  22567494.4634   -9414363.47849  -7335864.00746                  22567497.0964
       367.0004         12.0004
  20786640.3384   -2435141.42149  -1897511.43947                  20786639.7234
       805.0004         57.0004
  20211007.1134   -3421245.56949  -2665904.85647                  20211009.7744
       850.0004         65.0004
  22344887.3944   -6115486.34349  -4765312.70946                  22344890.5004
       444.0004         16.0004
  20937247.0194    2129042.83849   1658995.00947                  20937247.5814
       784.0004         51.0004
  23800583.6434   -5056306.48748  -3939973.13945                  23800587.2984
       258.0004          5.0004
  24427921.5304   -4915783.80748  -3830478.83445                  24427923.9414
       186.0004          4.0004
 05  6 24 16 22  0.0000000  0  8G21G14G22G15G 3G18G 9G19
  21060135.4314    2359345.56649   1838449.83247                  21060135.8204
       784.0004         40.0004
  22548504.3134   -9514158.23649  -7413626.11546                  22548507.1934
       377.0004         12.0004
  20784184.2734   -2448047.30449  -1907567.96747                  20784183.8624
       805.0004         57.0004
  20206257.5834   -3446205.00249  -2685353.76747                  20206260.0924
       873.0004         67.0004
  22336335.3794   -6160428.61349  -4800332.64046                  22336337.9704
       456.0004         17.0004
  20943778.0474    2163363.29249   1685738.21447                  20943778.5034
       784.0004         51.0004
  23789809.8944   -5112922.78248  -3984089.66845                  23789811.6444
       251.0004          4.0004
  24410196.3164   -5008929.71348  -3903060.03144                  24410199.1744
       186.0004          3.0004
 05  6 24 16 22 30.0000000  0  8G21G14G22G15G 3G18G 9G19
  21067700.4604    2399099.54949   1869426.94247                  21067700.7784
       784.0004         40.0004
  22529564.2164   -9613688.18249  -7491181.87346                  22529566.8294
       377.0004         12.0004
  20781780.9164   -2460677.11049  -1917409.37447                  20781780.5964
       805.0004         57.0004
  20201565.2854   -3470863.28749  -2704568.01847                  20201567.8134
       873.0004         67.0004
  22327878.8554   -6204868.29749  -4834960.94946                  22327881.7174
       456.0004         18.0004
  20950348.1894    2197889.98149   1712642.11647                  20950348.7264
       763.0004         49.0004
  23779105.3734   -5169175.72048  -4027923.13845                  23779107.4854
       244.0004          4.0004
  24392517.0354   -5101833.17448  -3975452.31944                  24392515.7454
       177.0004          3.0004
 05  6 24 16 23  0.0000000  0  8G21G14G22G15G 3G18G 9G19
  21075329.4874    2439189.83949   1900666.10547                  21075329.5994
       784.0004         39.0004
  22510675.8264   -9712947.06149  -7568526.41146                  22510678.7414
       377.0004         13.0004
  20779430.7894   -2473028.20849  -1927033.60447                  20779430.2504
       827.0004         58.0004
  20196931.2774   -3495215.42849  -2723543.71447                  20196933.7404
       873.0004         67.0004
  22319518.7454   -6248800.59749  -4869193.89746                  22319521.8194
       444.0004         18.0004
  20956958.0114    2232625.21049   1739708.52047                  20956958.7764
       763.0004         49.0004
  23768471.1704   -5225058.78048  -4071468.35745                  23768475.1334
       244.0004          5.0004
  24374885.5434   -5194487.87948  -4047650.77644                  24374885.1994
       177.0004          2.0004
 05  6 24 16 23 30.0000000  0  8G21G14G22G15G 3G18G 9G19
  21083016.3964    2479585.38249   1932143.13147                  21083016.7314
       763.0004         38.0004
  22491833.6224   -9811964.40349  -7645682.73946                  22491836.7074
       398.0004         13.0004
  20777127.3924   -2485132.76349  -1936465.72047                  20777126.8934
       827.0004         60.0004
  20192349.7184   -3519291.43249  -2742304.24047                  20192352.0624
       873.0004         65.0004
  22311249.0934   -6292255.73349  -4903055.02346                  22311252.5844
       444.0004         17.0004
  20963601.1314    2267535.83149   1766911.58947                  20963601.8934
       742.0004         49.0004
  23757901.1474   -5280600.55148  -4114747.62245                  23757905.1544
       238.0004          5.0004
  24357296.6574   -5286923.02448  -4119678.12844                  24357295.5634
       208.0004          3.0004
 05  6 24 16 24  0.0000000  0  8G21G14G22G15G 3G18G 9G19
  21090775.4104    2520359.19249   1963914.91047                  21090775.8744
       763.0004         39.0004
  22473051.4754   -9910664.56549  -7722591.91846                  22473053.4554
       398.0004         12.0004
  20774884.6344   -2496919.00949  -1945649.80147                  20774884.1634
       827.0004         58.0004
  20187834.9554   -3543016.82449  -2760791.56047                  20187837.3984
       873.0004         67.0004
  22303084.6244   -6335159.33549  -4936486.39246                  22303087.4174
       432.0004         18.0004
  20970291.3144    2302693.46949   1794307.14247                  20970292.2084
       742.0004         49.0004
  23747412.0884   -5335725.06048  -4157701.74445                  23747416.0974
       238.0004          4.0004
  24339763.9894   -5379063.20848  -4191475.64745                  24339761.7554
       238.0004          4.0004
 05  6 24 16 24 30.0000000  0  8G21G14G22G15G 3G18G 9G19
  21098601.1514    2561483.78449   1995960.02847                  21098601.5464
       763.0004         38.0004
  22454325.0094  -10009073.06249  -7799273.83046                  22454327.4954
       398.0004         12.0004
  20772696.6664   -2508415.74849  -1954608.29547                  20772696.2394
       805.0004         58.0004
  20183381.8844   -3566418.11349  -2779026.33047                  20183384.2774
       873.0004         67.0004
  22295020.1334   -6377538.09849  -4969508.78846                  22295023.5594
       420.0004         16.0004
  20977023.1634    2338069.10749   1821872.56947                  20977024.0034
       742.0004         49.0004
  23736996.3404   -5390457.11448  -4200350.08345                  23736998.7514
       244.0004          4.0004
  24322281.7154   -5470933.72248  -4263063.03845                  24322280.3834
       244.0004          5.0004
 05  6 24 16 25  0.0000000  0  8G14G22G15G 3G18G 9G21G19
  22435642.5984  -10107249.18349  -7875774.67946                  22435644.8234
       398.0004         13.0004
  20770551.9404   -2519685.70249  -1963390.07347                  20770551.5884
       805.0004         58.0004
  20178978.7974   -3589555.65249  -2797055.57947                  20178981.3564
       873.0004         67.0004
  22287044.4054   -6419452.59949  -5002169.42746                  22287047.0284
       444.0004         17.0004
  20983784.6354    2373599.90449   1849558.89747                  20983785.7234
       763.0004         49.0004
  23726644.5804   -5444855.78548  -4242738.63045                  23726647.7694
       258.0004          5.0004
  21106481.9534    2602897.57749   2028230.49547                  21106482.2984
       763.0004         38.0004
  24304839.3194   -5562593.99048  -4334486.58845                  24304838.1154
       238.0004          5.0004
 05  6 24 16 25 30.0000000  0  8G14G22G15G 3G18G 9G21G19
  22417014.1854  -10205142.57549  -7952055.20346                  22417016.6364
       398.0004         14.0004
  20768459.5214   -2530681.27149  -1971958.04247                  20768459.0184
       805.0004         57.0004
  20174635.5814   -3612379.58949  -2814840.46247                  20174638.2124
       873.0004         67.0004
  22279166.4574   -6460853.12749  -5034429.58146                  22279168.7294
       468.0004         18.0004
  20990584.3044    2409332.78049   1877402.68847                  20990585.2824
       763.0004         49.0004
  23716366.9724   -5498869.68448  -4284827.34745                  23716369.3684
       258.0004          5.0004
  21114427.0294    2644649.49549   2060764.44047                  21114427.4434
       742.0004         38.0004
  24287446.4104   -5653993.04948  -4405706.59745                  24287446.1364
       232.0004          5.0004
 05  6 24 16 26  0.0000000  0  8G14G22G15G 3G18G 9G21G19
  22398448.7324  -10302702.33949  -8028075.76646                  22398451.7864
       398.0004         14.0004
  20766428.4994   -2541355.67449  -1980275.74647                  20766427.9514
       805.0004         58.0004
  20170361.5364   -3634840.60349  -2832342.54947                  20170363.9344
       873.0004         67.0004
  22271394.7724   -6501690.56349  -5066250.95346                  22271397.8274
       432.0004         17.0004
  20997431.5064    2445314.50949   1905440.39247                  20997432.3424
       763.0004         49.0004
  23706170.5904   -5552447.96348  -4326576.63345                  23706174.7494
       251.0004          5.0004
  21122445.6814    2686787.41849   2093599.16847                  21122446.2154
       742.0004         38.0004
  24270112.6584   -5745080.48548  -4476683.75945                  24270112.0534
       238.0004          6.0004
 05  6 24 16 26 30.0000000  0  8G14G22G15G 3G18G 9G21G19
  22379933.5264  -10399999.38649  -8103891.61346                  22379936.6464
       387.0004         14.0004
  20764444.3554   -2551783.11849  -1988401.01247                  20764443.7444
       827.0004         58.0004
  20166142.7204   -3657010.47249  -2849617.76847                  20166145.3584
       873.0004         68.0004
  22263717.0184   -6542036.76349  -5097689.54446                  22263719.9044
       444.0004         17.0004
  21004311.6554    2481470.33249   1933613.75347                  21004312.4724
       763.0004         48.0004
  23696044.1164   -5605660.80448  -4368041.17845                  23696045.6144
       232.0004          4.0004
  21130523.7924    2729238.47349   2126677.88547                  21130524.2974
       742.0004         37.0004
  24252824.0594   -5835927.05548  -4547473.24345                  24252823.9544
       244.0004          6.0004
 05  6 24 16 27  0.0000000  0  8G14G22G15G 3G18G 9G21G19
  22361473.6114  -10497006.62849  -8179481.64046                  22361475.8094
       398.0004         14.0004
  20762511.3584   -2561939.71949  -1996315.23747                  20762510.9164
       805.0004         60.0004
  20161984.2634   -3678863.19849  -2866645.86047                  20161986.7474
       873.0004         68.0004
  22256138.2124   -6581865.95249  -5128725.27246                  22256140.4664
       456.0004         18.0004
  21011229.6094    2517823.96649   1961941.25447                  21011230.2924
       763.0004         48.0004
  23685992.9144   -5658480.72148  -4409199.51645                  23685997.9534
       225.0004          4.0004
  21138666.2374    2772027.33449   2160019.82947                  21138666.7134
       742.0004         36.0004
  24235586.7354   -5926505.54948  -4618053.83645                  24235587.7894
       238.0004          6.0004
 05  6 24 16 27 30.0000000  0  8G14G22G15G 3G18G 9G21G19
  22343066.3594  -10593739.18349  -8254857.62046                  22343069.4014
       409.0004         14.0004
  20760626.7204   -2571844.13249  -2004032.95247                  20760626.3154
       827.0004         60.0004
  20157883.2094   -3700414.47349  -2883439.05547                  20157885.5504
       873.0004         68.0004
  22248653.8774   -6621194.27749  -5159370.71646                  22248657.0174
       444.0004         17.0004
  21018181.4294    2554356.40749   1990408.09147                  21018182.1414
       763.0004         48.0004
  23676013.9894   -5710922.05948  -4450062.87345                  23676017.8364
       238.0004          4.0004
  21146869.7224    2815137.47149   2193612.11947                  21146870.2394
       722.0004         36.0004
  24218398.4304   -6016830.74648  -4688437.06645                  24218400.0954
       238.0004          6.0004
 05  6 24 16 28  0.0000000  0  8G14G22G15G 3G18G 9G21G19
  22324719.2234  -10690154.07549  -8329986.06646                  22324721.8284
       409.0004         15.0004
  20758797.6564   -2581456.16949  -2011522.84847                  20758797.1724
       827.0004         60.0004
  20153847.6274   -3721621.81249  -2899964.24947                  20153849.9004
       873.0004         67.0004
  22241273.6784   -6659979.59849  -5189593.03246                  22241276.3154
       456.0004         18.0004
  21025174.8834    2591107.57149   2019045.35947                  21025175.7464
       763.0004         48.0004
  23666115.3264   -5762941.16148  -4490597.21345                  23666117.3774
       258.0004          4.0004
  21155142.4754    2858609.93949   2227486.74747                  21155142.9324
       742.0004         37.0004
  24201266.5274   -6106859.17948  -4758589.04145                  24201268.4854
       244.0004          7.0004
 05  6 24 16 28 30.0000000  0  8G14G22G15G 3G18G 9G21G19
  22306436.9284  -10786230.25649  -8404850.57246                  22306438.6434
       420.0004         15.0004
  20757026.9604   -2590758.81649  -2018771.66047                  20757026.4404
       805.0004         58.0004
  20149881.0974   -3742466.07749  -2916206.53047                  20149883.3424
       873.0004         67.0004
  22234000.6824   -6698202.98049  -5219377.48246                  22234002.9404
       481.0004         19.0004
  21032213.2944    2628094.23049   2047866.13247                  21032214.0014
       763.0004         48.0004
  23656300.7594   -5814517.16448  -4530786.29245                  23656301.8144
       265.0004          5.0004
  21163487.3884    2902462.97449   2261657.91147                  21163487.8924
       742.0004         35.0004
  24184195.3384   -6196570.57048  -4828493.97845                  24184196.8684
       258.0004          7.0004
 05  6 24 16 29  0.0000000  0  8G14G22G15G 3G18G 9G21G19
  22288205.7344  -10882035.15849  -8479503.69346                  22288208.3204
       420.0004         15.0004
  20755302.4914   -2599822.66649  -2025834.38847                  20755302.0794
       827.0004         60.0004
  20145970.3924   -3763015.53149  -2932219.09147                  20145972.9584
       873.0004         67.0004
  22226820.1874   -6735932.73549  -5248777.28546                  22226822.9634
       456.0004         19.0004
  21039282.9524    2665245.85249   2076815.44647                  21039283.6754
       763.0004         47.0004
  23646557.6774   -5865716.71648  -4570682.02745                  23646560.4894
       258.0004          5.0004
  21171891.5044    2946626.99949   2296071.40847                  21171892.0024
       722.0004         35.0004
  24167171.2314   -6286031.88748  -4898204.05845                  24167173.3654
       244.0004          7.0004
 05  6 24 16 29 30.0000000  0  8G14G22G15G 3G18G 9G21G19
  22270032.3254  -10977533.85149  -8553918.21846                  22270034.0354
       398.0004         15.0004
  20753629.6154   -2608616.04749  -2032686.36247                  20753628.9364
       850.0004         60.0004
  20142122.6924   -3783236.05049  -2947975.33347                  20142125.0934
       873.0004         68.0004
  22219740.5484   -6773135.43849  -5277766.39146                  22219743.7154
       456.0004         18.0004
  21046389.9214    2702593.86749   2105917.79747                  21046390.7344
       742.0004         47.0004
  23636893.0574   -5916504.42048  -4610256.84645                  23636897.2374
       258.0004          5.0004
  21180361.1264    2991134.89449   2330752.85847                  21180361.7424
       722.0004         35.0004
  24150201.4974   -6375208.30148  -4967692.11745                  24150203.8774
       238.0004          7.0004
 05  6 24 16 30  0.0000000  0  8G14G22G15G 3G18G 9G21G19
  22251913.7514  -11072747.61449  -8628110.70046                  22251916.7944
       409.0004         15.0004
  20752002.5724   -2617163.60049  -2039346.77947                  20752002.0954
       805.0004         58.0004
  20138333.3234   -3803149.86349  -2963492.58347                  20138335.6984
       873.0004         68.0004
  22212757.4704   -6809833.39949  -5306362.20146                  22212760.1764
       468.0004         19.0004
  21053529.7564    2740113.28649   2135153.70347                  21053530.6784
       742.0004         47.0004
  23627302.9354   -5966901.26648  -4649527.10045                  23627305.2214
       258.0004          5.0004
  21188891.6714    3035963.09249   2365683.89547                  21188892.2634
       722.0004         35.0004
  24133282.1174   -6464120.65848  -5036974.41445                  24133284.1184
       238.0004          6.0004
 05  6 24 16 30 30.0000000  0  8G14G22G15G 3G18G 9G21G19
  22233858.9914  -11167627.11249  -8702042.72146                  22233861.2924
       420.0004         16.0004
  20750431.3284   -2625419.43749  -2045779.88947                  20750430.7324
       805.0004         58.0004
  20134611.4644   -3822708.33749  -2978732.94447                  20134613.9044
       873.0004         68.0004
  22205879.1004   -6845978.35249  -5334527.09046                  22205882.3004
       456.0004         19.0004
  21060710.9144    2777849.77149   2164558.75247                  21060711.9214
       763.0004         47.0004
  23617796.4784   -6016857.07148  -4688453.67045                  23617799.6914
       258.0004          6.0004
  21197492.2544    3081158.98949   2400901.44647                  21197492.8274
       722.0004         35.0004
  24116422.6414   -6552719.42148  -5106012.37645                  24116424.2024
       251.0004          7.0004
 05  6 24 16 31  0.0000000  0  8G14G22G15G 3G18G 9G21G19
  22215863.9224  -11262191.07549  -8775728.87746                  22215866.1994
       420.0004         16.0004
  20748912.1454   -2633405.29249  -2052002.62347                  20748911.5744
       827.0004         58.0004
  20130953.4704   -3841931.17249  -2993711.76747                  20130955.8544
       873.0004         68.0004
  22199102.1324   -6881590.34049  -5362276.68846                  22199105.2544
       444.0004         18.0004
  21067929.0424    2815781.09849   2194115.62447                  21067929.8024
       763.0004         47.0004
  23608370.3924   -6066389.82448  -4727050.57645                  23608372.7324
       251.0004          6.0004
  21206158.8664    3126702.18549   2436389.62947                  21206159.3924
       722.0004         34.0004
  24099619.8434   -6641022.95548  -5174820.30545                  24099621.6714
       258.0004          6.0004
 05  6 24 16 31 30.0000000  0  8G14G22G15G 3G18G 9G21G19
  22197926.6364  -11356450.56049  -8849177.77646                  22197928.8974
       420.0004         17.0004
  20747440.9414   -2641135.83349  -2058026.41047                  20747440.3694
       827.0004         60.0004
  20127356.9774   -3860830.62949  -3008438.61147                  20127359.4434
       873.0004         70.0004
  22192424.7284   -6916681.96749  -5389620.80146                  22192427.8514
       456.0004         20.0004
  21075181.3324    2853892.55849   2223812.86247                  21075182.1664
       763.0004         46.0004
  23599023.2404   -6115510.48748  -4765326.39245                  23599025.4564
       258.0004          5.0004
  21214888.9174    3172578.78749   2472137.59947                  21214889.4564
       703.0004         34.0004
  24082870.1564   -6729042.76948  -5243407.13845                  24082871.4924
       251.0004          6.0004
 05  6 24 16 32  0.0000000  0  8G14G22G15G 3G18G 9G21G19
  22180049.4314  -11450398.78849  -8922384.13346                  22180051.8114
       444.0004         18.0004
  20746018.6304   -2648607.63549  -2063848.57747                  20746018.1284
       805.0004         58.0004
  20123823.2774   -3879400.77949  -3022908.85247                  20123825.7334
       897.0004         70.0004
  22185846.6694   -6951247.79149  -5416555.20246                  22185849.8424
       444.0004         19.0004
  21082468.7074    2892187.64149   2253653.18447                  21082469.5244
       763.0004         47.0004
  23589755.5854   -6164211.83848  -4803275.48045                  23589759.3224
       251.0004          6.0004
  21223683.1914    3218793.52049   2508149.04447                  21223683.7754
       703.0004         33.0004
  24066176.0694   -6816771.67848  -5311767.30345                  24066176.2624
       238.0004          6.0004
 05  6 24 16 32 30.0000000  0  8G14G22G15G 3G18G 9G21G19
  22162232.5424  -11544027.59349  -8995341.59946                  22162234.9644
       456.0004         18.0004
  20744647.3484   -2655815.63249  -2069465.18147                  20744646.8864
       827.0004         60.0004
  20120353.5864   -3897634.26349  -3037116.75647                  20120355.9084
       897.0004         70.0004
  22179370.3324   -6985281.18149  -5443074.72046                  22179373.1794
       456.0004         18.0004
  21089791.8904    2930671.21549   2283640.37947                  21089792.6684
       763.0004         46.0004
  23580569.5054   -6212485.44448  -4840891.22245                  23580572.3284
       251.0004          6.0004
  21232543.1264    3265352.20749   2544428.50647                  21232543.6524
       703.0004         33.0004
  24049538.0774   -6904201.54948  -5379894.41945                  24049538.9284
       225.0004          5.0004
 05  6 24 16 33  0.0000000  0  8G14G22G15G 3G18G 9G21G19
  22144474.1144  -11637347.00349  -9068057.97546                  22144476.3804
       444.0004         18.0004
  20743323.5034   -2662773.16349  -2074886.62047                  20743322.8804
       827.0004         60.0004
  20116945.8074   -3915541.75649  -3051070.63847                  20116948.3244
       873.0004         70.0004
  22172993.6894   -7018793.31649  -5469188.06346                  22172996.7244
       468.0004         19.0004
  21097148.4594    2969329.26849   2313763.53347                  21097149.2864
       763.0004         47.0004
  23571463.5544   -6260340.69348  -4878180.98045                  23571466.1694
       265.0004          4.0004
  21241466.1404    3312243.26449   2580966.96247                  21241466.9604
       684.0004         33.0004
  24032955.6434   -6991342.01348  -5447796.04545                  24032955.9784
       208.0004          5.0004
 05  6 24 16 33 30.0000000  0  8G14G22G15G 3G18G 9G21G19
  22126779.2624  -11730334.32049  -9140515.57846                  22126781.4194
       456.0004         18.0004
  20742050.5534   -2669460.70849  -2080097.68447                  20742050.3234
       805.0004         60.0004
  20113604.2274   -3933101.53449  -3064753.57547                  20113606.7184
       873.0004         70.0004
  22166719.4384   -7051762.79649  -5494878.56546                  22166722.4434
       456.0004         18.0004
  21104541.7434    3008181.16449   2344037.73547                  21104542.3504
       763.0004         46.0004
  23562440.7184   -6307754.52948  -4915126.77945                  23562443.1184
       258.0004          5.0004
  21250456.3154    3359486.95749   2617780.20447                  21250457.0594
       684.0004         33.0004
  24016432.7084   -7078170.22748  -5515454.35345                  24016434.5254
       202.0004          5.0004
 05  6 24 16 34  0.0000000  0  8G14G22G15G 3G18G 9G21G19
  22109146.5314  -11822994.38249  -9212718.17946                  22109148.7384
       456.0004         18.0004
  20740827.7314   -2675886.38849  -2085104.69147                  20740827.2654
       805.0004         60.0004
  20110327.8424   -3950319.22149  -3078169.94747                  20110330.3984
       873.0004         70.0004
  22160547.8284   -7084195.56149  -5520150.84546                  22160550.6624
       468.0004         18.0004
  21111970.3374    3047219.05349   2374456.86647                  21111971.0024
       763.0004         44.0004
  23553500.6364   -6354731.13848  -4951731.88845                  23553503.9754
       244.0004          5.0004
  21259512.3674    3407076.44349   2654862.88447                  21259513.0484
       684.0004         33.0004
  23999968.2904   -7164690.54448  -5582872.73745                  23999969.0714
       202.0004          4.0004
 05  6 24 16 34 30.0000000  0  7G14G 3G22G15G18G 9G19
  22091573.1604  -11915342.16449  -9284677.44346                  22091575.1974
       456.0004         18.0004
  22154475.2464   -7116108.52549  -5545018.08346                  22154478.3634
       481.0004         20.0004
  20739651.5644   -2682068.84149  -2089922.16847                  20739650.9854
       827.0004         60.0004
  20107113.4874   -3967211.09549  -3091332.43947                  20107116.0094
       873.0004         70.0004
  21119430.7514    3086423.87249   2405006.06547                  21119431.3564
       742.0004         43.0004
  23544641.4144   -6401285.45848  -4988007.95145                  23544645.4994
       238.0004          5.0004
  23983559.7464   -7250918.28648  -5650063.14645                  23983559.1834
       214.0004          4.0004
 05  6 24 16 35  0.0000000  0  7G14G22G15G 3G18G 9G19
  22074064.3234  -12007351.55649  -9356373.02946                  22074066.1194
       468.0004         19.0004
  20738525.8194   -2687984.85949  -2094532.03547                  20738525.2284
       827.0004         61.0004
  20103965.9044   -3983751.77249  -3104221.27147                  20103968.3834
       873.0004         70.0004
  22148505.7964   -7147476.73049  -5569460.83746                  22148508.9764
       468.0004         20.0004
  21126927.2834    3125818.77349   2435703.38247                  21126927.8134
       742.0004         43.0004
  23535868.8004   -6447390.43148  -5023933.83345                  23535871.8404
       251.0004          5.0004
  23967212.0264   -7336826.98948  -5717004.97245                  23967211.2184
       225.0004          5.0004
 05  6 24 16 35 30.0000000  0  7G14G 3G22G15G18G 9G19
  22056617.4064  -12099037.41149  -9427816.51746                  22056619.5744
       481.0004         19.0004
  22142636.9644   -7178316.71949  -5593491.98746                  22142640.2444
       468.0004         20.0004
  20737447.0024   -2693652.83649  -2098948.62447                  20737446.4364
       827.0004         61.0004
  20100882.1674   -3999957.12349  -3116848.81247                  20100884.6244
       873.0004         70.0004
  21134456.4534    3165384.95749   2466534.17347                  21134456.9584
       742.0004         43.0004
  23527177.6504   -6493060.99848  -5059521.25345                  23527179.4894
       258.0004          6.0004
  23950921.9244   -7422431.40848  -5783709.66945                  23950920.9664
       232.0004          5.0004
 05  6 24 16 36  0.0000000  0  5G14G 3G18G22G15
  22039229.4604  -12190191.15348  -9498845.41944                  22039232.2614
       288.0004          2.0004
  22136867.0344   -7208640.11149  -5617120.60146                  22136870.0704
       398.0004         16.0004
  21142015.8884    3205109.17349   2497488.10247                  21142016.4364
       598.0004         35.0004
  20736413.3294   -2699085.89049  -2103182.15347                  20736412.6844
       666.0004         49.0004
  20097860.1384   -4015837.99149  -3129223.50947                  20097862.4694
       722.0004         57.0004
 05  6 24 16 36 30.0000000  0  6G14G22G15G 3G18G 1
  22021907.6904  -12280480.33649
       329.0004          1.0004
  20735427.3114   -2704267.37149  -2107219.65547                  20735426.7144
       827.0004         60.0004
  20094903.4954   -4031375.23249  -3141330.44347                  20094905.8744
       873.0004         70.0004
  22131198.5074   -7238428.03349  -5640331.97146                  22131201.6664
       481.0004         20.0004
  21149608.2834    3245008.02349   2528578.10347                  21149608.9894
       742.0004         43.0004
  25031831.7164          0.22457
        97.0004          1.0004
 05  6 24 16 37  0.0000000  0  7G22G15G 3G18G 9G 1G19
  20734484.3594   -2709221.15349  -2111079.73047                  20734483.8414
       827.0004         60.0004
  20092008.0224   -4046590.47649  -3153186.47047                  20092010.4514
       873.0004         70.0004
  22125627.6534   -7267702.59149  -5663143.31246                  22125630.8184
       481.0004         20.0004
  21157229.3504    3285057.73349   2559785.66047                  21157230.1954
       742.0004         44.0004
  23501597.8704         -0.32358         0.00955                  23501601.3564
       251.0004          5.0004
  25010514.7084    -112014.98948
       100.0004          1.0004
  23902395.3604         -0.58858         0.28555                  23902396.3174
       244.0004          6.0004
 05  6 24 16 37 30.0000000  0  8G14G22G15G 3G18G 9G 1G19
  21987447.9834         -0.05159         0.06356                  21987450.1384
       481.0004         20.0004
  20733597.2894   -2713883.57749  -2114712.77247                  20733596.7124
       827.0004         61.0004
  20089186.5644   -4061417.46749  -3164739.96547                  20089189.0494
       873.0004         70.0004
  22120167.1114   -7296398.44449  -5685503.71146                  22120170.1504
       481.0004         20.0004
  21164891.4244    3325321.37649   2591159.92247                  21164892.0614
       742.0004         43.0004
  23493247.1444     -43883.13048    -34194.36045                  23493250.2864
       258.0004          5.0004
  24989213.2824    -223955.14848
       103.0004          1.0004
  23886345.8684     -84340.32148    -65718.95445                  23886346.9254
       244.0004          6.0004
 05  6 24 16 38  0.0000000  0  8G14G22G15G 3G18G 9G 1G19
  21970320.6064     -90003.73849    -70132.64046                  21970322.9074
       481.0004         19.0004
  20732758.0744   -2718294.04549  -2118149.49147                  20732757.5444
       827.0004         60.0004
  20086431.8754   -4075893.42649  -3176019.92747                  20086434.3174
       873.0004         70.0004
  22114809.2724   -7324553.17049  -5707442.45546                  22114811.8554
       481.0004         21.0004
  21172586.5524    3365759.56049   2622670.19047                  21172587.1444
       742.0004         43.0004
  23484983.4524     -87309.42248    -68032.97145                  23484986.6384
       258.0004          6.0004
  24967919.1754    -335856.45348
       100.0004          1.0004
  23870358.6684    -168354.72048   -131184.69245                  23870359.5134
       258.0004          7.0004
 05  6 24 16 38 30.0000000  0  8G14G22G15G 3G18G 9G 1G19
  21953264.8124    -179632.76049   -139973.40346                  21953267.1974
       481.0004         20.0004
  20731971.8494   -2722424.68749  -2121368.16247                  20731971.3794
       827.0004         60.0004
  20083749.7834   -4089988.00749  -3187002.70647                  20083752.1394
       873.0004         70.0004
  22109560.2244   -7352137.05049  -5728936.38546                  22109562.6634
       481.0004         19.0004
  21180320.1284    3406399.85349   2654337.94947                  21180320.7574
       742.0004         43.0004
  23476812.3814    -130247.96048   -101491.52245                  23476815.5524
       265.0004          6.0004
  24946638.4944    -447688.19747
        97.0004          1.0004
  23854439.0314    -252012.49648   -196372.54345                  23854440.0824
       265.0004          8.0004
 05  6 24 16 39  0.0000000  0  8G14G22G15G 3G18G 9G 1G19
  21936279.2404    -268892.03749   -209526.04446                  21936281.4934
       468.0004         20.0004
  20731237.4554   -2726283.43149  -2124374.96647                  20731237.0064
       805.0004         60.0004
  20081139.1954   -4103706.61949  -3197692.52447                  20081141.5974
       873.0004         70.0004
  22104418.9264   -7379156.36649  -5749990.39146                  22104421.4594
       494.0004         20.0004
  21188090.8134    3447234.90749   2686157.46647                  21188091.3134
       742.0004         42.0004
  23468733.9344    -172702.88148   -134573.25245                  23468738.2404
       272.0004          6.0004
  24925370.1744    -559454.75748
       100.0004          1.0004
  23838587.0814    -335317.99348   -261285.90045                  23838589.4764
       272.0004          8.0004
 05  6 24 16 39 30.0000000  0  8G14G22G15G 3G18G 9G 1G19
  21919355.0174    -357829.91349   -278828.24546                  21919356.9334
       481.0004         20.0004
  20730545.2534   -2729921.51049  -2127209.82647                  20730544.7374
       827.0004         60.0004
  20078590.7664   -4117098.40749  -3208127.67547                  20078593.3244
       873.0004         70.0004
  22099375.0534   -7405661.12049  -5770643.44746                  22099378.0874
       481.0004         20.0004
  21195888.5464    3488212.93849   2718088.39547                  21195889.1714
       742.0004         41.0004
  23460738.1254    -214722.05748   -167315.42445                  23460740.9994
       280.0004          6.0004
  24904103.7614    -671204.55647
        95.0004          1.0004
  23822792.1974    -418319.37848   -325962.26845                  23822793.0624
       272.0004          9.0004
 05  6 24 16 40  0.0000000  0  8G14G22G15G 3G18G 9G 1G19
  21902496.9464    -446421.71249   -347860.77846                  21902498.8004
       494.0004         20.0004
  20729899.0634   -2733317.64649  -2129856.15847                  20729898.3624
       827.0004         60.0004
  20076109.1114   -4130139.73549  -3218289.74147                  20076111.6744
       873.0004         70.0004
  22094433.7654   -7431628.16049  -5790877.50146                  22094436.9444
       481.0004         20.0004
  21203717.7154    3529354.98949   2750147.13147                  21203718.2144
       742.0004         41.0004
  23452829.8594    -256280.62248   -199698.69045                  23452832.8994
       280.0004          6.0004
  24882847.8824    -782912.85748
       108.0004          1.0004
  23807060.2484    -500991.76048   -390382.26245                  23807062.0464
       280.0004          9.0004
 05  6 24 16 40 30.0000000  0  8G14G22G15G 3G18G 9G 1G19
  21885704.1434    -534668.30049   -416624.30146                  21885706.2094
       508.0004         21.0004
  20729298.1464   -2736475.64849  -2132316.93047                  20729297.6004
       827.0004         60.0004
  20073693.8734   -4142832.17049  -3228179.94047                  20073696.2834
       873.0004         70.0004
  22089593.8784   -7457059.77949  -5810694.34046                  22089597.6314
       468.0004         20.0004
  21211577.3484    3570656.81549   2782330.37347                  21211577.9004
       742.0004         41.0004
  23445008.5314    -297378.93948   -231723.31745                  23445011.3004
       265.0004          6.0004
  24861597.3604    -894580.44748
       106.0004          1.0004
  23791390.5334    -583335.58348   -454546.25246                  23791392.4294
       280.0004         10.0004
 05  6 24 16 41  0.0000000  0  8G14G22G15G 3G18G 9G 1G19
  21868980.5224    -622549.68349   -485103.25446                  21868982.8254
       494.0004         22.0004
  20728745.3594   -2739379.03849  -2134579.30247                  20728744.8444
       805.0004         60.0004
  20071348.5844   -4155156.89949  -3237783.61347                  20071350.9994
       873.0004         70.0004
  22084859.4624   -7481937.80249  -5830079.80646                  22084862.6344
       468.0004         19.0004
  21219470.3164    3612135.09049   2814651.10947                  21219470.9584
       742.0004         41.0004
  23437279.0404    -337996.84348   -263373.58245                  23437282.5424
       258.0004          6.0004
  24840358.5904   -1006187.45448
       103.0004          1.0004
  23775787.1584    -665331.12148   -518438.84246                  23775789.0844
       272.0004         10.0004
 05  6 24 16 41 30.0000000  0  8G14G22G15G 3G18G 9G 1G19
  21852326.5604    -710068.32349   -553299.55246                  21852328.2144
       508.0004         22.0004
  20728240.3354   -2742033.29249  -2136647.54147                  20728239.9234
       805.0004         60.0004
  20069072.5694   -4167116.75249  -3247102.97847                  20069075.0644
       873.0004         70.0004
  22080230.3184   -7506265.94649  -5849036.79946                  22080233.1344
       481.0004         19.0004
  21227395.9264    3653784.73449   2847105.37647                  21227396.5904
       742.0004         41.0004
  23429641.1314    -378136.21748   -294650.99245                  23429645.6334
       272.0004          6.0004
  24819132.6444   -1117736.06148
       118.0004          1.0004
  23760249.9384    -746980.14848   -582061.42346                  23760251.4824
       272.0004         10.0004
 05  6 24 16 42  0.0000000  0  8G14G22G15G 3G18G 9G 1G19
  21835744.4194    -797208.24249   -621200.74346                  21835746.1334
       522.0004         23.0004
  20727785.1494   -2744425.32349  -2138511.45147                  20727784.6394
       805.0004         60.0004
  20066868.9814   -4178696.41649  -3256126.09147                  20066871.4164
       873.0004         70.0004
  22075708.4794   -7530029.73349  -5867554.03546                  22075710.6234
       494.0004         20.0004
  21235356.4594    3695618.23549   2879702.90847                  21235357.3694
       722.0004         40.0004
  23422097.1364    -417780.79648   -325542.85745                  23422099.4374
       280.0004          6.0004
  24797919.7074   -1229210.15648   -957825.05144
       128.0004          1.0004
  23744781.6404    -828266.36248   -645401.30245                  23744782.7434
       272.0004          9.0004
 05  6 24 16 42 30.0000000  0  8G14G22G15G 3G18G 9G 1G19
  21819227.9274    -884001.47149   -688831.78346                  21819230.1554
       508.0004         23.0004
  20727373.1864   -2746590.49749  -2140198.58847                  20727372.6304
       827.0004         61.0004
  20064731.6744   -4189928.80749  -3264878.59347                  20064733.9064
       873.0004         70.0004
  22071287.2124   -7553262.96849  -5885657.85146                  22071289.9844
       494.0004         20.0004
  21243345.2444    3737600.16949   2912416.10147                  21243346.0494
       722.0004         40.0004
  23414640.5514    -456962.33748   -356073.90045                  23414643.6184
       265.0004          5.0004
  24776715.4034   -1340641.72948
       138.0004          1.0004
  23729376.3134    -909221.77748   -708483.40545                  23729377.5334
       258.0004          9.0004
 05  6 24 16 43  0.0000000  0  8G14G22G15G 3G18G 9G 1G19
  21802780.6054    -970432.41949   -756180.52046                  21802782.8014
       522.0004         24.0004
  20727006.8524   -2748516.47949  -2141699.34347                  20727006.2354
       827.0004         61.0004
  20062662.9934   -4200799.35149  -3273349.13347                  20062665.3924
       873.0004         70.0004
  22066969.8504   -7575951.64849  -5903337.34046                  22066972.2484
       494.0004         20.0004
  21251365.0114    3779743.25549   2945254.86247                  21251365.7574
       722.0004         40.0004
  23407275.7614    -495665.11748   -386231.85145                  23407279.0544
       258.0004          5.0004
  24755521.0574   -1452015.15148  -1131439.23044                  24755525.5324
       142.0004          2.0004
  23714037.0964    -989830.50348   -771295.36945                  23714037.6474
       258.0004          8.0004
 05  6 24 16 43 30.0000000  0  8G14G22G15G 3G18G 9G 1G19
  21786404.8834   -1056488.41249   -823237.09646                  21786406.9084
       536.0004         25.0004
  20726687.7674   -2750193.46949  -2143006.08047                  20726687.1854
       850.0004         61.0004
  20060665.3484   -4211296.10449  -3281528.41547                  20060667.8644
       850.0004         70.0004
  22062758.0914   -7598084.64949  -5920583.83646                  22062760.5994
       494.0004         21.0004
  21259416.8944    3822056.81649   2978226.46047                  21259417.7754
       722.0004         39.0004
  23400004.7574    -533875.94848   -416006.49745                  23400008.8634
       265.0004          6.0004
  24734340.8694   -1563317.66048
       142.0004          1.0004
  23698765.5004   -1070079.50148   -833827.02545                  23698766.5034
       251.0004          9.0004
 05  6 24 16 44  0.0000000  0  8G14G22G15G 3G18G 9G 1G19
  21770098.9524   -1142176.96149   -890007.35146                  21770101.1254
       536.0004         25.0004
  20726413.9254   -2751632.25649  -2144127.20347                  20726413.2004
       827.0004         61.0004
  20058737.4904   -4221427.50649  -3289423.00947                  20058739.9274
       873.0004         70.0004
  22058650.2274   -7619671.33349  -5937404.61846                  22058652.4614
       494.0004         20.0004
  21267499.2744    3864529.80649   3011322.29347                  21267500.1584
       722.0004         39.0004
  23392825.1584    -571602.42348   -445403.70845                  23392827.8564
       258.0004          6.0004
  24713173.0674   -1674556.84148  -1304848.23044                  24713176.2534
       158.0004          2.0004
  23683561.0684   -1149976.23948   -896084.18745                  23683563.7134
       232.0004          8.0004
 05  6 24 16 44 30.0000000  0  8G14G22G15G 3G18G 9G 1G19
  21753864.5414   -1227488.82949   -956484.08746                  21753866.5694
       551.0004         26.0004
  20726186.5264   -2752826.48449  -2145057.76147                  20726185.8894
       827.0004         61.0004
  20056880.9404   -4231184.63049  -3297025.95447                  20056883.2784
       873.0004         70.0004
  22054647.9984   -7640703.86149  -5953793.59646                  22054650.3944
       508.0004         21.0004
  21275613.2654    3907169.05549   3044547.67747                  21275613.9244
       722.0004         39.0004
  23385740.3484    -608834.58748   -474415.75645                  23385743.3184
       265.0004          6.0004
  24692018.7314   -1785722.93948  -1391471.11344                  24692027.6674
       158.0004          2.0004
  23668425.7564   -1229511.13148   -958059.40445                  23668427.8874
       219.0004          7.0004
 05  6 24 16 45  0.0000000  0  8G14G22G15G 3G18G 9G 1G19
  21737701.0514   -1312427.26649  -1022669.83746                  21737703.2894
       551.0004         26.0004
  20726004.6974   -2753782.00049  -2145802.31047                  20726004.1754
       827.0004         61.0004
  20055094.6314   -4240571.25749  -3304340.20047                  20055096.9414
       873.0004         70.0004
  22050750.5204   -7661186.88849  -5969754.39346                  22050753.2274
       508.0004         21.0004
  21283757.8074    3949968.04449   3077897.54047                  21283758.3724
       742.0004         39.0004
  23378748.6314    -645575.41748   -503044.92745                  23378753.4664
       251.0004          5.0004
  24670876.0544   -1896818.99948  -1478039.46144                  24670881.1314
       146.0004          2.0004
  23653359.4164   -1308686.58448  -1019754.52945                  23653361.0634
       232.0004          7.0004
 05  6 24 16 45 30.0000000  0  8G14G22G15G 3G18G 9G 1G19
  21721605.3934   -1397008.19349  -1088577.01146                  21721607.4734
       522.0004         26.0004
  20725864.5764   -2754518.37049  -2146376.09547                  20725864.0764
       827.0004         61.0004
  20053375.7354   -4249604.55949  -3311379.12647                  20053378.0254
       873.0004         70.0004
  22046953.7654   -7681138.32649  -5985300.96546                  22046956.2264
       508.0004         22.0004
  21291928.9944    3992907.56749   3111356.90547                  21291929.6034
       742.0004         39.0004
  23371847.1794    -681840.70548   -531303.54945                  23371850.7354
       251.0004          5.0004
  24649745.4374   -2007860.99648  -1564565.63444                  24649751.7754
       142.0004          2.0004
  23638358.4464   -1387518.71848  -1081182.15245                  23638359.9874
       238.0004          7.0004
 05  6 24 16 46  0.0000000  0  8G14G22G15G 3G18G 9G 1G19
  21705592.8034   -1481155.26649  -1154146.11646                  21705594.9414
       536.0004         26.0004
  20725780.1254   -2754962.14349  -2146721.88547                  20725779.6504
       827.0004         61.0004
  20051738.3264   -4258208.88249  -3318083.77847                  20051740.6484
       873.0004         70.0004
  22043272.4294   -7700483.42049  -6000375.05946                  22043274.8424
       508.0004         21.0004
  21300140.8354    4036061.20849   3144983.11847                  21300141.5004
       722.0004         38.0004
  23365051.6774    -717553.55148   -559131.73245                  23365054.3904
       251.0004          5.0004
  24628639.0444   -2118772.41848  -1650990.09244                  24628649.4694
       138.0004          2.0004
  23623437.6084   -1465930.61648  -1142282.29145                  23623439.9554
       238.0004          7.0004
 05  6 24 16 46 30.0000000  0  8G14G22G15G 3G18G 9G 1G19
  21689658.2594   -1564893.60449  -1219396.72446                  21689660.1644
       551.0004         27.0004
  20725745.9024   -2755141.57749  -2146861.69747                  20725745.3764
       827.0004         61.0004
  20050177.6644   -4266410.03449  -3324474.27047                  20050179.9734
       873.0004         70.0004
  22039701.2754   -7719249.10349  -6014997.66846                  22039704.3274
       508.0004         22.0004
  21308387.7604    4079400.10949   3178753.68947                  21308388.7224
       722.0004         38.0004
  23358355.6924    -752739.27148   -586549.16945                  23358359.1664
       251.0004          6.0004
  24607553.2634   -2229578.39348  -1737332.34244
       138.0004          1.0004
  23608591.2584   -1543947.51748  -1203074.65345                  23608592.4764
       251.0004          7.0004
 05  6 24 16 47  0.0000000  0  8G14G22G15G 3G18G 9G 1G19
  21673782.3394   -1648321.68949  -1284405.57746                  21673784.7584
       551.0004         27.0004
  20725742.9504   -2755158.20449  -2146874.64447                  20725742.3384
       827.0004         61.0004
  20048674.8884   -4274307.32649  -3330627.99447                  20048677.1684
       873.0004         70.0004
  22036221.2444   -7737535.49249  -6029246.79046                  22036224.4074
       494.0004         22.0004
  21316650.9064    4122822.91549   3212589.63347                  21316651.6294
       703.0004         37.0004
  23351741.5264    -787496.09348   -613632.37945                  23351744.6574
       265.0004          5.0004
  24586469.6174   -2340377.09848  -1823668.91944                  24586478.0564
       138.0004          2.0004
  23593801.8694   -1621667.42848  -1263635.61345                  23593803.7204
       251.0004          7.0004
 05  6 24 16 47 30.0000000  0  8G14G22G15G 3G18G 9G 1G19
  21657978.3964   -1731370.74849  -1349119.08246                  21657980.1014
       536.0004         27.0004
  20725783.4964   -2754945.83149  -2146709.14847                  20725782.6534
       850.0004         63.0004
  20047242.9244   -4281832.69649  -3336491.90647                  20047245.0694
       897.0004         70.0004
  22032845.6624   -7755275.23349  -6043069.95546                  22032848.7614
       508.0004         22.0004
  21324942.5364    4166395.79449   3246542.52047                  21324943.2004
       703.0004         37.0004
  23345223.3264    -821754.57148   -640327.28745                  23345224.8484
       296.0004          6.0004
  24565400.2384   -2451099.35948  -1909946.04344                  24565405.6974
       146.0004          2.0004
  23579081.9894   -1699020.99448  -1323911.07545                  23579083.2944
       251.0004          7.0004
 05  6 24 16 48  0.0000000  0  8G14G22G15G 3G18G 9G 1G19
  21642245.9674   -1814044.68049  -1413540.28346                  21642247.9394
       536.0004         27.0004
  20725865.9164   -2754511.43149  -2146370.63947                  20725865.1574
       827.0004         61.0004
  20045880.7884   -4288990.65049  -3342069.52347                  20045883.1654
       897.0004         72.0004
  22029572.9554   -7772474.19949  -6056471.74046                  22029575.5894
       508.0004         22.0004
  21333261.3674    4210111.70149   3280606.85547                  21333262.1674
       703.0004         37.0004
  23338797.8584    -855518.48348   -666636.82045                  23338800.3984
       280.0004          7.0004
  24544344.7724   -2561748.93748  -1996166.48044                  24544351.7204
       163.0004          2.0004
  23564430.4884   -1776012.02548  -1383904.06745                  23564432.1794
       244.0004          7.0004
 05  6 24 16 48 30.0000000  0  8G14G22G15G 3G18G 9G 1G19
  21626586.4254   -1896336.97249  -1477664.10046                  21626588.3154
       551.0004         27.0004
  20725991.4654   -2753851.28949  -2145856.23047                  20725990.8404
       805.0004         60.0004
  20044589.6874   -4295775.15549  -3347356.13947                  20044591.9564
       873.0004         72.0004
  22026403.8124   -7789127.15749  -6069448.06246                  22026406.6904
       508.0004         22.0004
  21341608.1574    4253974.27549   3314785.48447                  21341608.7824
       703.0004         36.0004
  23332468.0284    -888780.90748   -692555.57245                  23332471.2054
       272.0004          6.0004
  24523304.5834   -2672318.88648  -2082324.88844                  24523315.0084
       172.0004          3.0004
  23549849.7744   -1852633.40548  -1443609.00445                  23549850.5344
       251.0004          7.0004
 05  6 24 16 49  0.0000000  0  8G14G22G15G 3G18G 9G 1G19
  21611003.8964   -1978223.55649  -1541471.77946                  21611006.0944
       551.0004         27.0004
  20726164.0104   -2752944.92349  -2145149.95647                  20726163.4304
       827.0004         60.0004
  20043374.1124   -4302163.35349  -3352333.94547                  20043376.3704
       897.0004         72.0004
  22023342.4884   -7805212.37949  -6081981.99246                  22023345.5934
       494.0004         21.0004
  21349986.8134    4298004.30949   3349094.60147                  21349987.5094
       703.0004         36.0004
  23326238.5204    -921517.78848   -718064.83045                  23326241.8484
       288.0004          6.0004
  24502284.0554   -2782785.29848  -2168402.65044                  24502288.6844
       181.0004          2.0004
  23535344.4434   -1928861.00348  -1503007.11245                  23535345.3204
       258.0004          8.0004
 05  6 24 16 49 30.0000000  0  8G14G22G15G 3G18G 9G 1G19
  21595497.5684   -2059709.65749  -1604967.40346                  21595499.3414
       551.0004         27.0004
  20726381.9984   -2751800.03549  -2144257.82347                  20726381.3924
       827.0004         61.0004
  20042232.7224   -4308160.81349  -3357007.28447                  20042235.0734
       873.0004         70.0004
  22020388.2754   -7820736.58649  -6094078.76946                  22020391.3354
       481.0004         21.0004
  21358395.8334    4342194.27949   3383528.34147                  21358396.4284
       703.0004         36.0004
  23320107.6424    -953733.96548   -743168.32345                  23320110.8494
       288.0004          7.0004
  24481281.4214   -2893152.85648  -2254403.33344                  24481287.9604
       177.0004          3.0004
  23520912.8014   -2004699.78248  -1562102.22545                  23520914.3394
       272.0004          7.0004
 05  6 24 16 50  0.0000000  0  8G14G22G15G 3G18G 9G 1G19
  21580065.9204   -2140803.78649  -1668157.59046                  21580067.6954
       551.0004         27.0004
  20726642.9854   -2750428.08849  -2143188.76447                  20726642.3664
       827.0004         60.0004
  20041164.0494   -4313776.79849  -3361383.37447                  20041166.3654
       873.0004         70.0004
  22017539.2014   -7835709.86649  -6105746.25646                  22017542.3734
       494.0004         22.0004
  21366833.3474    4386532.29749   3418077.44547                  21366833.9514
       722.0004         36.0004
  23314074.7194    -985437.67148   -767872.49145                  23314077.9924
       280.0004          7.0004
  24460295.6024   -3003429.71748
       167.0004          1.0004
  23506554.1884   -2080157.68348  -1620900.58145                  23506554.7444
       288.0004          7.0004
 05  6 24 16 50 30.0000000  0  8G14G22G15G 3G18G 9G 1G19
  21564710.3434   -2221497.46749  -1731035.74046                  21564711.9914
       566.0004         28.0004
  20726948.2484   -2748823.44849  -2141938.38247                  20726947.7224
       827.0004         60.0004
  20040169.5704   -4319003.62849  -3365456.22447                  20040171.7354
       897.0004         70.0004
  22014796.0274   -7850125.54049  -6116979.24646                  22014798.9684
       494.0004         22.0004
  21375299.7874    4431023.87349   3452746.20447                  21375300.1854
       722.0004         35.0004
  23308141.5934   -1016620.29448   -792170.61445                  23308146.0264
       296.0004          7.0004
  24439329.3374   -3113607.28748  -2426186.03944                  24439337.7764
       163.0004          3.0004
  23492269.1594   -2155225.76248  -1679395.15645                  23492268.5734
       288.0004          8.0004
 05  6 24 16 51  0.0000000  0  8G14G22G15G 3G18G 9G 1G19
  21549431.0034   -2301790.84249  -1793601.96346                  21549432.9854
       566.0004         28.0004
  20727297.3014   -2746989.23349  -2140509.11747                  20727296.7404
       827.0004         61.0004
  20039248.8084   -4323841.83649  -3369226.24747                  20039251.0084
       897.0004         70.0004
  22012158.6284   -7863985.67049  -6127779.34446                  22012161.2054
       508.0004         22.0004
  21383794.9724    4475666.07049   3487532.33447                  21383795.4144
       722.0004         35.0004
  23302306.4214   -1047281.80248   -816062.66345                  23302309.6884
       288.0004          7.0004
  24418383.1044   -3223685.26048  -2511961.09144                  24418388.9474
       172.0004          3.0004
  23478058.7454   -2229903.85448  -1737585.84245                  23478059.1604
       304.0004          8.0004
 05  6 24 16 51 30.0000000  0  8G14G22G15G 3G18G 9G 1G19
  21534223.2114   -2381708.78749  -1855875.64846                  21534224.7464
       582.0004         29.0004
  20727684.7494   -2744953.14249  -2138922.54147                  20727684.1164
       827.0004         61.0004
  20038397.1714   -4328317.14049  -3372713.48947                  20038399.3594
       897.0004         72.0004
  22009622.1744   -7877316.76649  -6138167.21446                  22009624.7444
       522.0004         23.0004
  21392313.5744    4520431.18949   3522414.24747                  21392314.0324
       722.0004         35.0004
  23296566.4364   -1077447.08648   -839568.09145                  23296568.5774
       288.0004          7.0004
  24397452.0074   -3333688.43048  -2597677.84644                  24397459.8194
       197.0004          3.0004
  23463917.3614   -2304216.96548  -1795492.14745                  23463917.9714
       312.0004          9.0004
 05  6 24 16 52  0.0000000  0  8G14G22G15G 3G18G 9G 1G19
  21519098.4664   -2461190.01849  -1917809.03446                  21519100.1404
       582.0004         30.0004
  20728121.7214   -2742657.11049  -2137133.41347                  20728121.0704
       827.0004         61.0004
  20037626.1264   -4332369.20649  -3375870.93047                  20037628.2224
       897.0004         72.0004
  22007197.0774   -7890059.79349  -6148096.84646                  22007199.6244
       522.0004         22.0004
  21400866.4154    4565377.25849   3557437.15647                  21400866.9984
       703.0004         34.0004
  23290932.1814   -1107054.72748   -862638.96345                  23290935.7474
       280.0004          6.0004
  24376545.8994   -3443555.28848  -2683288.39645                  24376552.3364
       214.0004          4.0004
  23449857.1174   -2378103.26448  -1853065.85245                  23449857.3554
       312.0004          9.0004
 05  6 24 16 52 30.0000000  0  8G14G22G15G 3G18G 9G 1G19
  21504052.3994   -2540258.04949  -1979420.44446                  21504054.1214
       598.0004         30.0004
  20728603.2104   -2740127.11549  -2135161.97947                  20728602.4594
       827.0004         61.0004
  20036930.9084   -4336022.04549  -3378717.28647                  20036933.1584
       873.0004         72.0004
  22004879.1704   -7902239.66749  -6157587.65746                  22004882.0484
       508.0004         22.0004
  21409448.7804    4610478.77149   3592581.19247                  21409449.4874
       703.0004         34.0004
  23285399.3154   -1136127.98848   -885293.41145                  23285403.1154
       272.0004          7.0004
  24355660.5614   -3553308.88048  -2768810.67945                  24355665.8264
       219.0004          4.0004
  23435874.2524   -2451585.62349  -1910324.80945                  23435874.4634
       321.0004          9.0004
 05  6 24 16 53  0.0000000  0  8G14G22G15G 3G18G 9G 1G19
  21489079.8944   -2618938.20949  -2040729.62146                  21489081.7234
       598.0004         31.0004
  20729123.9254   -2737391.18049  -2133030.06647                  20729123.1884
       827.0004         61.0004
  20036306.8054   -4339301.48449  -3381272.68547                  20036309.1584
       873.0004         70.0004
  22002663.7624   -7913883.25249  -6166660.57946                  22002666.8664
       522.0004         23.0004
  21418055.5854    4655707.26449   3627824.17347                  21418056.5164
       703.0004         34.0004
  23279963.9944   -1164691.72748   -907550.85445                  23279967.4294
       272.0004          6.0004
  24334790.6814   -3662973.95148  -2854263.98344                  24334797.2394
       202.0004          3.0004
  23421963.4714   -2524688.91949  -1967288.39246                  23421963.8134
       329.0004         10.0004
 05  6 24 16 53 30.0000000  0  8G14G22G15G 3G18G 9G 1G19
  21474183.4734   -2697219.15749  -2101727.72147                  21474185.3724
       598.0004         32.0004
  20729685.2724   -2734440.96649  -2130731.18447                  20729684.5614
       827.0004         61.0004
  20035755.8484   -4342196.95949  -3383528.89447                  20035758.0754
       873.0004         72.0004
  22000551.8204   -7924981.40649  -6175308.49046                  22000554.6264
       522.0004         23.0004
  21426688.1344    4701071.35449   3663172.81347                  21426688.6614
       703.0004         34.0004
  23274627.5934   -1192734.87548   -929402.64445                  23274630.5814
       272.0004          6.0004
  24313939.9264   -3772539.04948  -2939639.37344                  24313944.8534
       186.0004          3.0004
  23408126.5204   -2597401.69448  -2023947.66245                  23408126.6394
       312.0004          9.0004
 05  6 24 16 54  0.0000000  0  8G14G22G15G 3G18G 9G 1G19
  21459368.2224   -2775073.96749  -2162393.76847                  21459369.9864
       614.0004         32.0004
  20730291.9144   -2731252.46749  -2128246.62647                  20730291.2594
       827.0004         61.0004
  20035283.0084   -4344681.92549  -3385465.22647                  20035285.2104
       873.0004         72.0004
  21998548.4564   -7935508.86949  -6183511.70746                  21998550.8084
       522.0004         21.0004
  21435350.9664    4746594.73949   3698645.58147                  21435351.4984
       703.0004         35.0004
  23269394.9004   -1220229.88548   -950827.32145                  23269397.9554
       258.0004          6.0004
  24293114.7664   -3881976.76748  -3024915.54345                  24293120.6364
       192.0004          4.0004
  23394368.8834   -2669696.63148  -2080281.34645                  23394369.6314
       304.0004          9.0004
 05  6 24 16 54 30.0000000  0  8G14G22G15G 3G18G 9G 1G19
  21444631.4984   -2852514.69549  -2222737.15047                  21444633.4414
       598.0004         33.0004
  20730941.1554   -2727840.61449  -2125588.02547                  20730940.4584
       827.0004         63.0004
  20034885.6784   -4346769.56849  -3387091.95547                  20034888.0534
       873.0004         72.0004
  21996650.8534   -7945479.84849  -6191281.30746                  21996653.7434
       522.0004         22.0004
  21444041.2114    4792262.67049   3734230.97847                  21444041.7254
       703.0004         34.0004
  23264265.1114   -1247189.05348   -971834.44645                  23264268.4444
       265.0004          6.0004
  24272311.1484   -3991299.15048  -3110101.78544                  24272318.1544
       197.0004          3.0004
  23380688.6354   -2741585.51448  -2136298.62946                  23380689.3384
       304.0004         10.0004
 05  6 24 16 55  0.0000000  0  8G14G22G15G 3G18G 9G 1G19
  21429975.2304   -2929532.99649  -2282751.36647                  21429977.1504
       598.0004         33.0004
  20731634.1414   -2724199.32649  -2122750.64347                  20731633.3764
       827.0004         63.0004
  20034565.7444   -4348451.76349  -3388402.74947                  20034567.9974
       897.0004         72.0004
  21994860.4504   -7954887.65649  -6198612.06046                  21994863.2254
       522.0004         23.0004
  21452760.2364    4838081.16149   3769933.69947                  21452760.7084
       703.0004         34.0004
  23259239.0424   -1273603.77248   -992417.33745                  23259241.1644
       280.0004          6.0004
  24251532.1424   -4100497.11648  -3195191.05944                  24251538.7654
       202.0004          3.0004
  23367087.6494   -2813059.42748  -2191992.57546                  23367088.7284
       296.0004         10.0004
 05  6 24 16 55 30.0000000  0  8G14G22G15G 3G18G 9G 1G19
  21415398.3414   -3006136.18449  -2342442.12147                  21415400.1174
       614.0004         34.0004
  20732368.8404   -2720338.94149  -2119742.53947                  20732368.0984
       850.0004         63.0004
  20034321.1414   -4349736.67049  -3389403.96847                  20034323.3684
       873.0004         72.0004
  21993175.8064   -7963741.27449  -6205510.98446                  21993178.3244
       522.0004         23.0004
  21461506.0214    4884040.16449   3805745.90547                  21461506.5564
       703.0004         34.0004
  23254314.3314   -1299481.25748  -1012581.57845                  23254317.5644
       272.0004          6.0004
  24230775.5284   -4209577.63348  -3280188.80245                  24230779.2114
       214.0004          4.0004
  23353564.4574   -2884125.29348  -2247368.53246                  23353566.1294
       304.0004         10.0004
 05  6 24 16 56  0.0000000  0  8G14G22G15G 3G18G 9G 1G19
  21400900.7564   -3082322.33949  -2401807.91447                  21400902.4994
       614.0004         34.0004
  20733144.9654   -2716260.19549  -2116564.28747                  20733144.2554
       827.0004         61.0004
  20034152.3264   -4350622.94649  -3390094.56147                  20034154.5384
       873.0004         70.0004
  21991596.4074   -7972040.60249  -6211977.99646                  21991599.1804
       508.0004         23.0004
  21470278.2544    4930138.81849   3841666.93347                  21470278.5774
       703.0004         33.0004
  23249492.4564   -1324819.45848  -1032325.61445                  23249495.7394
       280.0004          6.0004
  24210040.3484   -4318538.27248  -3365093.10445                  24210047.3304
       202.0004          4.0004
  23340119.2994   -2954780.70448  -2302424.66946                  23340120.2854
       304.0004         11.0004
 05  6 24 16 56 30.0000000  0  8G14G22G15G 3G18G 9G 1G19
  21386479.3314   -3158107.50249  -2460861.24347                  21386480.9944
       614.0004         34.0004
  20733958.9604   -2711981.81849  -2113230.47847                  20733958.2464
       827.0004         61.0004
  20034056.4844   -4351127.14449  -3390487.43247                  20034058.6494
       873.0004         70.0004
  21990119.4504   -7979803.76549  -6218027.21246                  21990122.3054
       522.0004         23.0004
  21479073.6244    4976358.63249   3877682.37747                  21479074.0334
       703.0004         32.0004
  23244770.6224   -1349634.24948  -1051661.79045                  23244773.7664
       288.0004          7.0004
  24189325.6644   -4427394.68548  -3449916.18444                  24189333.0334
       197.0004          3.0004
  23326749.2534   -3025041.42748  -2357173.25746                  23326749.8724
       312.0004         11.0004
 05  6 24 16 57  0.0000000  0  8G14G22G15G 3G18G 9G 1G19
  21372142.7424   -3233444.79449  -2519565.58247                  21372144.6404
       598.0004         34.0004
  20734819.3464   -2707459.86949  -2109706.87247                  20734818.8224
       805.0004         60.0004
  20034041.9964   -4351203.09949  -3390546.61147                  20034044.1964
       873.0004         70.0004
  21988752.5234   -7986985.93249  -6223623.70846                  21988755.5694
       522.0004         23.0004
  21487900.3094    5022743.37249   3913826.33047                  21487900.6544
       703.0004         32.0004
  23240157.1894   -1373878.74848  -1070553.58645                  23240160.5554
       288.0004          7.0004
  24168639.4614   -4536099.66548  -3534621.22845                  24168647.3674
       208.0004          4.0004
  23313463.2544   -3094860.27048  -2411577.52846                  23313464.5404
       312.0004         11.0004
 05  6 24 16 57 30.0000000  0  8G14G22G15G 3G18G 9G 1G19
  21357887.4354   -3308356.63449  -2577938.39847                  21357889.1234
       614.0004         34.0004
  20735721.3274   -2702719.17549  -2106012.81647                  20735720.7564
       805.0004         60.0004
  20034104.6304   -4350873.81349  -3390290.01447                  20034106.9334
       873.0004         70.0004
  21987491.5424   -7993611.33049  -6228786.35446                  21987494.6244
       508.0004         23.0004
  21496753.5334    5069268.26149   3950079.49546                  21496754.2674
       684.0004         31.0004
  23235647.7564   -1397575.30848  -1089018.43345                  23235649.6154
       296.0004          6.0004
  24147978.3114   -4644675.10948  -3619225.33345                  24147981.3694
       214.0004          4.0004
  23300256.5794   -3164259.09248  -2465654.50646                  23300257.2014
       304.0004         12.0004
 05  6 24 16 58  0.0000000  0  8G14G22G15G 3G18G 9G 1G19
  21343713.5944   -3382840.95149  -2635978.08547                  21343715.2604
       614.0004         35.0004
  20736665.0294   -2697760.53049  -2102148.92747                  20736664.5474
       805.0004         60.0004
  20034244.8474   -4350137.79749  -3389716.48347                  20034247.0194
       873.0004         72.0004
  21986337.0324   -7999679.60549  -6233514.86646                  21986339.8664
       522.0004         22.0004
  21505633.3644    5115932.52849   3986441.26246                  21505633.9474
       666.0004         31.0004
  23231242.9374   -1420721.67348  -1107054.53445                  23231245.3534
       288.0004          6.0004
  24127342.6104   -4753118.64048  -3703726.62945                  24127345.3214
       225.0004          4.0004
  23287130.9884   -3233235.51848  -2519402.34946                  23287132.5324
       304.0004         11.0004
 05  6 24 16 58 30.0000000  0  8G14G22G15G 3G18G 9G 1G19
  21329620.4204   -3456900.87249  -2693687.07147                  21329621.9874
       614.0004         35.0004
  20737648.9134   -2692589.66649  -2098119.67447                  20737648.4294
       805.0004         60.0004
  20034461.4884   -4348998.88649  -3388829.01147                  20034463.8724
       873.0004         72.0004
  21985287.2674   -8005195.85449  -6237813.24546                  21985290.2394
       522.0004         23.0004
  21514538.8454    5162730.93249   4022907.55346                  21514539.6314
       666.0004         31.0004
  23226942.5584   -1443320.94548  -1124664.34445                  23226945.6344
       288.0004          6.0004
  24106730.5764   -4861432.96648  -3788127.27245                  24106735.1674
       225.0004          4.0004
  23274085.1594   -3301792.22048  -2572823.13646                  23274086.5844
       312.0004         12.0004
 05  6 24 16 59  0.0000000  0  8G14G22G15G 3G18G 9G 1G19
  21315607.6494   -3530539.25449  -2751067.58847                  21315609.3494
       631.0004         35.0004
  20738672.2954   -2687211.74149  -2093929.07547                  20738671.7264
       805.0004         60.0004
  20034754.1204   -4347460.34949  -3387630.14547                  20034756.6324
       873.0004         72.0004
  21984341.7924   -8010164.98649  -6241685.30046                  21984344.4384
       522.0004         23.0004
  21523468.8404    5209657.91149   4059474.02747                  21523469.6664
       666.0004         32.0004
  23222745.2104   -1465375.68048  -1141849.83645                  23222748.0774
       280.0004          6.0004
  24086143.2204   -4969620.32948  -3872428.97145                  24086146.9314
       219.0004          4.0004
  23261118.3584   -3369931.60448  -2625918.74146                  23261119.5104
       304.0004         12.0004
 05  6 24 16 59 30.0000000  0  8G14G22G15G 3G18G 9G 1G19
  21301674.6114   -3603756.55149  -2808119.99347                  21301676.4584
       614.0004         36.0004
  20739734.6714   -2681629.83049  -2089579.52447                  20739733.9844
       827.0004         61.0004
  20035122.8044   -4345523.30249  -3386120.75547                  20035125.1974
       873.0004         72.0004
  21983500.0504   -8014588.84849  -6245132.47546                  21983502.6954
       536.0004         23.0004
  21532422.4874    5256710.64849   4096138.49346                  21532423.1744
       666.0004         31.0004
  23218652.9114   -1486886.43948  -1158611.43745                  23218655.5494
       296.0004          7.0004
  24065580.2834   -5077680.50248  -3956631.58245                  24065585.1114
       225.0004          4.0004
  23248231.0074   -3437653.63548  -2678689.13046                  23248232.4094
       304.0004         11.0004
 05  6 24 17  0  0.0000000  0  8G14G22G15G 3G18G 9G 1G19
  21287818.9924   -3676568.01449  -2864856.16547                  21287820.7294
       614.0004         35.0004
  20740832.2284   -2675862.14149  -2085085.21147                  20740831.5984
       827.0004         61.0004
  20035564.2204   -4343203.36149  -3384313.00247                  20035566.6944
       873.0004         72.0004
  21982758.2864   -8018485.16749  -6248168.56846                  21982761.0304
       522.0004         23.0004
  21541397.1314    5303871.38949   4132887.11447                  21541398.1474
       684.0004         32.0004
  23214659.5384   -1507868.61548  -1174961.19145                  23214662.9434
       296.0004          7.0004
  24045038.4004   -5185628.40048  -4040746.68445                  24045044.0854
       219.0004          4.0004
  23235420.7574   -3504972.99448  -2731145.74846                  23235422.4804
       312.0004         12.0004
 05  6 24 17  0 30.0000000  0  8G14G22G15G 3G18G 9G 1G19
  21274049.1534   -3748929.52649  -2921241.72247                  21274050.9284
       614.0004         36.0004
  20741973.0454   -2669866.86049  -2080413.55547                  20741972.3214
       827.0004         61.0004
  20036086.9534   -4340456.92649  -3382172.91547                  20036089.1954
       873.0004         72.0004
  21982125.4134   -8021811.56049  -6250760.56646                  21982128.4614
       522.0004         22.0004
  21550399.9714    5351181.64349   4169752.23846                  21550400.6354
       684.0004         31.0004
  23210775.6294   -1528278.08648  -1190864.65145                  23210779.5454
       288.0004          7.0004
  24024525.8684   -5293419.29248  -4124739.44545                  24024533.7614
       219.0004          4.0004
  23222695.1604   -3571845.28148  -2783254.00146                  23222696.4734
       312.0004         13.0004
 05  6 24 17  1  0.0000000  0  8G14G22G15G 3G18G 9G 1G19
  21260362.7764   -3820851.97349  -2977285.15247                  21260364.5924
       631.0004         36.0004
  20743154.6384   -2663657.51049  -2075575.09747                  20743154.0724
       805.0004         60.0004
  20036688.5294   -4337295.48949  -3379709.45447                  20036690.8204
       873.0004         72.0004
  21981598.1534   -8024581.17949  -6252918.71846                  21981601.2674
       508.0004         23.0004
  21559428.7794    5398627.88349   4206723.32846                  21559429.1814
       684.0004         31.0004
  23206998.7274   -1548125.76548  -1206330.36645                  23207002.2114
       288.0004          7.0004
  24004041.8914   -5401063.74648  -4208618.09345                  24004046.9864
       225.0004          4.0004
  23210052.9714   -3638281.15049  -2835022.17946                  23210053.8024
       321.0004         12.0004
 05  6 24 17  1 30.0000000  0  8G14G22G15G 3G18G 9G 1G19
  21246758.7444   -3892341.48849  -3032991.22847                  21246760.3214
       631.0004         36.0004
  20744375.3044   -2657242.88149  -2070576.68047                  20744374.6854
       827.0004         61.0004
  20037367.8074   -4333725.99049  -3376928.02247                  20037370.1424
       873.0004         72.0004
  21981175.4804   -8026802.14049  -6254649.33746                  21981178.7044
       508.0004         22.0004
  21568481.7424    5446201.50649   4243793.67646                  21568482.2964
       684.0004         30.0004
  23203327.6634   -1567417.41148  -1221362.81145                  23203330.8604
       272.0004          6.0004
  23983583.9704   -5508567.40648  -4292387.07145                  23983591.0234
       219.0004          4.0004
  23197492.6444   -3704286.31949  -2886454.74846                  23197494.1624
       329.0004         12.0004
 05  6 24 17  2  0.0000000  0  8G14G22G15G 3G18G 9G 1G19
  21233240.9834   -3963376.69249  -3088343.30547                  21233242.4074
       631.0004         37.0004
  20745638.6494   -2650604.26349  -2065403.72447                  20745638.0064
       827.0004         61.0004
  20038128.7084   -4329727.66649  -3373812.43547                  20038130.7774
       897.0004         72.0004
  21980860.7914   -8028454.81549  -6255937.14446                  21980863.8224
       494.0004         22.0004
  21577562.5234    5493921.48549   4280978.06846                  21577562.8764
       666.0004         29.0004
  23199766.2844   -1586131.80948  -1235945.46745                  23199769.5024
       265.0004          6.0004
  23963157.0154   -5615908.28648  -4376029.19545                  23963163.5294
       219.0004          4.0004
  23185018.5734   -3769838.92749  -2937534.67546                  23185019.2374
       338.0004         12.0004
 05  6 24 17  2 30.0000000  0  8G14G22G15G 3G18G 9G 1G19
  21219810.6204   -4033954.46249  -3143338.93647                  21219812.3374
       631.0004         37.0004
  20746944.8824   -2643740.63949  -2060055.44247                  20746944.1304
       827.0004         61.0004
  20038971.6504   -4325297.72249  -3370360.52047                  20038973.8174
       897.0004         72.0004
  21980654.6054   -8029537.88549  -6256781.09946                  21980657.7194
       494.0004         21.0004
  21586671.3584    5541789.14149   4318277.53846                  21586671.8614
       666.0004         28.0004
  23196314.9284   -1604265.81648  -1250075.85445                  23196318.9944
       258.0004          6.0004
  23942763.6124   -5723082.40848  -4459541.38145                  23942770.8694
       238.0004          5.0004
  23172630.7604   -3834935.09849  -2988258.94146                  23172631.9894
       329.0004         12.0004
 05  6 24 17  3  0.0000000  0  8G14G22G15G 3G18G 9G 1G19
  21206465.9604   -4104081.39249  -3197983.25947                  21206467.3714
       648.0004         38.0004
  20748292.1344   -2636660.93649  -2054538.78647                  20748291.3954
       827.0004         61.0004
  20039895.3894   -4320443.45149  -3366577.96147                  20039897.7064
       873.0004         72.0004
  21980555.5154   -8030060.25949  -6257188.14546                  21980558.5784
       494.0004         22.0004
  21595806.6724    5589794.97749   4355684.67346                  21595807.1504
       666.0004         28.0004
  23192973.8094   -1621826.03748  -1263759.14045                  23192977.8214
       272.0004          7.0004
  23922399.8144   -5830096.07748  -4542928.55145                  23922405.0234
       251.0004          5.0004
  23160328.7054   -3899581.19049  -3038632.48946                  23160329.8394
       321.0004         11.0004
 05  6 24 17  3 30.0000000  0  8G14G22G15G 3G18G 9G 1G19
  21193203.3924   -4173775.87149  -3252290.60947                  21193204.9324
       648.0004         39.0004
  20749676.3484   -2629386.07449  -2048870.05647                  20749675.4964
       827.0004         61.0004
  20040896.2794   -4315183.72549  -3362479.46947                  20040898.3294
       873.0004         72.0004
  21980558.9784   -8030042.14049  -6257174.03146                  21980561.9754
       494.0004         22.0004
  21604964.1324    5637918.22849   4393183.30646                  21604964.4644
       648.0004         27.0004
  23189738.2024   -1638830.86348  -1277009.64645                  23189741.0044
       280.0004          7.0004
  23902062.7694   -5936966.92748  -4626204.41045                  23902067.3684
       251.0004          5.0004
  23148109.5204   -3963795.07149  -3088669.26046                  23148110.1644
       329.0004         12.0004
 05  6 24 17  4  0.0000000  0  8G14G22G15G 3G18G 9G 1G19
  21180023.6344   -4243037.64149  -3306260.78647                  21180025.0764
       666.0004         40.0004
  20751097.1954   -2621918.58349  -2043051.23047                  20751096.5824
       805.0004         60.0004
  20041974.1284   -4309518.79049  -3358065.23247                  20041976.2234
       873.0004         70.0004
  21980664.8724   -8029485.32549  -6256740.15146                  21980667.7084
       508.0004         23.0004
  21614143.7224    5686156.86649   4430771.84546                  21614144.1544
       666.0004         29.0004
  23186607.3894   -1655280.12048  -1289827.23645                  23186610.2884
       272.0004          6.0004
  23881753.0564   -6043694.19748  -4709368.41645                  23881757.8634
       258.0004          5.0004
  23135971.7754   -4027576.27849  -3138368.88346                  23135972.0844
       321.0004         11.0004
 05  6 24 17  4 30.0000000  0  8G14G22G15G 3G18G 9G 1G19
  21166927.6144   -4311856.80749  -3359886.07447                  21166928.8784
       666.0004         41.0004
  20752556.4614   -2614250.76949  -2037076.30647                  20752555.6804
       827.0004         60.0004
  20043131.0354   -4303439.15549  -3353327.85547                  20043133.3584
       873.0004         70.0004
  21980875.1004   -8028381.78249  -6255880.25646                  21980878.0424
       508.0004         22.0004
  21623346.7494    5734518.47849   4468456.21546                  21623347.3744
       666.0004         28.0004
  23183585.0804   -1671163.68448  -1302204.02645                  23183589.1104
       272.0004          6.0004
  23861472.7824   -6150267.30748  -4792412.30745                  23861476.5894
       251.0004          5.0004
  23123918.7044   -4090914.17548  -3187723.06646                  23123918.8234
       312.0004         10.0004
 05  6 24 17  5  0.0000000  0  8G14G22G15G 3G18G 9G 1G19
  21153915.8024   -4380234.66149  -3413167.48547                  21153917.5044
       666.0004         41.0004
  20754053.0924   -2606386.57649  -2030948.35847                  20754052.2004
       827.0004         60.0004
  20044366.5944   -4296946.81649  -3348268.88947                  20044368.7774
       873.0004         70.0004
  21981188.6124   -8026735.03949  -6254597.08046                  21981191.1024
       522.0004         22.0004
  21632572.3704    5782999.59949   4506233.70046                  21632572.8464
       666.0004         28.0004
  23180670.1244   -1686483.34348  -1314141.41045                  23180673.0744
       280.0004          6.0004
  23841221.6284   -6256687.07748  -4875336.69045                  23841227.4224
       258.0004          6.0004
  23111950.8134   -4153809.71749  -3236732.56246                  23111951.2034
       329.0004         11.0004
 05  6 24 17  5 30.0000000  0  8G14G22G15G 3G18G 9G 1G19
  21140990.0454   -4448159.10749  -3466095.58647                  21140991.4814
       666.0004         42.0004
  20755588.9544   -2598315.79949  -2024659.43747                  20755588.0694
       827.0004         60.0004
  20045682.7844   -4290029.93649  -3342879.11447                  20045685.0884
       873.0004         70.0004
  21981607.5034   -8024534.93449  -6252882.71846                  21981609.6934
       536.0004         23.0004
  21641822.5814    5831610.41149   4544112.24846                  21641823.2564
       666.0004         29.0004
  23177864.3314   -1701226.82248  -1325629.82345                  23177867.7324
       288.0004          7.0004
  23821002.3284   -6362940.38348  -4958131.38145                  23821007.1984
       258.0004          5.0004
  23100069.2014   -4216250.01749  -3285387.32946                  23100068.8294
       338.0004         12.0004
 05  6 24 17  6  0.0000000  0  8G14G22G15G 3G18G 9G 1G19
  21128149.9984   -4515634.94849  -3518674.12647                  21128151.6134
       666.0004         43.0004
  20757162.7314   -2590045.84549  -2018215.31247                  20757161.6824
       850.0004         61.0004
  20047078.8364   -4282693.94349  -3337162.75647                  20047081.0974
       873.0004         68.0004
  21982130.1314   -8021788.36249  -6250742.53646                  21982133.0214
       536.0004         23.0004
  21651096.2824    5880343.44049   4582086.02646                  21651096.8764
       666.0004         29.0004
  23175167.6174   -1715399.11148  -1336673.16045                  23175170.2024
       296.0004          7.0004
  23800813.9204   -6469031.52048  -5040799.67045                  23800820.1074
       258.0004          5.0004
  23088272.9444   -4278239.75449  -3333691.01846                  23088272.7134
       348.0004         12.0004
 05  6 24 17  6 30.0000000  0  8G14G22G15G 3G18G 9G 1G19
  21115395.9494   -4582658.10449  -3570899.92747                  21115397.2464
       684.0004         43.0004
  20758774.6364   -2581574.98349  -2011614.63647                  20758773.7664
       827.0004         61.0004
  20048555.2874   -4274935.04849  -3331116.86247                  20048557.6684
       873.0004         70.0004
  21982757.4614   -8018493.14049  -6248174.83346                  21982760.4014
       551.0004         24.0004
  21660393.3584    5929200.59149   4620156.51746                  21660394.0054
       648.0004         28.0004
  23172580.4784   -1728996.01448  -1347268.12845                  23172583.6524
       288.0004          7.0004
  23780656.3534   -6574955.68448  -5123337.86345                  23780663.0244
       244.0004          5.0004
  23076563.5004   -4339774.39849  -3381640.07546                  23076563.7204
       357.0004         12.0004
 05  6 24 17  7  0.0000000  0  8G14G22G15G 3G18G 9G 1G19
  21102727.1734   -4649232.50449  -3622776.04647                  21102728.6064
       666.0004         43.0004
  20760423.4844   -2572909.52549  -2004862.32847                  20760422.6224
       827.0004         60.0004
  20050111.4014   -4266758.03049  -3324745.15747                  20050113.6314
       873.0004         70.0004
  21983487.6374   -8014655.63449  -6245184.57446                  21983490.4134
       536.0004         23.0004
  21669713.1284    5978175.58149   4658318.83046                  21669713.8254
       648.0004         27.0004
  23170101.2074   -1742021.71748  -1357418.00645                  23170104.5974
       280.0004          7.0004
  23760530.4944   -6680716.49148  -5205748.71845                  23760536.5794
       238.0004          5.0004
  23064939.5974   -4400857.43449  -3429237.23846                  23064939.8784
       348.0004         13.0004
 05  6 24 17  7 30.0000000  0  8G14G22G15G 3G18G 9G 1G19
  21090144.5934   -4715353.00949  -3674298.48247                  21090146.1394
       666.0004         44.0004
  20762109.9894   -2564046.81649  -1997956.31647                  20762109.1514
       827.0004         60.0004
  20051747.9614   -4258158.22949  -3318044.01747                  20051750.0804
       897.0004         70.0004
  21984321.4174   -8010272.45249  -6241769.11246                  21984324.0954
       536.0004         23.0004
  21679055.6734    6027271.55949   4696575.42946                  21679056.3504
       631.0004         27.0004
  23167732.6754   -1754471.13148  -1367118.82245                  23167736.5434
       288.0004          7.0004
  23740436.7464   -6786307.97848  -5288027.67545                  23740442.1324
       232.0004          5.0004
  23053402.5044   -4461483.32049  -3476478.15546                  23053402.9994
       338.0004         12.0004
 05  6 24 17  8  0.0000000  0  8G14G22G15G 3G18G 9G 1G19
  21077648.8814   -4781018.15949  -3725466.09447                  21077650.2764
       666.0004         43.0004
  20763833.9704   -2554986.90649  -1990896.63247                  20763832.9684
       805.0004         49.0004
  20053465.0954   -4249134.16049  -3311012.28347                  20053467.4754
       897.0004         65.0004
  21985259.2524   -8005344.16849  -6237928.90346                  21985262.1924
       522.0004         22.0004
  21688421.2594    6076487.97749   4734925.87546                  21688421.8504
       631.0004         26.0004
  23165473.1164   -1766342.71548  -1376369.37445                  23165476.6874
       280.0004          7.0004
  23720375.8894   -6891727.78748  -5370172.82945                  23720381.5814
       232.0004          5.0004
  23041952.8614   -4521649.69249  -3523361.02346                  23041954.4764
       321.0004         12.0004
 05  6 24 17  8 30.0000000  0  8G14G22G15G 3G18G 9G 1G19
  21065240.2604   -4846226.25449  -3776277.56347                  21065241.7394
       666.0004         44.0004
  20765595.1614   -2545730.86349  -1983684.14747                  20765594.5884
       805.0004         58.0004
  20055263.2904   -4239685.03649  -3303649.32947                  20055265.5324
       897.0004         72.0004
  21986300.7764   -7999871.16449  -6233664.23246                  21986303.8664
       522.0004         23.0004
  21697809.8604    6125824.53649   4773369.93346                  21697810.5044
       648.0004         27.0004
  23163324.8784   -1777635.04848  -1385168.54445                  23163326.9154
       304.0004          7.0004
  23700348.6664   -6996973.75248  -5452182.53545                  23700353.5104
       238.0004          5.0004
  23030591.5454   -4581354.52849  -3569884.25546                  23030593.1064
       329.0004         13.0004
 05  6 24 17  9  0.0000000  0  8G14G22G15G 3G18G 9G 1G19
  21052919.6594   -4910969.72549  -3826726.98347                  21052921.8464
       648.0004         44.0004
  20767394.9534   -2536273.45249  -1976314.73047                  20767394.3584
       805.0004         58.0004
  20057143.6144   -4229803.83149  -3295949.69647                  20057145.9704
       897.0004         72.0004
  21987446.6324   -7993847.95149  -6228970.82946                  21987449.8024
       508.0004         22.0004
  21707222.3254    6175286.79949   4811911.94846                  21707222.7404
       648.0004         26.0004
  23161287.4604   -1788340.65548  -1393510.54145                  23161290.0784
       296.0004          7.0004
  23680356.0254   -7102037.56948  -5534050.29045                  23680359.5284
       244.0004          5.0004
  23019319.5324   -4640589.74549  -3616041.54046                  23019320.8484
       329.0004         13.0004
 05  6 24 17  9 30.0000000  0  8G14G22G15G 3G18G 9G 1G19
  21040688.3294   -4975245.87449  -3876812.26047                  21040689.9604
       648.0004         44.0004
  20769233.1134   -2526613.92949  -1968787.82547                  20769232.5414
       805.0004         60.0004
  20059106.6224   -4219488.04749  -3287911.42547                  20059108.7924
       897.0004         72.0004
  21988697.7434   -7987273.95649  -6223848.24046                  21988700.9244
       508.0004         23.0004
  21716658.7474    6224875.15749   4850552.21646                  21716659.1054
       648.0004         27.0004
  23159361.3834   -1798457.00948  -1401393.35445                  23159365.3624
       272.0004          6.0004
  23660397.9744   -7206915.53948  -5615773.22845                  23660401.1914
       244.0004          5.0004
  23008137.2494   -4699352.36149  -3661830.57146                  23008138.9494
       329.0004         14.0004
 05  6 24 17 10  0.0000000  0  8G14G22G15G 3G18G 9G 1G19
  21028545.0724   -5039060.06849  -3926537.57647                  21028546.8274
       666.0004         44.0004
  20771108.3464   -2516759.84949  -1961109.31747                  20771107.8554
       827.0004         60.0004
  20061151.2084   -4208743.44849  -3279539.01447                  20061153.3774
       897.0004         70.0004
  21990052.2674   -7980156.39749  -6218302.09646                  21990055.3774
       522.0004         23.0004
  21726117.6574    6274582.22649   4889284.98746                  21726118.0724
       648.0004         26.0004
  23157547.8754   -1807989.56148  -1408821.29045                  23157551.0374
       280.0004          6.0004
  23640474.6144   -7311612.26748  -5697354.97745                  23640480.2624
       238.0004          5.0004
  22997044.4094   -4757646.97549  -3707254.92446                  22997045.6084
       348.0004         14.0004
 05  6 24 17 10 30.0000000  0  8G14G22G15G 3G18G 9G 1G19
  21016490.8884   -5102404.44049  -3975896.79747                  21016492.3884
       666.0004         46.0004
  20773021.6644   -2506705.76249  -1953274.96147                  20773021.0104
       827.0004         60.0004
  20063278.7074   -4197562.80249  -3270826.82147                  20063280.9284
       873.0004         70.0004
  21991511.1234   -7972489.78549  -6212328.12246                  21991514.1774
       508.0004         23.0004
  21735600.2114    6324413.61349   4928114.62946                  21735600.5274
       648.0004         26.0004
  23155846.8354   -1816930.72648  -1415788.37945                  23155849.8944
       288.0004          7.0004
  23620587.3964   -7416119.33448  -5778788.92045                  23620591.6864
       238.0004          5.0004
  22986042.0494   -4815465.56049  -3752308.35846                  22986042.8844
       357.0004         13.0004
 05  6 24 17 11  0.0000000  0  8G14G22G15G 3G18G 9G 1G19
  21004524.8844   -5165286.29949  -4024895.61847                  21004526.3834
       666.0004         46.0004
  20774971.2284   -2496461.03549  -1945292.05647                  20774970.6034
       827.0004         60.0004
  20065487.8334   -4185953.95749  -3261780.97647                  20065490.0234
       873.0004         70.0004
  21993072.3504   -7964283.61549  -6205933.71046                  21993075.7644
       508.0004         23.0004
  21745104.5614    6374360.26349   4967034.08846                  21745105.1604
       631.0004         26.0004
  23154255.9584   -1825287.89948  -1422300.41545                  23154260.1514
       280.0004          7.0004
  23600734.7664   -7520443.33948  -5860080.23845                  23600740.5184
       238.0004          4.0004
  22975128.6844   -4872814.88649  -3796996.13746                  22975129.2944
       348.0004         13.0004
 05  6 24 17 11 30.0000000  0  8G14G22G15G 3G18G 9G 1G19
  20992648.6244   -5227696.61849  -4073527.00647                  20992650.1914
       666.0004         44.0004
  20776958.3124   -2486018.58749  -1937155.08247                  20776957.7374
       827.0004         60.0004
  20067780.0474   -4173907.99449  -3252394.51847                  20067782.3014
       873.0004         70.0004
  21994737.9694   -7955530.75449  -6199113.30446                  21994741.1584
       508.0004         22.0004
  21754632.3664    6424429.38949   5006048.97746                  21754633.1074
       614.0004         25.0004
  23152778.3124   -1833052.01048  -1428350.32345                  23152781.0604
       272.0004          7.0004
  23580919.7234   -7624574.15048  -5941221.01945                  23580924.8934
       244.0004          5.0004
  22964306.7694   -4929685.18349  -3841310.64246                  22964307.4834
       348.0004         13.0004
 05  6 24 17 12  0.0000000  0  8G14G22G15G 3G18G 9G 1G19
  20980866.6244   -5289611.62249  -4121772.43647                  20980867.7574
       666.0004         46.0004
  20778987.2354   -2475356.41749  -1928846.89547                  20778986.5544
       827.0004         60.0004
  20070159.9474   -4161401.58449  -3242649.26847                  20070162.2314
       873.0004         70.0004
  21996512.2574   -7946209.41849  -6191849.93246                  21996515.4784
       522.0004         23.0004
  21764187.6104    6474642.92349   5045176.39846                  21764188.5104
       614.0004         25.0004
  23151418.6714   -1840199.41648  -1433919.67045                  23151422.7574
       280.0004          6.0004
  23561145.5584   -7728487.13548  -6022192.06045                  23561150.0884
       244.0004          5.0004
  22953580.3924   -4986052.08549  -3885232.88846                  22953581.3564
       348.0004         14.0004
 05  6 24 17 12 30.0000000  0  8G14G22G15G 3G18G 9G 1G19
  20969170.6084   -5351073.63949  -4169664.88647                  20969172.1924
       666.0004         46.0004
  20781049.3394   -2464519.53649  -1920402.57247                  20781048.6254
       827.0004         60.0004
  20072619.2364   -4148477.71949  -3232578.73547                  20072621.6924
       873.0004         70.0004
  21998385.7114   -7936364.35749  -6184178.46846                  21998388.9324
       536.0004         23.0004
  21773761.9084    6524956.01649   5084381.38946                  21773762.6814
       614.0004         24.0004
  23150167.2334   -1846772.97048  -1439041.87145                  23150169.4384
       272.0004          7.0004
  23541404.4224   -7832224.01548  -6103025.88745                  23541410.7664
       238.0004          5.0004
  22942941.9154   -5041957.83149  -3928795.79446                  22942942.6574
       357.0004         14.0004
 05  6 24 17 13  0.0000000  0  8G14G22G15G 3G18G 9G 1G19
  20957565.2214   -5412060.33449  -4217186.95647                  20957566.9544
       666.0004         46.0004
  20783148.6574   -2453487.82349  -1911806.43247                  20783148.0364
       827.0004         60.0004
  20075162.3804   -4135114.60549  -3222165.92547                  20075164.5314
       873.0004         70.0004
  22000362.6034   -7925975.15749  -6176083.00146                  22000365.7464
       522.0004         22.0004
  21783359.2794    6575389.72549   5123680.36646                  21783360.1594
       614.0004         25.0004
  23149030.1054   -1852750.78248  -1443699.86645                  23149034.2934
       280.0004          7.0004
  23521701.6254   -7935761.88448  -6183704.63845                  23521706.5344
       238.0004          5.0004
  22932395.3644   -5097379.48449  -3971981.47946                  22932396.6884
       348.0004         14.0004
 05  6 24 17 13 30.0000000  0  8G14G22G15G 3G18G 9G 1G19
  20946047.8004   -5472585.76049  -4264349.59647                  20946049.1854
       666.0004         46.0004
  20785282.0104   -2442276.98949  -1903070.71047                  20785281.3774
       827.0004         61.0004
  20077786.3004   -4121326.51349  -3211421.95947                  20077788.3874
       897.0004         72.0004
  22002440.1564   -7915058.28749  -6167576.37446                  22002441.8964
       522.0004         29.0004
  21792976.2814    6625927.33049   5163060.30246                  21792976.8644
       614.0004         24.0004
  23148002.8854   -1858146.87448  -1447904.56245                  23148006.4654
       288.0004          7.0004
  23502034.4184   -8039113.68348  -6264238.39745                  23502040.1734
       238.0004          5.0004
  22921938.5404   -5152330.42049  -4014800.37146                  22921939.9264
       338.0004         14.0004
 05  6 24 17 14  0.0000000  0  8G14G22G15G 3G18G 9G 1G19
  20934620.2924   -5532637.17249  -4311142.87047                  20934621.7934
       648.0004         46.0004
  20787451.5514   -2430876.00849  -1894186.82947                  20787450.8784
       827.0004         60.0004
  20080493.2514   -4107100.99549  -3200337.14647                  20080495.4114
       873.0004         70.0004
  22004620.1374   -7903602.79349  -6158649.98246                  22004622.8974
       522.0004         21.0004
  21802615.3294    6676580.59349   5202530.36246                  21802615.9184
       614.0004         24.0004
  23147089.8284   -1862948.59948  -1451646.11745                  23147092.5894
       304.0004          7.0004
  23482404.9414   -8142265.59048  -6344616.42245                  23482408.0824
       238.0004          4.0004
  22911573.5584   -5206797.53749  -4057242.25346                  22911574.7894
       338.0004         14.0004
 05  6 24 17 14 30.0000000  0  8G14G22G15G 3G18G 9G 1G19
  20923283.9514   -5592209.65049  -4357562.95047                  20923285.3734
       666.0004         47.0004
  20789657.7434   -2419282.16849  -1885152.66547                  20789657.0104
       827.0004         60.0004
  20083284.3514   -4092433.62849  -3188908.04147                  20083286.6424
       897.0004         70.0004
  22006902.7664   -7891605.71149  -6149301.63546                  22006905.9274
       508.0004         21.0004
  21812276.7754    6727352.19749   5242092.63546                  21812277.3244
       598.0004         23.0004
  23146290.3704   -1867151.09549  -1454920.74445                  23146293.4284
       321.0004          8.0004
  23462815.3904   -8245211.87748  -6424834.22045                  23462820.2824
       251.0004          5.0004
  22901302.2994   -5260775.38149  -4099302.90246                  22901302.4794
       357.0004         15.0004
 05  6 24 17 15  0.0000000  0  8G14G22G15G 3G18G 9G 1G19
  20912034.5544   -5651324.99449  -4403626.82747                  20912036.1954
       666.0004         47.0004
  20791896.1084   -2407519.41249  -1875986.88047                  20791895.3604
       827.0004         60.0004
  20086155.2304   -4077346.43949  -3177151.79647                  20086157.5754
       873.0004         70.0004
  22009284.1594   -7879091.15349  -6139550.04046                  22009287.2284
       508.0004         22.0004
  21821956.4034    6778218.92049   5281729.02746                  21821957.4204
       598.0004         24.0004
  23145599.6724   -1870776.42048  -1457745.63345                  23145602.1784
       304.0004          8.0004
  23443260.3114   -8347973.45048  -6504908.08645                  23443266.0044
       251.0004          6.0004
  22891119.7124   -5314285.09649  -4140998.77046                  22891120.2204
       357.0004         15.0004
 05  6 24 17 15 30.0000000  0  8G14G22G15G 3G18G 9G 1G19
  20900878.0994   -5709952.95949  -4449310.92847                  20900879.5724
       666.0004         48.0004
  20794172.1304   -2395559.43349  -1866667.41547                  20794171.5154
       827.0004         60.0004
  20089111.7864   -4061809.75149  -3165045.29147                  20089114.0644
       873.0004         70.0004
  22011769.4964   -7866031.10649  -6129373.39446                  22011772.4604
       522.0004         21.0004
  21831659.5454    6829209.08449   5321461.60846                  21831660.2364
       598.0004         24.0004
  23145025.8364   -1873794.78548  -1460097.57745                  23145028.9314
       312.0004          8.0004
  23423746.0424   -8450519.36648  -6584813.91145                  23423750.5144
       244.0004          6.0004
  22881032.0074   -5367296.00049  -4182305.95246                  22881032.6204
       357.0004         14.0004
 05  6 24 17 16  0.0000000  0  8G14G22G15G 3G18G 9G 1G19
  20889811.9944   -5768105.74749  -4494624.75947                  20889813.2594
       666.0004         48.0004
  20796482.9324   -2383416.19649  -1857205.15347                  20796482.3954
       827.0004         60.0004
  20092151.5574   -4045836.27049  -3152598.43147                  20092153.5934
       897.0004         70.0004
  22014356.0954   -7852440.38649  -6118783.23546                  22014358.5154
       536.0004         22.0004
  21841383.3254    6880308.53449   5361279.34146                  21841384.4794
       582.0004         23.0004
  23144564.0614   -1876218.64248  -1461986.24945                  23144567.1214
       304.0004          8.0004
  23404271.3214   -8552860.92248  -6664560.50545                  23404276.0894
       251.0004          6.0004
  22871036.8684   -5419820.07749  -4223233.79146                  22871037.4224
       357.0004         14.0004
 05  6 24 17 16 30.0000000  0  8G14G22G15G 3G18G 9G 1G19
  20878836.1744   -5825783.81649  -4539568.68747                  20878837.7274
       666.0004         49.0004
  20798828.1554   -2371092.24549  -1847602.07247                  20798827.5794
       827.0004         61.0004
  20095274.0844   -4029427.01049  -3139811.99747                  20095276.3384
       897.0004         70.0004
  22017042.7504   -7838321.31049  -6107781.36246                  22017045.4794
       522.0004         22.0004
  21851127.6654    6931514.96249   5401180.43646                  21851128.7124
       598.0004         24.0004
  23144216.1054   -1878049.04548  -1463412.50045                  23144219.2424
       304.0004          7.0004
  23384835.7234   -8654997.83848  -6744147.62645                  23384840.7054
       258.0004          6.0004
  22861134.5224   -5471857.06049  -4263782.07446                  22861135.0204
       367.0004         14.0004
 05  6 24 17 17  0.0000000  0  8G14G22G15G 3G18G 9G 1G19
  20867951.7804   -5882981.09449  -4584137.97347                  20867953.1624
       666.0004         49.0004
  20801208.5754   -2358582.99049  -1837854.59847                  20801207.9534
       827.0004         60.0004
  20098480.8304   -4012575.81149  -3126681.19647                  20098483.1944
       897.0004         70.0004
  22019830.7304   -7823669.68549  -6096364.52646                  22019833.6234
       522.0004         23.0004
  21860893.1364    6982832.98049   5441168.47746                  21860893.7704
       582.0004         23.0004
  23143981.5434   -1879279.74648  -1464371.44045                  23143984.7244
       280.0004          7.0004
  23365440.5264   -8756922.74748  -6823569.56445                  23365445.3524
       265.0004          6.0004
  22851326.2614   -5523400.21849  -4303945.56546                  22851326.6674
       367.0004         15.0004
 05  6 24 17 17 30.0000000  0  8G14G22G15G 3G18G 9G 1G19
  20857159.8974   -5939692.68249  -4628328.79747                  20857161.3494
       666.0004         49.0004
  20803624.7144   -2345885.68049  -1827960.59147                  20803624.1804
       827.0004         60.0004
  20101772.4904   -3995278.44249  -3113202.72847                  20101774.5124
       897.0004         70.0004
  22022720.8704   -7808482.83349  -6084530.62246                  22022723.7914
       536.0004         23.0004
  21870680.6084    7034265.88649   5481246.05446                  21870681.3174
       582.0004         23.0004
  23143861.8184   -1879906.13648  -1464859.51145                  23143865.2114
       265.0004          6.0004
  23346086.8064   -8858630.06348  -6902821.93945                  23346091.1564
       288.0004          6.0004
  22841612.6084   -5574444.33549  -4343720.18846                  22841613.6734
       357.0004         15.0004
 05  6 24 17 18  0.0000000  0  8G14G22G15G 3G18G 9G 1G19
  20846460.4084   -5995919.91549  -4672142.20747                  20846461.7764
       684.0004         49.0004
  20806076.0144   -2333003.42949  -1817922.47347                  20806075.4604
       827.0004         60.0004
  20105148.4204   -3977536.50249  -3099377.84747                  20105150.7474
       873.0004         70.0004
  22025711.9514   -7792764.33649  -6072282.45746                  22025715.0684
       536.0004         23.0004
  21880489.2674    7085810.73449   5521410.85446                  21880489.8074
       582.0004         22.0004
  23143857.3044   -1879929.95248  -1464878.02245                  23143860.1174
       265.0004          6.0004
  23326773.8524   -8960120.13448  -6981905.04745                  23326777.5184
       288.0004          7.0004
  22831994.2164   -5624990.08349  -4383106.46646                  22831995.3264
       367.0004         14.0004
 05  6 24 17 18 30.0000000  0  8G14G22G15G 3G18G 9G 1G19
  20835853.3254   -6051659.00349  -4715575.24147                  20835854.7234
       666.0004         49.0004
  20808563.1224   -2319934.19949  -1807738.65947                  20808562.5314
       827.0004         60.0004
  20108609.9174   -3959346.41649  -3085203.76847                  20108612.1064
       873.0004         68.0004
  22028804.4514   -7776512.67349  -6059618.84246                  22028806.9104
       522.0004         22.0004
  21890319.8504    7137469.67649   5561664.55946                  21890320.6844
       582.0004         22.0004
  23143968.6954   -1879347.65048  -1464424.23845                  23143971.7364
       288.0004          7.0004
  23307503.5644   -9061388.05548  -7060815.05145                  23307507.6184
       296.0004          7.0004
  22822471.5514   -5675033.09749  -4422101.01846                  22822471.6734
       377.0004         15.0004
 05  6 24 17 19  0.0000000  0  8G14G22G15G 3G18G 9G 1G19
  20825340.2664   -6106906.01749  -4758624.84347                  20825341.6934
       666.0004         49.0004
  20811086.0054   -2306675.82949  -1797407.46247                  20811085.3914
       827.0004         60.0004
  20112157.3574   -3940704.60149  -3070677.68747                  20112159.5904
       873.0004         68.0004
  22031998.7004   -7759725.69149  -6046538.09446                  22032001.9554
       508.0004         22.0004
  21900172.3674    7189245.09949   5602009.02846                  21900172.9214
       582.0004         22.0004
  23144195.3304   -1878155.49148  -1463495.24445                  23144197.7254
       296.0004          7.0004
  23288276.0114   -9162428.72248  -7139547.98245                  23288279.2724
       304.0004          7.0004
  22813045.5174   -5724568.85949  -4460700.31246                  22813045.6904
       387.0004         15.0004
 05  6 24 17 19 30.0000000  0  8G14G22G15G 3G18G 9G 1G19
  20814915.1444   -6161691.09849  -4801314.49947                  20814916.2674
       684.0004         49.0004
  20813638.9844   -2293260.20649  -1786953.72947                  20813638.3144
       827.0004         60.0004
  20115784.8274   -3921641.57749  -3055823.38447                  20115787.1324
       873.0004         67.0004
  22035289.2304   -7742435.97049  -6033065.60046                  22035292.5354
       522.0004         23.0004
  21910040.9434    7241105.29649   5642419.55846                  21910041.7424
       566.0004         22.0004
  23144532.7534   -1876384.05348  -1462114.87245                  23144534.6394
       304.0004          7.0004
  23269085.8034   -9263271.47048  -7218126.68445                  23269089.9504
       296.0004          7.0004
  22803709.9454   -5773627.12149  -4498927.51346                  22803710.5754
       377.0004         16.0004
 05  6 24 17 20  0.0000000  0  8G14G22G15G 3G18G 9G 1G19
  20804585.4324   -6215974.34849  -4843613.11847                  20804586.7334
       684.0004         49.0004
  20816229.1874   -2279649.32949  -1776347.85147                  20816228.3964
       827.0004         60.0004
  20119500.1054   -3902118.00849  -3040610.21847                  20119502.4064
       873.0004         68.0004
  22038682.4994   -7724605.95349  -6019172.10246                  22038685.3804
       536.0004         23.0004
  21919933.1124    7293088.68249   5682926.08246                  21919933.7124
       566.0004         21.0004
  23144987.0104   -1873993.82248  -1460252.30445                  23144990.4324
       288.0004          7.0004
  23249940.7244   -9363875.54248  -7296519.39145                  23249945.3744
       288.0004          6.0004
  22794473.0524   -5822167.66749  -4536751.29546                  22794473.6894
       387.0004         16.0004
 05  6 24 17 20 30.0000000  0  8G14G22G15G 3G18G 9G 1G19
  20794354.1204   -6269740.10549  -4885508.49347                  20794355.3204
       684.0004         49.0004
  20818858.9334   -2265829.27749  -1765578.97847                  20818858.2814
       827.0004         60.0004
  20123305.9504   -3882118.63449  -3025026.29547                  20123308.0194
       897.0004         68.0004
  22042180.1514   -7706222.09849  -6004847.03346                  22042183.3784
       522.0004         23.0004
  21929851.3204    7345209.22349   5723539.47246                  21929852.2994
       566.0004         21.0004
  23145562.8794   -1870969.63548  -1457895.77145                  23145566.5554
       296.0004          8.0004
  23230844.6224   -9464224.31148  -7374713.18045                  23230849.8244
       288.0004          6.0004
  22785337.8884   -5870174.23649  -4574159.00546                  22785338.4344
       398.0004         18.0004
 05  6 24 17 21  0.0000000  0  8G14G22G15G 3G18G 9G 1G19
  20784212.0394   -6323036.59449  -4927038.20747                  20784213.1924
       666.0004         49.0004
  20821519.2714   -2251849.40149  -1754685.56647                  20821518.5234
       827.0004         60.0004
  20127193.1634   -3861691.73849  -3009109.23347                  20127195.4764
       897.0004         70.0004
  22045774.4324   -7687334.91649  -5990129.77046                  22045777.4364
       522.0004         22.0004
  21939786.2024    7397417.03449   5764220.86946                  21939787.4084
       566.0004         21.0004
  23146250.2074   -1867359.83348  -1455082.90845                  23146252.3564
       312.0004          8.0004
  23211788.4214   -9564364.71448  -7452744.61645                  23211792.5314
       288.0004          8.0004
  22776295.3134   -5917694.36749  -4611187.66746                  22776296.0674
       409.0004         17.0004
 05  6 24 17 21 30.0000000  0  8G14G22G15G 3G18G 9G 1G19
  20774161.0884   -6375854.31049  -4968194.85047                  20774162.2774
       666.0004         49.0004
  20824211.4344   -2237702.10049  -1743661.69247                  20824210.7184
       827.0004         61.0004
  20131163.3594   -3840828.07749  -2992851.84647                  20131165.7994
       897.0004         70.0004
  22049466.0294   -7667936.82249  -5975014.38246                  22049469.1904
       522.0004         22.0004
  21949739.1314    7449720.67649   5804976.93946                  21949739.6704
       566.0004         21.0004
  23147049.8894   -1863155.28148  -1451806.60545                  23147052.9624
       296.0004          7.0004
  23192773.8174   -9664286.18248  -7530605.44445                  23192778.3764
       296.0004          7.0004
  22767346.6304   -5964717.95949  -4647829.42246                  22767347.0374
       398.0004         18.0004
 05  6 24 17 22  0.0000000  0  8G14G22G15G 3G18G 9G 1G19
  20764206.4174   -6428166.04649  -5008957.22447                  20764207.7984
       684.0004         51.0004
  20826940.2564   -2223361.92049  -1732487.52647                  20826939.5274
       827.0004         60.0004
  20135221.7904   -3819500.72149  -2976233.14147                  20135224.1404
       873.0004         70.0004
  22053259.0264   -7648002.68849  -5959481.30746                  22053262.6924
       508.0004         21.0004
  21959715.4214    7502145.83049   5845827.69346                  21959716.4174
       582.0004         21.0004
  23147967.8534   -1858329.30448  -1448046.08745                  23147970.8354
       280.0004          7.0004
  23173805.8694   -9763960.57048  -7608273.72845                  23173810.3644
       296.0004          7.0004
  22758498.1404   -6011217.35149  -4684062.69446                  22758498.5234
       409.0004         18.0004
 05  6 24 17 22 30.0000000  0  8G14G22G15G 3G18G 9G 1G19
  20754350.2604   -6479960.77749  -5049316.73947                  20754351.6584
       684.0004         52.0004
  20829707.6524   -2208819.31749  -1721155.62647                  20829706.9174
       827.0004         60.0004
  20139370.5794   -3797698.82149  -2959244.65047                  20139372.8694
       873.0004         70.0004
  22057155.8154   -7627523.40149  -5943523.44246                  22057159.1174
       494.0004         22.0004
  21969716.4894    7554702.07249   5886780.59346                  21969716.8984
       582.0004         21.0004
  23149006.5194   -1852870.73248  -1443792.62345                  23149009.8974
       272.0004          7.0004
  23154888.4164   -9863375.45748  -7685739.81645                  23154893.1134
       312.0004          8.0004
  22749752.1074   -6057180.93749  -4719878.46346                  22749752.4364
       432.0004         19.0004
 05  6 24 17 23  0.0000000  0  8G14G22G15G 3G18G 9G 1G19
  20744580.5934   -6531300.73249  -5089321.88247                  20744581.8174
       684.0004         52.0004
  20832501.2414   -2194138.45149  -1709715.98447                  20832500.3334
       827.0004         60.0004
  20143597.6374   -3775485.62049  -2941935.67047                  20143600.0304
       873.0004         68.0004
  22061144.5914   -7606564.30649  -5927191.69846                  22061147.6734
       508.0004         21.0004
  21979730.3394    7607325.28849   5927785.68046                  21979730.7914
       582.0004         20.0004
  23150153.8424   -1846842.95348  -1439095.63945                  23150156.6314
       272.0004          7.0004
  23136008.4744   -9962592.78149  -7763051.95845                  23136011.9504
       329.0004          8.0004
  22741095.5814   -6102670.83649  -4755325.12946                  22741095.8724
       420.0004         18.0004
 05  6 24 17 23 30.0000000  0  8G14G22G15G 3G18G 9G 1G19
  20734901.1894   -6582166.81449  -5128957.77547                  20734902.5054
       684.0004         54.0004
  20835324.5554   -2179301.58649  -1698154.78647                  20835323.8734
       827.0004         58.0004
  20147906.4404   -3752842.06549  -2924291.34947                  20147908.8434
       873.0004         68.0004
  22065227.6994   -7585108.17349  -5910472.65546                  22065230.8274
       522.0004         21.0004
  21989760.6504    7660033.64549   5968857.11146                  21989761.2914
       582.0004         20.0004
  23151412.2454   -1840227.01548  -1433940.34945                  23151415.4714
       265.0004          7.0004
  23117169.3694  -10061591.99549  -7840194.14245                  23117173.0484
       329.0004          8.0004
  22732532.5234   -6147667.11049  -4790387.15346                  22732533.0214
       398.0004         17.0004
 05  6 24 17 24  0.0000000  0  8G14G22G15G 3G18G 9G 1G19
  20725320.1054   -6632514.86649  -5168190.00347                  20725321.5154
       684.0004         54.0004
  20838185.7124   -2164266.04349  -1686438.77247                  20838185.1454
       827.0004         60.0004
  20152305.7894   -3729723.93449  -2906277.22547                  20152308.1564
       873.0004         68.0004
  22069413.6764   -7563112.73349  -5893333.36346                  22069416.5654
       536.0004         22.0004
  21999815.1964    7712870.05549   6010028.32946                  21999815.6854
       582.0004         20.0004
  23152792.0964   -1832978.93648  -1428292.47745                  23152794.2144
       280.0004          7.0004
  23098380.4274  -10160327.48449  -7917130.81945                  23098383.8494
       329.0004          9.0004
  22724072.3364   -6192124.90649  -4825029.58046                  22724072.8234
       398.0004         17.0004
 05  6 24 17 24 30.0000000  0  8G14G22G15G 3G18G 9G 1G19
  20715842.1054   -6682322.08649  -5207000.80647                  20715843.4244
       684.0004         54.0004
  20841088.7164   -2149010.63649  -1674551.44047                  20841088.1044
       827.0004         58.0004
  20156799.5954   -3706109.02449  -2887876.00047                  20156801.7984
       897.0004         68.0004
  22073705.9964   -7540557.46549  -5875757.85346                  22073708.2344
       536.0004         21.0004
  22009897.8964    7765855.82249   6051315.92546                  22009898.3064
       566.0004         20.0004
  23154295.4854   -1825076.53248  -1422134.76145                  23154297.5914
       280.0004          7.0004
  23079646.8734  -10258775.68749  -7993843.64745                  23079650.5924
       338.0004          9.0004
  22715719.1914   -6236020.91749  -4859234.26546                  22715719.6544
       398.0004         17.0004
 05  6 24 17 25  0.0000000  0  8G14G22G15G 3G18G 9G 1G19
  20706452.7214   -6731664.73149  -5245449.60647                  20706454.0014
       684.0004         54.0004
  20844018.8554   -2133612.96649  -1662553.25647                  20844018.1854
       827.0004         58.0004
  20161373.3464   -3682073.70349  -2869147.18247                  20161375.6694
       873.0004         68.0004
  22078089.3084   -7517520.88549  -5857807.29546                  22078092.2414
       522.0004         21.0004
  22019994.3604    7818913.86349   6092659.83746                  22019994.9134
       551.0004         20.0004
  23155909.5624   -1816596.48648  -1415526.92145                  23155912.9594
       296.0004          7.0004
  23060953.1124  -10357011.70049  -8070391.09645                  23060956.2694
       338.0004          9.0004
  22707457.7204   -6279431.30749  -4893060.53646                  22707458.8404
       367.0004         16.0004
 05  6 24 17 25 30.0000000  0  8G14G22G15G 3G18G 9G 1G19
  20697158.9494   -6780502.24749  -5283504.79247                  20697160.3424
       684.0004         54.0004
  20846983.5344   -2118033.91849  -1650413.73947                  20846982.6954
       827.0004         60.0004
  20166034.7804   -3657577.84049  -2850059.50147                  20166037.0884
       897.0004         70.0004
  22082571.7194   -7493964.59549  -5839451.75946                  22082574.7444
       508.0004         21.0004
  22030111.9274    7872083.09649   6134090.38946                  22030112.9844
       536.0004         19.0004
  23157640.6724   -1807498.52848  -1408437.59345                  23157641.8414
       296.0004          6.0004
  23042307.1564  -10454993.74949  -8146740.65245                  23042310.8404
       329.0004          9.0004
  22699297.5514   -6322314.88349  -4926476.30346                  22699298.1914
       377.0004         15.0004
 05  6 24 17 26  0.0000000  0  8G14G22G15G 3G18G 9G 1G19
  20687959.5684   -6828845.12049  -5321174.54447                  20687961.1164
       666.0004         54.0004
  20849980.4164   -2102285.35849  -1638142.13647                  20849979.5024
       827.0004         58.0004
  20170781.9174   -3632632.15049  -2830621.31147                  20170784.1674
       897.0004         70.0004
  22087150.9314   -7469901.56649  -5820701.36246                  22087153.9904
       522.0004         21.0004
  22040248.6024    7925351.55349   6175598.25846                  22040249.6544
       536.0004         19.0004
  23159487.5124   -1797793.55048  -1400875.26645                  23159490.4524
       296.0004          7.0004
  23023708.2294  -10552731.09149  -8222899.53745                  23023712.2934
       321.0004          9.0004
  22691235.4654   -6364681.24449  -4959489.04446                  22691236.5504
       377.0004         15.0004
 05  6 24 17 26 30.0000000  0  8G14G22G15G 3G18G 9G 1G19
  20678854.2544   -6876693.77749  -5358459.19347                  20678855.5984
       666.0004         54.0004
  20853009.0054   -2086369.45249  -1625740.13547                  20853008.2144
       827.0004         58.0004
  20175614.1114   -3607237.48249  -2810833.26647                  20175616.5374
       897.0004         68.0004
  22091825.7674   -7445334.32249  -5801558.08046                  22091829.1724
       508.0004         21.0004
  22050404.1024    7978717.91749   6217182.42746                  22050404.6474
       551.0004         19.0004
  23161449.4804   -1787482.77548  -1392840.89545                  23161452.6574
       280.0004          7.0004
  23005156.6744  -10650223.16649  -8298867.29745                  23005160.7014
       338.0004          9.0004
  22683271.9314   -6406530.65149  -4992098.96546                  22683272.7934
       377.0004         15.0004
 05  6 24 17 27  0.0000000  0  8G14G22G15G 3G18G 9G 1G19
  20669845.3234   -6924036.75349  -5395349.80847                  20669846.4614
       684.0004         54.0004
  20856071.4854   -2070275.72749  -1613199.57647                  20856070.8864
       827.0004         57.0004
  20180534.3164   -3581382.43749  -2790686.48247                  20180536.6024
       897.0004         70.0004
  22096598.4584   -7420253.56749  -5782014.65446                  22096602.1124
       508.0004         21.0004
  22060580.1514    8032192.57149   6258850.97346                  22060580.7754
       566.0004         19.0004
  23163528.8424   -1776555.05148  -1384325.77945                  23163532.7304
       272.0004          7.0004
  22986653.1094  -10747457.22049  -8374634.00845                  22986656.2594
       329.0004          9.0004
  22675409.2724   -6447850.95049  -5024296.59246                  22675409.9364
       387.0004         16.0004
 05  6 24 17 27 30.0000000  0  8G14G22G15G 3G18G 9G 1G19
  20660931.7674   -6970878.23849  -5431849.64947                  20660932.9324
       684.0004         55.0004
  20859166.8364   -2054009.70749  -1600524.76147                  20859166.2374
       827.0004         58.0004
  20185541.1254   -3555071.14249  -2770184.18547                  20185543.4724
       897.0004         68.0004
  22101468.0544   -7394665.38549  -5762075.82746                  22101470.9014
       522.0004         21.0004
  22070775.6034    8085770.19049   6300599.74846                  22070776.1774
       551.0004         20.0004
  23165725.0154   -1765014.82548  -1375333.38245                  23165727.6864
       265.0004          6.0004
  22968197.6224  -10844435.99548  -8450201.78645                  22968202.8944
       296.0004          9.0004
  22667646.4284   -6488645.48749  -5056084.54046                  22667647.0444
       398.0004         17.0004
 05  6 24 17 28  0.0000000  0  8G14G22G15G 3G18G 9G 1G19
  20652114.6704   -7017211.09349  -5467953.15547                  20652115.9584
       666.0004         54.0004
  20862296.1644   -2037565.64549  -1587711.21347                  20862295.4034
       827.0004         60.0004
  20190636.0244   -3528297.04849  -2749321.26647                  20190638.3144
       873.0004         67.0004
  22106434.8194   -7368564.91349  -5741737.81146                  22106438.0174
       522.0004         21.0004
  22080991.8384    8139456.90449   6342433.53746                  22080992.3074
       551.0004         19.0004
  23168038.3264   -1752855.43448  -1365858.52445                  23168041.0434
       251.0004          6.0004
  22949793.1694  -10941151.29048  -8525564.26245                  22949799.0864
       296.0004          9.0004
  22659985.0574   -6528906.67149  -5087456.88346                  22659985.5384
       398.0004         17.0004
 05  6 24 17 28 30.0000000  0  8G14G22G15G 3G18G 9G 1G19
  20643392.0474   -7063049.53349  -5503671.40547                  20643393.2864
       666.0004         55.0004
  20865456.2124   -2020959.52949  -1574771.39047                  20865455.4394
       827.0004         58.0004
  20195816.3694   -3501074.85149  -2728109.17947                  20195818.4944
       873.0004         67.0004
  22111496.0304   -7341968.83049  -5721013.61246                  22111499.3624
       522.0004         20.0004
  22091226.0084    8193237.16049   6384340.21846                  22091226.5324
       551.0004         19.0004
  23170467.3984   -1740091.78248  -1355912.82645                  23170470.5094
       251.0004          7.0004
  22931436.6624  -11037616.33548  -8600731.73645                  22931440.7454
       296.0004          9.0004
  22652422.7334   -6568648.63249  -5118424.64446                  22652422.3744
       409.0004         17.0004
 05  6 24 17 29  0.0000000  0  8G14G22G15G 3G18G 9G 1G19
  20634763.1654   -7108395.46849  -5539005.88647                  20634764.3564
       684.0004         57.0004
  20868646.6274   -2004193.83249  -1561707.21147                  20868645.7554
       827.0004         60.0004
  20201081.3984   -3473406.67949  -2706549.57947                  20201083.7314
       873.0004         67.0004
  22116650.5484   -7314881.22049  -5699906.40146                  22116653.4484
       522.0004         21.0004
  22101477.1854    8247107.97049   6426317.45946                  22101477.8614
       551.0004         19.0004
  23173010.7744   -1726726.13648  -1345498.02445                  23173013.5244
       251.0004          7.0004
  22913127.3364  -11133831.71748  -8675704.66245                  22913131.9834
       304.0004          9.0004
  22644958.6934   -6607872.54549  -5148988.73046                  22644958.6494
       420.0004         17.0004
 05  6 24 17 29 30.0000000  0  8G14G22G15G 3G18G 9G 1G19
  20626231.3864   -7153228.66449  -5573940.83547                  20626232.5674
       684.0004         57.0004
  20871870.9654   -1987250.01349  -1548504.23447                  20871870.0674
       827.0004         58.0004
  20206435.1124   -3445272.30649  -2684626.70147                  20206437.2944
       873.0004         67.0004
  22121901.6474   -7287284.09749  -5678402.17246                  22121904.7954
       508.0004         20.0004
  22111749.2844    8301088.89549   6468380.50346                  22111750.1904
       536.0004         19.0004
  23175672.7264   -1712738.79148  -1334598.79445                  23175675.0084
       265.0004          6.0004
  22894870.1814  -11229775.98448  -8750466.32345                  22894873.8704
       312.0004          9.0004
  22637596.8984   -6646557.69749  -5179133.00546                  22637597.1524
       409.0004         17.0004
 05  6 24 17 30  0.0000000  0  8G14G22G15G 3G18G 9G 1G19
  20617800.0224   -7197535.31049  -5608465.48347                  20617801.4444
       684.0004         57.0004
  20875131.5984   -1970115.57649  -1535152.72547                  20875130.6964
       827.0004         58.0004
  20211880.2044   -3416658.35449  -2662330.12047                  20211882.4864
       873.0004         65.0004
  22127253.1314   -7259165.89949  -5656491.90446                  22127256.2894
       536.0004         21.0004
  22122044.9284    8355192.30349   6510538.98446                  22122045.3024
       536.0004         19.0004
  23178455.2574   -1698116.65448  -1323204.90545                  23178456.9564
       265.0004          6.0004
  22876668.3284  -11325434.15049  -8825005.07046                  22876671.1504
       348.0004         10.0004
  22630340.1064   -6684689.91049  -5208846.41346                  22630340.5714
       398.0004         17.0004
 05  6 24 17 30 30.0000000  0  8G14G22G15G 3G18G 9G 1G19
  20609465.6644   -7241334.89049  -5642595.01547                  20609466.7654
       703.0004         58.0004
  20878424.5134   -1952810.91149  -1521668.57347                  20878423.4814
       827.0004         58.0004
  20217412.7024   -3387584.26249  -2639675.00047                  20217414.9804
       873.0004         65.0004
  22132698.3594   -7230548.12749  -5634192.36046                  22132701.7184
       508.0004         20.0004
  22132360.0064    8409397.94849   6552777.13646                  22132360.5684
       536.0004         18.0004
  23181355.1154   -1682879.58548  -1311331.87345                  23181358.2264
       272.0004          6.0004
  22858516.0244  -11420824.19549  -8899334.88946                  22858519.1364
       357.0004         10.0004
  22623185.4544   -6722287.68849  -5238143.38146                  22623185.7994
       398.0004         16.0004
 05  6 24 17 31  0.0000000  0  8G14G22G15G 3G18G 9G 1G19
  20601225.1734   -7284638.04749  -5676337.72347                  20601226.4644
       703.0004         58.0004
  20881747.6394   -1935347.89349  -1508061.02547                  20881746.6974
       827.0004         58.0004
  20223030.9214   -3358060.77249  -2616669.69647                  20223033.1094
       873.0004         65.0004
  22138236.6294   -7201443.62949  -5611513.55546                  22138239.8474
       494.0004         20.0004
  22142692.1014    8463694.32249   6595085.97946                  22142692.9464
       536.0004         18.0004
  23184368.8754   -1667038.94148  -1298988.48945                  23184374.7374
       265.0004          4.0004
  22840412.3444  -11515955.51949  -8973463.11946                  22840415.5364
       348.0004         10.0004
  22616130.2784   -6759361.39549  -5267031.98146                  22616130.6124
       387.0004         16.0004
 05  6 24 17 31 30.0000000  0  8G14G22G15G 3G18G 9G 1G19
  20593077.5524   -7327454.14849  -5709700.90847                  20593078.9244
       684.0004         60.0004
  20885098.8124   -1917736.96249  -1494338.22147                  20885097.8994
       827.0004         58.0004
  20228732.7094   -3328097.78149  -2593321.91747                  20228735.0534
       873.0004         65.0004
  22143865.7714   -7171863.98849  -5588464.50246                  22143868.8434
       508.0004         20.0004
  22153039.8284    8518071.01449   6637457.40846                  22153040.4034
       536.0004         18.0004
  23187496.4754   -1650604.35448  -1286182.38245                  23187501.1874
       272.0004          4.0004
  22822357.3284  -11610836.31849  -9047396.12446                  22822361.1914
       357.0004         11.0004
  22609173.6404   -6795919.88649  -5295519.10146                  22609174.3264
       398.0004         17.0004
 05  6 24 17 32  0.0000000  0  8G14G22G15G 3G18G 9G 1G19
  20585024.9964   -7369770.22049  -5742674.46147                  20585026.2454
       684.0004         60.0004
  20888480.4164   -1899966.31449  -1480490.96347                  20888479.5214
       827.0004         57.0004
  20234520.5514   -3297682.47649  -2569621.69347                  20234522.8674
       873.0004         67.0004
  22149586.8814   -7141798.36049  -5565036.75946                  22149590.0764
       508.0004         19.0004
  22163405.0624    8572540.13549   6679900.86246                  22163405.8674
       536.0004         18.0004
  23190739.6564   -1633563.24848  -1272903.68644                  23190746.0964
       288.0004          3.0004
  22804351.9154  -11705452.24449  -9121122.75146                  22804356.8104
       348.0004         11.0004
  22602317.7614   -6831949.79049  -5323594.34346                  22602318.2574
       420.0004         18.0004
 05  6 24 17 32 30.0000000  0  8G14G22G15G 3G18G 9G 1G19
  20577069.3354   -7411578.35749  -5775252.21847                  20577070.3034
       684.0004         60.0004
  20891893.6694   -1882029.19549  -1466513.98747                  20891892.7484
       827.0004         57.0004
  20240396.0594   -3266807.20349  -2545563.05047                  20240398.2654
       897.0004         67.0004
  22155402.0814   -7111241.01949  -5541225.87246                  22155405.1764
       508.0004         20.0004
  22173789.1574    8627108.53449   6722421.67446                  22173789.7394
       536.0004         19.0004
  23194099.3164   -1615908.52148  -1259147.59546                  23194098.2374
       280.0004         12.0004
  22786398.5574  -11799794.03949  -9194635.77146                  22786402.8354
       329.0004         11.0004
  22595563.9864   -6867442.42349  -5351250.93246                  22595564.2974
       432.0004         18.0004
 05  6 24 17 33  0.0000000  0  8G14G22G15G 3G18G 9G 1G19
  20569207.8784   -7452890.56849  -5807443.53947                  20569208.8844
       684.0004         60.0004
  20895336.2644   -1863938.59349  -1452417.42047                  20895335.3254
       827.0004         57.0004
  20246356.4734   -3235484.31549  -2521155.61447                  20246358.7464
       873.0004         67.0004
  22161307.3684   -7080206.32249  -5517043.00946                  22161311.4644
       494.0004         20.0004
  22184189.4814    8681763.40749   6765009.86646                  22184190.1274
       536.0004         18.0004
  23197572.2584   -1597652.91048  -1244919.50745                  23197568.9604
       251.0004          5.0004
  22768495.5704  -11893872.45549  -9267943.55746                  22768500.4804
       329.0004         11.0004
  22588910.0604   -6902409.48249  -5378497.98946                  22588910.0614
       432.0004         19.0004
 05  6 24 17 33 30.0000000  0  8G14G22G15G 3G18G 9G 1G19
  20561439.5624   -7493712.19549  -5839252.58947                  20561440.8294
       684.0004         60.0004
  20898806.6904   -1845701.48449  -1438206.68347                  20898805.9564
       827.0004         57.0004
  20252401.2104   -3203719.54949  -2496403.85347                  20252403.4854
       897.0004         65.0004
  22167302.6004   -7048701.92149  -5492494.14246                  22167306.1554
       494.0004         19.0004
  22194605.1364    8736498.47249   6807660.54246                  22194605.8814
       522.0004         18.0004
  23201160.5164   -1578802.57048  -1230230.89044                  23201167.0044
       272.0004          3.0004
  22750643.0764  -11987691.64249  -9341049.35846                  22750648.2374
       348.0004         10.0004
  22582354.7914   -6936856.07949  -5405339.49046                  22582354.3884
       420.0004         18.0004
 05  6 24 17 34  0.0000000  0  8G14G22G15G 3G18G 9G 1G19
  20553771.6094   -7534007.83849  -5870651.78047                  20553772.6034
       684.0004         58.0004
  20902311.7884   -1827282.85049  -1423854.50247                  20902310.9114
       827.0004         57.0004
  20258536.7054   -3171477.17149  -2471279.92947                  20258538.9454
       897.0004         67.0004
  22173393.6074   -7016694.44549  -5467553.27946                  22173396.4074
       508.0004         19.0004
  22205042.9494    8791348.64349   6850400.91346                  22205043.6264
       522.0004         18.0004
  23204867.0424   -1559322.25448  -1215051.48745                  23204871.0414
       280.0004          5.0004
  22732846.3764  -12081214.58849  -9413924.32546                  22732850.6354
       357.0004         11.0004
  22575905.4034   -6970745.85149  -5431747.09946                  22575905.7874
       420.0004         18.0004
 05  6 24 17 34 30.0000000  0  8G14G22G15G 3G18G 9G 1G19
  20546200.4884   -7573793.58349  -5901653.64947                  20546201.7984
       666.0004         58.0004
  20905847.8634   -1808699.81549  -1409374.21447                  20905847.0094
       827.0004         57.0004
  20264760.0294   -3138773.58349  -2445796.62847                  20264762.3994
       897.0004         67.0004
  22179576.4014   -6984202.30049  -5442234.75046                  22179579.8984
       494.0004         20.0004
  22215499.1714    8846297.02549   6893217.81646                  22215500.1954
       522.0004         18.0004
  23208691.3684   -1539228.59948  -1199394.10645                  23208693.2364
       304.0004          6.0004
  22715102.5544  -12174456.06849  -9486579.97146                  22715106.7584
       348.0004         10.0004
  22569559.6454   -7004094.35849  -5457732.94846                  22569559.7074
       420.0004         18.0004
 05  6 24 17 35  0.0000000  0  8G14G22G15G 3G18G 9G 1G19
  20538725.4214   -7613076.65849  -5932263.82747                  20538726.5304
       684.0004         60.0004
  20909413.8584   -1789960.75049  -1394772.34647                  20909413.0364
       827.0004         55.0004
  20271069.6854   -3105616.17749  -2419959.70447                  20271071.9654
       897.0004         65.0004
  22185850.2294   -6951234.96149  -5416545.93546                  22185853.2124
       508.0004         19.0004
  22225972.8134    8901335.34949   6936104.79846                  22225973.2704
       522.0004         17.0004
  23212629.7504   -1518529.39348  -1183264.85745                  23212633.6554
       296.0004          7.0004
  22697411.9664  -12267422.02749  -9559020.91846                  22697415.9884
       357.0004         11.0004
  22563315.0964   -7036908.21449  -5483302.18546                  22563315.8024
       409.0004         18.0004
 05  6 24 17 35 30.0000000  0  8G14G22G15G 3G18G 9G 1G19
  20531350.2784   -7651833.50849  -5962463.95947                  20531351.4574
       684.0004         60.0004
  20913013.8424   -1771042.99349  -1380031.23647                  20913012.9284
       827.0004         57.0004
  20277470.1524   -3071981.74849  -2393751.07347                  20277472.6544
       873.0004         65.0004
  22192218.0254   -6917771.10649  -5390470.23146                  22192221.3284
       494.0004         19.0004
  22236467.4494    8956486.46249   6979079.67446                  22236468.1924
       508.0004         17.0004
  23216688.5894   -1497201.86248  -1166646.00145                  23216691.6984
       304.0004          7.0004
  22679778.6404  -12360087.69149  -9631227.86946                  22679782.2814
       377.0004         11.0004
  22557176.8894   -7069163.82549  -5508436.41446                  22557177.7764
       409.0004         18.0004
 05  6 24 17 36  0.0000000  0  8G14G22G15G 3G18G 9G 1G19
  20524070.0574   -7690090.62449  -5992274.68647                  20524071.0534
       684.0004         60.0004
  20916642.5904   -1751973.78249  -1365172.10947                  20916641.6454
       827.0004         57.0004
  20283956.2224   -3037896.79749  -2367191.38447                  20283958.4084
       873.0004         65.0004
  22198675.3704   -6883839.28649  -5364029.86346                  22198678.4334
       508.0004         19.0004
  22246978.9544    9011724.20149   7022122.04346                  22246979.7354
       508.0004         16.0004
  23220860.8704   -1475273.17648  -1149558.71545                  23220864.0354
       280.0004          7.0004
  22662197.7204  -12452477.95949  -9703220.23546                  22662200.9314
       387.0004         11.0004
  22551140.1794   -7100886.93349  -5533155.71746                  22551141.1814
       409.0004         18.0004
 05  6 24 17 36 30.0000000  0  8G14G22G15G 3G18G 9G 1G19
  20516886.7334   -7727839.22149  -6021689.16347                  20516887.6554
       684.0004         60.0004
  20920301.6074   -1732745.31549  -1350188.88547                  20920300.6314
       827.0004         57.0004
  20290529.7594   -3003352.88249  -2340274.06447                  20290531.9594
       873.0004         63.0004
  22205222.3014   -6849432.82949  -5337219.66146                  22205225.5004
       494.0004         19.0004
  22257508.4164    9067055.83249   7065237.58846                  22257508.8734
       508.0004         16.0004
  23225150.2824   -1452735.07248  -1131996.57845                  23225152.2064
       288.0004          7.0004
  22644671.4624  -12544582.66449  -9774990.08546                  22644674.4954
       420.0004         12.0004
  22545206.7754   -7132068.12649  -5557452.74746                  22545207.7814
       409.0004         19.0004
 05  6 24 17 37  0.0000000  0  7G 3G18G 1G14G22G15G19
  22211858.7214   -6814558.59649  -5310044.97046                  22211861.8914
       494.0004         18.0004
  22268054.3894    9122475.91049   7108422.04346                  22268054.8434
       508.0004         15.0004
  22627197.6584  -12636405.05249  -9846539.94846                  22627200.3594
       409.0004         12.0004
  20509799.2314   -7765084.01249  -6050711.06547                  20509800.2154
       684.0004         61.0004
  20923989.8104   -1713363.12749  -1335085.87447                  20923988.9924
       827.0004         55.0004
  20297189.6814   -2968354.82749  -2313002.86847                  20297192.0084
       873.0004         63.0004
  22539375.2314   -7162711.70449  -5581330.85346                  22539376.0024
       398.0004         18.0004
 05  6 24 17 37 30.0000000  0  7G14G22G15G 3G18G 1G19
  20502805.3104   -7801836.94349  -6079349.70247                  20502806.6414
       684.0004         61.0004
  20927705.0304   -1693839.87049  -1319872.94347                  20927704.2554
       827.0004         55.0004
  20303933.7814   -2932914.58749  -2285387.11247                  20303936.0614
       873.0004         63.0004
  22218581.6424   -6779230.82549  -5282516.84646                  22218584.4744
       508.0004         18.0004
  22278614.8814    9177972.10349   7151665.81746                  22278615.6634
       494.0004         16.0004
  22609775.2174  -12727955.61349  -9917877.99646                  22609778.4374
       387.0004         12.0004
  22533644.3664   -7192829.05149  -5604798.91046                  22533644.7894
       420.0004         19.0004
 05  6 24 17 38  0.0000000  0  8G14G22G15G 3G18G25G 1G19
  20495909.7834   -7838073.29849  -6107585.81147                  20495910.8774
       684.0004         61.0004
  20931451.3644   -1674152.20749  -1304531.90447                  20931450.7314
       805.0004         55.0004
  20310766.5264   -2897007.91349  -2257407.90147                  20310768.7754
       873.0004         61.0004
  22225394.8714   -6743427.16949  -5254617.92546                  22225397.9104
       494.0004         17.0004
  22289194.3744    9233568.29749   7194987.51246                  22289194.9174
       494.0004         16.0004
  25000459.5784         -1.15057
        97.0004          1.0004
  22592409.9934  -12819208.45549  -9988984.06046                  22592413.2024
       387.0004         12.0004
  22528018.3784   -7222395.29949  -5627837.54446                  22528018.9134
       432.0004         19.0004
 05  6 24 17 38 30.0000000  0  8G14G22G15G 3G18G25G 1G19
  20489110.9964   -7873801.33949  -6135425.82647                  20489112.0924
       684.0004         61.0004
  20935227.5784   -1654308.43449  -1289069.22347                  20935226.7904
       827.0004         55.0004
  20317686.4574   -2860642.77149  -2229071.44047                  20317688.8304
       873.0004         61.0004
  22232297.0714   -6707157.47749  -5226355.85946                  22232300.2634
       508.0004         19.0004
  22299791.6464    9289256.42549   7238380.83646                  22299792.8954
       494.0004         16.0004
  24981696.1244     -98594.35748
       108.0004          1.0004
  22575100.9034  -12910169.79549 -10059862.97846                  22575104.2764
       398.0004         12.0004
  22522495.6134   -7251417.62149  -5650452.33946                  22522496.0904
       432.0004         19.0004
 05  6 24 17 39  0.0000000  0  8G14G22G15G 3G18G25G 1G19
  20482409.6004   -7909017.39849  -6162866.89747                  20482410.7164
       684.0004         61.0004
  20939033.9834   -1634305.95549  -1273482.87747                  20939032.9584
       827.0004         55.0004
  20324694.6574   -2823816.05649  -2200375.31747                  20324696.7634
       873.0004         63.0004
  22239287.6514   -6670420.93349  -5197730.00246                  22239290.8334
       494.0004         16.0004
  22310406.7824    9345038.96749   7281847.73746                  22310407.2814
       494.0004         16.0004
  24962913.1324    -197311.73948
       115.0004          1.0004
  22557848.0874  -13000835.13749 -10130511.25846                  22557852.0994
       409.0004         13.0004
  22517076.9044   -7279892.31149  -5672640.39946                  22517077.9354
       432.0004         19.0004
 05  6 24 17 39 30.0000000  0  8G14G22G15G 3G18G25G 1G19
  20475807.8774   -7943708.72449  -6189899.08947                  20475809.0664
       666.0004         61.0004
  20942872.6264   -1614132.97249  -1257763.67247                  20942871.5074
       805.0004         54.0004
  20331792.7514   -2786515.08549  -2171309.64047                  20331794.7144
       897.0004         63.0004
  22246369.2684   -6633206.99849  -5168732.15546                  22246371.7684
       494.0004         18.0004
  22321042.0724    9400927.91249   7325397.54546                  22321042.7604
       494.0004         16.0004
  24944105.5044    -296138.48448
       128.0004          1.0004
  22540654.0564  -13091190.27549 -10200917.81446                  22540657.8204
       409.0004         14.0004
  22511765.1314   -7307806.13749  -5694391.41846                  22511765.4314
       444.0004         20.0004
 05  6 24 17 40  0.0000000  0  8G14G22G15G 3G18G25G 1G19
  20469304.1314   -7977887.04749  -6216531.53747                  20469305.2094
       666.0004         61.0004
  20946741.6664   -1593801.70149  -1241921.12347                  20946740.5244
       827.0004         54.0004
  20338978.9944   -2748751.65549  -2141883.60547                  20338981.0704
       897.0004         63.0004
  22253538.8584   -6595529.32849  -5139372.97646                  22253541.7074
       481.0004         16.0004
  22331695.2984    9456911.69249   7369021.25646                  22331696.1214
       481.0004         16.0004
  24925274.9224    -395084.05948
       146.0004          1.0004
  22523517.3874  -13181245.24949 -10271090.48246                  22523521.8134
       420.0004         14.0004
  22506558.1754   -7335170.06949  -5715713.97746                  22506558.6354
       444.0004         20.0004
 05  6 24 17 40 30.0000000  0  8G14G22G15G 3G18G25G 1G19
  20462902.3284   -8011527.71949  -6242745.03747                  20462903.4934
       666.0004         60.0004
  20950645.2414   -1573288.28849  -1225936.64647                  20950644.3524
       827.0004         54.0004
  20346257.7724   -2710501.38549  -2112078.21547                  20346259.9034
       897.0004         63.0004
  22260801.3304   -6557365.32549  -5109634.81246                  22260804.4454
       494.0004         17.0004
  22342371.6004    9513014.29549   7412737.55646                  22342372.6414
       494.0004         16.0004
  24906427.4534    -494121.64448   -385030.14644
       158.0004          1.0004
  22506442.6464  -13270974.03749 -10341008.97646                  22506446.7284
       420.0004         15.0004
  22501460.3034   -7361959.03249  -5736588.50146                  22501460.9454
       444.0004         20.0004
 05  6 24 17 41  0.0000000  0  8G14G22G15G 3G18G25G 1G19
  20456603.1154   -8044631.13549  -6268539.89547                  20456604.3334
       648.0004         60.0004
  20954583.1774   -1552593.65949  -1209810.96447                  20954582.2854
       784.0004         52.0004
  20353629.0574   -2671764.57549  -2081893.71347                  20353631.3734
       850.0004         61.0004
  22268155.5824   -6518717.51149  -5079519.66246                  22268158.7624
       468.0004         15.0004
  22353069.8254    9569234.54249   7456545.52046                  22353070.4254
       468.0004         15.0004
  24887563.2734    -593249.28748   -462272.46344
       167.0004          1.0004
  22489430.3074  -13360375.33549 -10410672.28546                  22489434.1224
       409.0004         14.0004
  22496471.6974   -7388173.19749  -5757015.12746                  22496472.9114
       420.0004         19.0004
 05  6 24 17 41 30.0000000  0  8G14G22G15G 3G18G25G 1G19
  20450394.7414   -8077256.80549  -6293962.48847                  20450395.9424
       666.0004         61.0004
  20958544.4824   -1531777.86649  -1193590.87047                  20958543.5214
       827.0004         54.0004
  20361081.6794   -2632600.88749  -2051376.57647                  20361084.1674
       873.0004         61.0004
  22275590.4894   -6479647.72849  -5049075.69146                  22275593.6174
       494.0004         16.0004
  22363779.2124    9625512.94149   7500398.80446                  22363779.4894
       481.0004         15.0004
  24868671.2504    -692524.19448   -539629.56044                  24868674.7594
       154.0004          2.0004
  22472469.0874  -13449507.27249 -10480125.71246                  22472472.5544
       432.0004         14.0004
  22491581.4734   -7413871.27749  -5777039.61046                  22491582.4494
       420.0004         20.0004
 05  6 24 17 42  0.0000000  0  8G14G22G15G 3G18G25G 1G19
  20444280.4984   -8109386.37949  -6318998.50947                  20444281.6644
       666.0004         61.0004
  20962532.0224   -1510823.11949  -1177262.50347                  20962531.1154
       827.0004         54.0004
  20368619.0844   -2592992.14349  -2020512.63947                  20368621.3484
       873.0004         61.0004
  22283108.5844   -6440139.64249  -5018290.18846                  22283111.8814
       481.0004         16.0004
  22374503.1294    9681867.38049   7544311.33946                  22374503.5374
       468.0004         15.0004
  24849754.3674    -791925.73648
       128.0004          1.0004
  22455562.2004  -13538350.01249 -10549353.78146                  22455565.5574
       420.0004         14.0004
  22486792.9634   -7439034.34249  -5796647.19146                  22486793.9494
       420.0004         19.0004
 05  6 24 17 42 30.0000000  0  8G14G22G15G 3G18G25G 1G19
  20438261.8274   -8141015.90049  -6343644.87947                  20438262.8894
       666.0004         61.0004
  20966546.5404   -1489726.07449  -1160823.24547                  20966545.7074
       805.0004         54.0004
  20376241.5864   -2552934.67049  -1989299.03947                  20376244.0164
       873.0004         61.0004
  22290710.2184   -6400191.43849  -4987161.74146                  22290713.5004
       468.0004         16.0004
  22385242.3194    9738301.79449   7588286.19546                  22385243.1544
       468.0004         15.0004
  24830815.0584    -891447.38548
       106.0004          1.0004
  22438711.8604  -13626898.01649 -10618352.18946                  22438715.0724
       409.0004         14.0004
  22482107.5974   -7463658.10249  -5815834.54346                  22482108.0754
       444.0004         20.0004
 05  6 24 17 43  0.0000000  0  8G14G22G15G 3G18G25G 1G19
  20432340.2204   -8172133.27049  -6367892.17147                  20432341.3734
       666.0004         61.0004
  20970590.4064   -1468475.39949  -1144264.27947                  20970589.6224
       805.0004         54.0004
  20383952.0534   -2512416.56649  -1957726.51147                  20383954.4424
       873.0004         61.0004
  22298398.2024   -6359793.32749  -4955682.71146                  22298401.1854
       494.0004         16.0004
  22395998.5714    9794827.38549   7632332.09446                  22395999.8724
       468.0004         14.0004
  24811857.1444    -991075.03247
        95.0004          1.0004
  22421920.9864  -13715137.81949 -10687110.45046                  22421924.0674
       420.0004         15.0004
  22477526.3594   -7487730.46749  -5834592.23746                  22477527.1124
       432.0004         20.0004
 05  6 24 17 43 30.0000000  0  8G14G22G15G 3G18G25G 1G19
  20426511.7764   -8202762.23649  -6391758.88547                  20426512.9034
       666.0004         63.0004
  20974658.9854   -1447095.30749  -1127604.47147                  20974658.2464
       827.0004         54.0004
  20391745.5344   -2471461.50949  -1925813.50347                  20391747.9464
       873.0004         60.0004
  22306166.3684   -6318971.28049  -4923873.34146                  22306169.4534
       481.0004         17.0004
  22406767.6384    9851420.27949   7676430.44046                  22406769.3424
       456.0004         14.0004
  24792873.0584   -1090830.06247
        95.0004          1.0004
  22405183.9124  -13803091.44649 -10755645.70046                  22405187.4774
       420.0004         14.0004
  22473045.7264   -7511274.23349  -5852938.03146                  22473047.4814
       409.0004         19.0004
 05  6 24 17 44  0.0000000  0  8G14G22G15G 3G18G25G 1G19
  20420776.8464   -8232899.66249  -6415242.58247                  20420777.9024
       666.0004         61.0004
  20978752.7654   -1425583.15449  -1110841.75647                  20978751.8474
       827.0004         54.0004
  20399622.6764   -2430066.75949  -1893557.87747                  20399625.0214
       873.0004         60.0004
  22314015.5784   -6277724.39149  -4891732.93346                  22314018.3584
       494.0004         18.0004
  22417550.6014    9908083.44349   7720583.53846                  22417551.8004
       468.0004         15.0004
  24773863.6444   -1190707.25647
        85.0004          1.0004
  22388502.1084  -13890754.32449 -10823954.40546                  22388505.6904
       420.0004         15.0004
  22468666.8744   -7534286.04749  -5870869.31346                  22468668.5784
       420.0004         20.0004
 05  6 24 17 44 30.0000000  0  7G 3G14G22G15G18G 1G19
  22321972.1444   -6235912.60749  -4859152.35546                  22321974.8864
       494.0004         16.0004
  20415162.5934   -8262403.49049  -6438232.56647                  20415163.6664
       684.0004         63.0004
  20982898.3324   -1403797.27249  -1093865.74947                  20982897.6984
       805.0004         54.0004
  20407610.7074   -2388090.09249  -1860848.80347                  20407612.9564
       873.0004         58.0004
  22428373.8764    9964958.91349   7764902.06546                  22428374.7524
       481.0004         15.0004
  22371903.1324  -13977982.69449 -10891924.52046                  22371906.2114
       432.0004         15.0004
  22464416.4084   -7556623.34849  -5888275.01046                  22464417.2314
       432.0004         20.0004
 05  6 24 17 45  0.0000000  0  7G22G14G15G 3G18G 1G19
  20987079.9354   -1381823.88649  -1076743.63947                  20987079.3374
       827.0004         54.0004
  20409652.1674   -8291360.05149  -6460796.11047                  20409653.2894
       666.0004         63.0004
  20415692.8784   -2345617.51949  -1827753.30847                  20415695.2614
       850.0004         58.0004
  22330018.8804   -6193624.22449  -4826200.39646                  22330021.9184
       468.0004         17.0004
  22439220.8414   10021959.98049   7809318.46346                  22439221.8074
       481.0004         14.0004
  22355370.8764  -14064861.08849 -10959621.93946                  22355373.9474
       444.0004         16.0004
  22460278.0024   -7578371.44049  -5905221.57746                  22460279.3764
       432.0004         20.0004
 05  6 24 17 45 30.0000000  0  8G22G14G15G 3G18G25G 1G19
  20991277.1134   -1359766.85549  -1059556.35147                  20991276.1984
       827.0004         54.0004
  20404226.5724   -8319872.22149  -6483013.37947                  20404227.4704
       666.0004         63.0004
  20423849.8174   -2302752.54149  -1794352.03747                  20423852.2284
       850.0004         58.0004
  22338136.8424   -6150964.38049  -4792958.98946                  22338139.6604
       468.0004         17.0004
  22450071.9944   10078983.31549   7853752.21946                  22450072.9864
       468.0004         15.0004
  24716806.6824         -1.02858
       131.0004          1.0004
  22338885.8984  -14151491.19449 -11027125.86746                  22338888.9864
       456.0004         16.0004
  22456232.3744   -7599633.36849  -5921789.31546                  22456233.4324
       444.0004         21.0004
 05  6 24 17 46  0.0000000  0  8G22G14G15G 3G18G25G 1G19
  20995500.2524   -1337574.26249  -1042263.42547                  20995499.4994
       827.0004         54.0004
  20398895.2414   -8347887.78649  -6504843.68047                  20398896.2914
       666.0004         61.0004
  20432091.3434   -2259442.99449  -1760604.35547                  20432093.7444
       850.0004         58.0004
  22346334.8704   -6107882.90949  -4759389.04246                  22346338.1904
       456.0004         16.0004
  22460937.3934   10136081.35049   7898244.17246                  22460937.8084
       468.0004         14.0004
  24697743.0434    -100184.91148    -78065.72644
       150.0004          1.0004
  22322457.7464  -14237819.04749 -11094394.28346                  22322461.0874
       456.0004         16.0004
  22452289.1864   -7620356.19549  -5937936.98146                  22452290.0774
       456.0004         22.0004
 05  6 24 17 46 30.0000000  0  8G22G14G15G 3G18G25G 1G19
  20999751.4844   -1315233.05049  -1024854.69147                  20999750.6764
       805.0004         54.0004
  20393661.0244   -8375393.21049  -6526276.46847                  20393662.2594
       648.0004         61.0004
  20440420.1814   -2215675.56649  -1726499.88447                  20440422.6954
       850.0004         58.0004
  22354615.4404   -6064368.52349  -4725481.76146                  22354618.7144
       456.0004         17.0004
  22471819.6064   10193267.47749   7942804.77646                  22471820.5634
       468.0004         15.0004
  24678662.4824    -200459.59648
       158.0004          1.0004
  22306089.4714  -14323829.65649 -11161415.49546                  22306093.8594
       432.0004         16.0004
  22448450.8114   -7640526.11349  -5953653.80346                  22448451.7734
       456.0004         22.0004
 05  6 24 17 47  0.0000000  0  8G22G14G15G 3G18G25G 1G19
  21004032.6084   -1292735.84949  -1007324.40747                  21004031.9064
       805.0004         54.0004
  20388525.5294   -8402381.01349  -6547305.91747                  20388526.6924
       648.0004         61.0004
  20448837.3674   -2171442.45749  -1692032.55047                  20448839.8934
       850.0004         58.0004
  22362979.7334   -6020415.70049  -4691232.83646                  22362982.5024
       468.0004         17.0004
  22482719.7364   10250548.42549   7987439.26246                  22482720.9034
       456.0004         14.0004
  24659565.3634    -300815.06648   -234400.74444
       135.0004          1.0004
  22289784.2514  -14409513.83449 -11228182.35146                  22289788.0644
       432.0004         17.0004
  22444719.3454   -7660134.99449  -5968933.45646                  22444720.2074
       456.0004         21.0004
 05  6 24 17 47 30.0000000  0  8G22G14G15G 3G18G25G 1G19
  21008340.5224   -1270097.45149   -989684.10247                  21008339.5524
       805.0004         54.0004
  20383485.8194   -8428865.43149  -6567943.11647                  20383486.8714
       648.0004         61.0004
  20457340.3754   -2126758.56449  -1657213.95347                  20457342.9654
       850.0004         57.0004
  22371423.8044   -5976041.21449  -4656655.34946                  22371427.0534
       456.0004         16.0004
  22493634.9944   10307910.42549   8032136.90646                  22493636.4954
       444.0004         13.0004
  24640450.1034    -401263.45648   -312672.05944
       118.0004          1.0004
  22273539.7774  -14494884.47549 -11294704.88846                  22273543.1784
       481.0004         18.0004
  22441092.2844   -7679196.92649  -5983786.90946                  22441093.3184
       456.0004         22.0004
 05  6 24 17 48  0.0000000  0  8G22G14G15G 3G18G25G 1G19
  21012680.9754   -1247288.73349   -971911.07947                  21012680.1274
       805.0004         52.0004
  20378547.3314   -8454817.22449  -6588165.28347                  20378548.5684
       648.0004         61.0004
  20465935.0134   -2081594.46949  -1622021.17347                  20465937.4144
       850.0004         58.0004
  22379953.2354   -5931217.61749  -4621727.90946                  22379956.7604
       456.0004         16.0004
  22504571.7224   10365382.45549   8076920.28346                  22504572.6344
       444.0004         13.0004
  24621324.0464    -501772.51048   -390990.73144
       128.0004          1.0004
  22257360.2804  -14579910.35649 -11360958.77546                  22257363.3504
       494.0004         18.0004
  22437574.6844   -7697682.00949  -5998190.88246                  22437575.0444
       468.0004         21.0004
 05  6 24 17 48 30.0000000  0  8G22G14G15G 3G18G25G 1G19
  21017049.8064   -1224330.50749   -954021.56247                  21017048.9864
       827.0004         54.0004
  20373706.4664   -8480257.06749  -6607988.52947                  20373707.5034
       666.0004         63.0004
  20474616.8484   -2035970.65949  -1586470.18147                  20474619.3584
       850.0004         57.0004
  22388564.4114   -5885967.45949  -4586468.07546                  22388567.4814
       456.0004         16.0004
  22515525.5374   10422944.29749   8121773.64946                  22515526.8814
       444.0004         13.0004
  24602183.3394    -602359.94648   -469370.44344                  24602188.1324
       146.0004          1.0004
  22241241.6304  -14664610.58049 -11426958.91146                  22241245.0294
       481.0004         18.0004
  22434162.9354   -7715610.44849  -6012161.10246                  22434163.3404
       468.0004         22.0004
 05  6 24 17 49  0.0000000  0  8G22G14G15G 3G18G25G 1G19
  21021444.9984   -1201234.31149   -936024.53647                  21021444.0974
       827.0004         54.0004
  20368960.6474   -8505196.26349  -6627421.66047                  20368961.4394
       666.0004         63.0004
  20483384.2614   -1989898.70349  -1550569.97547                  20483386.7024
       850.0004         57.0004
  22397253.4314   -5840304.42049  -4550886.52646                  22397256.5284
       456.0004         16.0004
  22526494.0304   10480584.20249   8166687.83746                  22526495.2884
       444.0004         13.0004
  24583025.3914    -703034.26848   -547817.85444
       158.0004          1.0004
  22225183.2284  -14748994.79549 -11492712.80046                  22225187.0974
       456.0004         18.0004
  22430854.8804   -7732993.30749  -6025706.19946                  22430855.2754
       456.0004         21.0004
 05  6 24 17 49 30.0000000  0  8G22G14G15G 3G18G25G 1G19
  21025869.8114   -1177982.09949   -917905.93647                  21025869.0864
       827.0004         54.0004
  20364313.7384   -8529616.21949  -6646450.18847                  20364314.5124
       666.0004         63.0004
  20492240.1564   -1943360.13549  -1514306.16347                  20492242.5404
       850.0004         57.0004
  22406024.9274   -5794212.19749  -4514970.53246                  22406028.4964
       456.0004         16.0004
  22537481.1464   10538320.59749   8211677.21546                  22537482.0374
       444.0004         13.0004
  24563855.3254    -803774.82748   -626316.93744                  24563860.6354
       172.0004          2.0004
  22209189.8724  -14833042.92449 -11558204.80446                  22209193.3574
       481.0004         18.0004
  22427654.3524   -7749811.69549  -6038811.45146                  22427655.0634
       444.0004         21.0004
 05  6 24 17 50  0.0000000  0  8G22G14G15G 3G18G25G 1G19
  21030323.8314   -1154576.10349   -899667.50547                  21030322.8284
       827.0004         54.0004
  20359765.0134   -8553519.45649  -6665076.07847                  20359766.0614
       666.0004         65.0004
  20501184.4594   -1896357.48149  -1477680.73047                  20501186.8404
       850.0004         55.0004
  22414876.4454   -5747695.08049  -4478723.46746                  22414879.6884
       444.0004         16.0004
  22548485.9824   10596151.24149   8256740.02246                  22548486.8354
       444.0004         13.0004
  24544672.7364    -904581.23448   -704867.34344
       181.0004          1.0004
  22193260.4454  -14916755.62649 -11623435.43946                  22193263.8364
       494.0004         18.0004
  22424561.0814   -7766067.44549  -6051478.27246                  22424562.0084
       444.0004         21.0004
 05  6 24 17 50 30.0000000  0  8G22G14G15G 3G18G25G 1G19
  21034803.2784   -1131035.87449   -881324.47847                  21034802.4544
       827.0004         52.0004
  20355311.0414   -8576925.30049  -6683314.38947                  20355311.9194
       666.0004         65.0004
  20510213.4604   -1848910.04849  -1440708.71847                  20510215.7804
       827.0004         54.0004
  22423805.2194   -5700774.39849  -4442161.93946                  22423808.6444
       444.0004         15.0004
  22559505.2004   10654057.67649   8301861.88946                  22559505.8804
       444.0004         13.0004
  24525474.6934   -1005470.03648   -783481.92044                  24525480.1514
       177.0004          2.0004
  22177390.3484  -15000150.45049 -11688418.37946                  22177393.6924
       481.0004         18.0004
  22421571.0634   -7781779.46149  -6063721.41446                  22421571.9184
       444.0004         21.0004
 05  6 24 17 51  0.0000000  0  8G22G14G15G 3G18G25G 1G19
  21039314.1574   -1107330.97049   -862853.13247                  21039313.4044
       805.0004         52.0004
  20350957.5644   -8599803.29749  -6701141.38847                  20350958.3174
       666.0004         65.0004
  20519332.6734   -1800987.56849  -1403366.54847                  20519335.1824
       827.0004         54.0004
  22432816.7154   -5653422.00549  -4405264.00446                  22432820.0574
       468.0004         16.0004
  22570544.5694   10712069.69049   8347066.03146                  22570545.7554
       444.0004         13.0004
  24506267.9524   -1106407.64148   -862134.53244                  24506270.7384
       163.0004          2.0004
  22161586.5424  -15083195.27349 -11753128.58746                  22161590.5424
       444.0004         18.0004
  22418690.7144   -7796916.58149  -6075516.57646                  22418691.1814
       456.0004         21.0004
 05  6 24 17 51 30.0000000  0  8G22G14G15G 3G18G25G 1G19
  21043858.1444   -1083452.22949   -844246.32747                  21043857.3254
       805.0004         51.0004
  20346706.1474   -8622143.53549  -6718549.35447                  20346707.0294
       666.0004         65.0004
  20528544.3054   -1752580.42149  -1365646.71547                  20528546.7374
       827.0004         54.0004
  22441910.5354   -5605630.27349  -4368023.72846                  22441914.2284
       444.0004         16.0004
  22581605.6954   10770196.94249   8392359.97046                  22581606.4974
       444.0004         12.0004
  24487052.9134   -1207381.83348   -940815.58844                  24487062.3454
       150.0004          2.0004
  22145852.7234  -15165878.88149 -11817557.33046                  22145856.3894
       456.0004         18.0004
  22415921.6084   -7811469.23549  -6086856.31746                  22415922.4624
       456.0004         22.0004
 05  6 24 17 52  0.0000000  0  8G14G22G15G 3G18G25G 1G19
  20342549.4394   -8643987.39449  -6735570.53247                  20342550.4664
       648.0004         65.0004
  21048427.2304   -1059440.61849   -825535.98847                  21048426.4574
       805.0004         51.0004
  20537840.1264   -1703729.69049  -1327581.22847                  20537842.6574
       805.0004         54.0004
  22451080.6364   -5557442.06549  -4330474.51146                  22451084.6264
       444.0004         16.0004
  22592681.2304   10828398.55249   8437711.85046                  22592682.3914
       444.0004         13.0004
  24467823.2354   -1308430.98848  -1019555.11044                  24467827.5624
       138.0004          2.0004
  22130180.7774  -15248240.80249 -11881735.39746                  22130184.4424
       494.0004         18.0004
  22413255.6824   -7825477.95749  -6097772.21746                  22413256.7444
       456.0004         21.0004
 05  6 24 17 52 30.0000000  0  8G14G22G15G 3G18G25G 1G19
  20338487.7704   -8665331.60349  -6752202.37447                  20338488.6794
       648.0004         65.0004
  21053022.4514   -1035292.95249   -806719.63047                  21053021.7164
       805.0004         51.0004
  20547221.2834   -1654432.10149  -1289167.54947                  20547223.9594
       805.0004         52.0004
  22460325.8424   -5508856.45349  -4292615.63446                  22460329.7784
       432.0004         15.0004
  22603771.4904   10886677.74349   8483124.18746                  22603773.0284
       444.0004         13.0004
  24448580.0274   -1409548.75848  -1098348.09944                  24448584.8174
       131.0004          2.0004
  22114569.4044  -15330275.93849 -11945658.84446                  22114572.6654
       481.0004         18.0004
  22410693.8194   -7838938.94449  -6108261.30646                  22410694.7744
       444.0004         21.0004
 05  6 24 17 53  0.0000000  0  8G14G22G15G 3G18G25G 1G19
  20334521.3604   -8686175.59749  -6768444.43747                  20334522.2844
       666.0004         65.0004
  21057643.6064   -1011008.46349   -787796.65847                  21057642.8194
       805.0004         51.0004
  20556687.4644   -1604687.32349  -1250405.40747                  20556690.0284
       827.0004         52.0004
  22469647.3544   -5459874.91649  -4254448.23746                  22469650.7114
       456.0004         16.0004
  22614876.5784   10945035.58749   8528597.80346                  22614877.9634
       432.0004         12.0004
  24429325.3384   -1510731.75148  -1177191.87844                  24429333.7774
       142.0004          2.0004
  22099020.6414  -15411982.12149 -12009325.95346                  22099024.3934
       456.0004         18.0004
  22408236.5684   -7851851.70149  -6118323.20446                  22408237.3644
       444.0004         21.0004
 05  6 24 17 53 30.0000000  0  8G14G22G15G 3G18G25G 1G19
  20330654.1234   -8706496.65949  -6784279.02147                  20330655.1974
       648.0004         63.0004
  21062295.1344    -986564.80549   -768749.65747                  21062294.3434
       805.0004         51.0004
  20566242.9474   -1554472.69149  -1211277.14347                  20566245.6064
       805.0004         52.0004
  22479047.4454   -5410476.69849  -4215956.16846                  22479050.7384
       456.0004         16.0004
  22626000.6304   11003495.17849   8574150.70746                  22626002.4264
       409.0004         11.0004
  24410062.7134   -1611954.31448  -1256066.51444                  24410068.6604
       158.0004          2.0004
  22083539.8644  -15493335.02249 -12072717.78146                  22083542.9684
       456.0004         17.0004
  22405888.4034   -7864193.00449  -6127939.81646                  22405889.6704
       456.0004         22.0004
 05  6 24 17 54  0.0000000  0  8G14G22G15G 3G18G25G 1G19
  20326888.5504   -8726285.99649  -6799699.27547                  20326889.4204
       666.0004         65.0004
  21066978.7144    -961952.84949   -749571.51447                  21066977.9014
       805.0004         51.0004
  20575889.6784   -1503779.40349  -1171775.90347                  20575892.0594
       827.0004         52.0004
  22488527.7194   -5360655.26249  -4177134.31246                  22488531.4024
       432.0004         15.0004
  22637146.6674   11062065.32549   8619789.75246                  22637147.8794
       420.0004         13.0004
  24390794.9364   -1713204.72048  -1334962.89044                  24390803.3754
       167.0004          3.0004
  22068128.6804  -15574323.94449 -12135825.98646                  22068131.8864
       481.0004         18.0004
  22403650.4644   -7875953.37549  -6137103.75046                  22403650.9874
       456.0004         21.0004
 05  6 24 17 54 30.0000000  0  8G14G22G15G 3G18G25G 1G19
  20323219.3614   -8745567.59049  -6814723.88447                  20323220.1234
       666.0004         65.0004
  21071689.7244    -937196.38149   -730280.76547                  21071688.9884
       805.0004         51.0004
  20585622.8404   -1452631.61049  -1131920.50547                  20585625.0834
       805.0004         49.0004
  22498084.5444   -5310436.52349  -4138002.86546                  22498088.0834
       444.0004         15.0004
  22648308.8604   11120722.22249   8665496.39846                  22648310.1324
       432.0004         13.0004
  24371518.3964   -1814504.24648  -1413897.49444                  24371525.6144
       172.0004          2.0004
  22052781.7904  -15654971.23649 -12198667.99246                  22052785.3874
       481.0004         19.0004
  22401518.5794   -7887156.71149  -6145833.62946                  22401519.3324
       456.0004         22.0004
 05  6 24 17 55  0.0000000  0  8G14G22G15G 3G18G25G 1G19
  20319651.4154   -8764316.81149  -6829333.65747                  20319652.1494
       648.0004         65.0004
  21076432.9244    -912271.24949   -710858.58847                  21076432.1574
       827.0004         52.0004
  20595447.0624   -1401004.72649  -1091691.78947                  20595449.4924
       805.0004         49.0004
  22507720.8004   -5259797.91949  -4098544.25946                  22507724.5834
       444.0004         15.0004
  22659492.1014   11179490.56649   8711289.88446                  22659493.1464
       432.0004         13.0004
  24352238.0524   -1915825.32048  -1492848.86544                  24352243.0994
       186.0004          3.0004
  22037504.4514  -15735250.46949 -12261223.19346                  22037508.2384
       468.0004         20.0004
  22399497.5504   -7897777.76349  -6154109.78646                  22399498.2344
       456.0004         22.0004
 05  6 24 17 55 30.0000000  0  8G14G22G15G 3G18G25G 1G19
  20316185.6284   -8782530.71649  -6843526.30047                  20316186.2534
       666.0004         65.0004
  21081208.8154    -887174.13449   -691302.39847                  21081207.9464
       827.0004         52.0004
  20605363.1644   -1348895.81349  -1051087.46347                  20605365.4794
       827.0004         51.0004
  22517437.0264   -5208738.45549  -4058757.69846                  22517440.2284
       444.0004         16.0004
  22670696.8474   11238374.12749   8757173.15746                  22670698.3224
       409.0004         12.0004
  24332954.1694   -2017161.73648  -1571812.21944                  24332958.7934
       186.0004          3.0004
  22022298.8364  -15815156.95149 -12323487.94046                  22022303.1034
       481.0004         20.0004
  22397587.7514   -7907813.63049  -6161929.95146                  22397588.3854
       456.0004         21.0004
 05  6 24 17 56  0.0000000  0  8G14G22G15G 3G18G25G 1G19
  20312808.2754   -8800278.23549  -6857355.52547                  20312808.9294
       666.0004         65.0004
  21086004.2794    -861973.74049   -671665.73147                  21086003.3174
       827.0004         51.0004
  20615357.7234   -1296373.79449  -1010161.22347                  20615360.5114
       805.0004         51.0004
  22527220.1264   -5157329.06049  -4018698.46246                  22527223.3434
       444.0004         15.0004
  22681910.9494   11297304.15049   8803092.62646                  22681911.7834
       409.0004         12.0004
  24313655.1234   -2118579.31248  -1650838.79944                  24313664.0594
       181.0004          3.0004
  22007152.2364  -15894757.72449 -12385514.47146                  22007155.4094
       508.0004         20.0004
  22395776.2184   -7917332.38449  -6169347.17146                  22395777.3064
       456.0004         22.0004
 05  6 24 17 56 30.0000000  0  8G14G22G15G 3G18G25G 1G19
  20309523.6404   -8817538.77549  -6870805.29247                  20309524.4344
       648.0004         65.0004
  21090823.3254    -836649.14349   -651932.28347                  21090822.3544
       805.0004         49.0004
  20625435.0344   -1243417.90449   -968896.91347                  20625437.5014
       827.0004         51.0004
  22537073.3924   -5105551.08749  -3978352.02746                  22537076.6154
       456.0004         16.0004
  22693138.0864   11356301.51449   8849064.57546                  22693139.4324
       420.0004         12.0004
  24294345.3094   -2220054.30748  -1729910.08944                  24294352.1474
       181.0004          2.0004
  21992067.0344  -15974030.41749 -12447285.36046                  21992070.3144
       522.0004         21.0004
  22394067.7894   -7926313.15349  -6176345.19646                  22394068.2724
       468.0004         22.0004
 05  6 24 17 57  0.0000000  0  8G14G22G15G 3G18G25G 1G19
  20306334.4234   -8834298.22949  -6883864.60247                  20306335.4324
       648.0004         65.0004
  21095668.6224    -811186.08049   -632090.94047                  21095667.6404
       805.0004         49.0004
  20635597.2824   -1190014.31749   -927283.75447                  20635599.6494
       805.0004         49.0004
  22546999.2934   -5053392.35649  -3937708.89446                  22547002.3674
       481.0004         16.0004
  22704380.6264   11415380.94549   8895100.47746                  22704381.0104
       432.0004         12.0004
  24275027.4674   -2321569.83348  -1809012.96744                  24275031.8534
       172.0004          2.0004
  21977046.8384  -16052959.36149 -12508788.39146                  21977050.0754
       522.0004         22.0004
  22392463.8634   -7934741.68549  -6182912.89346                  22392464.2444
       456.0004         21.0004
 05  6 24 17 57 30.0000000  0  8G14G22G15G 3G18G25G 1G19
  20303237.9884   -8850571.25849  -6896544.87947                  20303239.0224
       666.0004         65.0004
  21100537.5414    -785599.38249   -612153.25847                  21100536.7134
       784.0004         49.0004
  20645842.1094   -1136177.71449   -885333.18047                  20645844.6674
       805.0004         49.0004
  22556993.7544   -5000869.93449  -3896782.36046                  22556996.7934
       468.0004         16.0004
  22715635.6964   11474527.54649   8941188.70546                  22715637.0444
       420.0004         12.0004
  24255700.5194   -2423137.47148  -1888156.44744                  24255705.8064
       186.0004          2.0004
  21962090.6124  -16131557.55949 -12570033.70746                  21962094.0394
       551.0004         23.0004
  22390961.5494   -7942632.28749  -6189061.42646                  22390962.8544
       444.0004         22.0004
 05  6 24 17 58  0.0000000  0  8G14G22G15G 3G18G25G 1G19
  20300239.5044   -8866326.81849  -6908821.93447                  20300240.4914
       648.0004         65.0004
  21105436.0774    -759857.37749   -592094.55947                  21105435.4434
       784.0004         48.0004
  20656175.3914   -1081876.80449   -843020.81147                  20656177.7164
       805.0004         49.0004
  22567063.3644   -4947954.31549  -3855549.44746                  22567066.5334
       468.0004         15.0004
  22726909.9574   11533773.58349   8987354.41946                  22726910.5714
       420.0004         12.0004
  24236369.1294   -2524722.73748  -1967313.64344                  24236373.8164
       202.0004          3.0004
  21947203.1364  -16209791.78749 -12630995.40146                  21947206.3054
       551.0004         23.0004
  22389568.9634   -7949953.35949  -6194766.17246                  22389570.3154
       456.0004         22.0004
 05  6 24 17 58 30.0000000  0  8G14G22G15G 3G18G25G 1G19
  20297338.7284   -8881571.39749  -6920700.81947                  20297339.3594
       648.0004         65.0004
  21110363.0104    -733966.47349   -571919.83347                  21110362.3594
       805.0004         49.0004
  20666595.2854   -1027118.37849   -800351.92747                  20666597.9174
       784.0004         48.0004
  22577206.0744   -4894654.32449  -3814017.02446                  22577209.0174
       456.0004         15.0004
  22738201.8754   11593112.50549   9033592.51546                  22738203.2604
       420.0004         12.0004
  24217033.2484   -2626329.15448  -2046487.33444                  24217037.8764
       197.0004          3.0004
  21932383.3924  -16287667.10749 -12691677.43146                  21932387.2804
       536.0004         24.0004
  22388283.0504   -7956711.36749  -6200032.16746                  22388284.0754
       456.0004         22.0004
 05  6 24 17 59  0.0000000  0  8G14G22G15G 3G18G25G 1G19
  20294534.4124   -8896308.26949  -6932184.09147                  20294535.2124
       648.0004         65.0004
  21115317.8204    -707929.70549   -551631.44747                  21115317.0214
       805.0004         49.0004
  20677101.9504    -971905.76249   -757329.13047                  20677104.7114
       784.0004         47.0004
  22587420.8164   -4840975.13849  -3772189.12446                  22587423.8514
       456.0004         15.0004
  22749511.0954   11652541.73649   9079900.97846                  22749512.7834
       420.0004         12.0004
  24197693.4674   -2727956.77148  -2125677.51344                  24197702.1544
       192.0004          3.0004
  21917632.4084  -16365184.97849 -12752080.92046                  21917635.5634
       551.0004         24.0004
  22387103.1944   -7962909.16649  -6204861.63546                  22387104.1614
       444.0004         21.0004
 05  6 24 17 59 30.0000000  0  8G14G22G15G 3G18G25G 1G19
  20291832.6114   -8910505.58349  -6943246.93047                  20291833.3174
       648.0004         63.0004
  21120306.5814    -681714.75949   -531204.22247                  21120305.6074
       827.0004         49.0004
  20687701.0304    -916207.20949   -713927.68747                  20687703.8964
       784.0004         46.0004
  22597713.0624   -4786886.81549  -3730042.41246                  22597716.2574
       432.0004         14.0004
  22760843.1154   11712093.39549   9126304.82746                  22760844.7404
       409.0004         12.0004
  24178357.0494   -2829570.62448  -2204857.01144                  24178361.0874
       197.0004          2.0004
  21902956.0484  -16442311.69549 -12812179.62546                  21902959.5204
       566.0004         24.0004
  22386036.6804   -7968514.64849  -6209229.55746                  22386037.4674
       456.0004         22.0004
 05  6 24 18  0  0.0000000  0  8G14G22G15G 3G18G25G 1G19
  20289233.0164   -8924167.36949  -6953892.47747                  20289233.6044
       648.0004         65.0004
  21125328.3224    -655325.21849   -510640.94947                  21125327.4134
       827.0004         49.0004
  20698391.9784    -860026.47849   -670150.53047                  20698394.7454
       784.0004         46.0004
  22608083.1734   -4732395.16549  -3687581.41646                  22608086.0804
       444.0004         14.0004
  22772198.2644   11771764.34749   9172801.64946                  22772199.7144
       409.0004         12.0004
  24159022.7844   -2931170.98848  -2284025.97444                  24159026.1554
       202.0004          2.0004
  21888353.0304  -16519049.40049 -12871975.20346                  21888356.3264
       551.0004         24.0004
  22385081.9894   -7973531.48649  -6213138.80446                  22385083.2794
       444.0004         22.0004
 05  6 24 18  0 30.0000000  0  7G22G 3G25G14G15G 1G19
  21130375.2234    -628802.66649   -489974.03247                  21130374.5784
       805.0004         49.0004
  22618520.5764   -4677543.74349  -3644840.08646                  22618523.6094
       432.0004         15.0004
  24139684.0634   -3032796.62548  -2363214.62144                  24139687.2484
       219.0004          3.0004
  20286727.2094   -8937335.29949  -6964153.19847                  20286727.9584
       648.0004         65.0004
  20709166.7534    -803405.18849   -626030.07747                  20709169.6404
       784.0004         46.0004
  21873816.2344  -16595437.83849 -12931498.62446                  21873819.4174
       536.0004         24.0004
  22384231.3064   -7978000.80549  -6216621.40746                  22384232.5634
       444.0004         22.0004
 05  6 24 18  1  0.0000000  0  7G22G14G15G 3G25G 1G19
  21135447.0504    -602148.72549   -469204.73647                  21135446.3034
       784.0004         49.0004
  20284314.7154   -8950011.63749  -6974030.86347                  20284315.5724
       648.0004         65.0004
  20720024.7444    -746345.82149   -581568.26247                  20720027.6784
       763.0004         46.0004
  22629026.3104   -4622336.96449  -3601821.84446                  22629029.8134
       432.0004         15.0004
  24120340.5004   -3134446.33748  -2442422.07245                  24120346.8544
       214.0004          4.0004
  21859346.7184  -16671477.52549 -12990750.28646                  21859349.9004
       551.0004         24.0004
  22383484.4484   -7981924.83649  -6219679.10646                  22383485.6154
       444.0004         21.0004
 05  6 24 18  1 30.0000000  0  7G14G22G15G 3G25G 1G19
  20281999.5124   -8962179.19249  -6983512.07647                  20282000.2264
       648.0004         65.0004
  21140547.5174    -575345.72549   -448319.29347                  21140546.6804
       784.0004         48.0004
  20730969.3834    -688831.02149   -536751.56547                  20730972.0014
       763.0004         46.0004
  22639602.2804   -4566759.40349  -3558514.68746                  22639605.1174
       432.0004         14.0004
  24100996.5684   -3236099.75748  -2521632.36244                  24100998.8264
       197.0004          3.0004
  21844947.2254  -16747149.43849 -13049715.37846                  21844950.0484
       566.0004         24.0004
  22382844.6934   -7985285.83349  -6222298.07646                  22382845.6194
       432.0004         21.0004
 05  6 24 18  2  0.0000000  0  7G14G22G15G 3G25G 1G19
  20279780.7134   -8973839.03549  -6992597.66647                  20279781.3664
       648.0004         65.0004
  21145676.2174    -548394.56349   -427318.39447                  21145675.5234
       784.0004         47.0004
  20742000.6594    -630862.18949   -491581.07847                  20742003.1414
       784.0004         46.0004
  22650248.3814   -4510814.16549  -3514921.02646                  22650251.6964
       420.0004         13.0004
  24081652.6034   -3337754.81948  -2600843.96044                  24081658.4524
       197.0004          3.0004
  21830616.8184  -16822453.09349 -13108393.51446                  21830619.8464
       551.0004         24.0004
  22382312.2614   -7988084.95649  -6224479.22546                  22382313.6394
       432.0004         21.0004
 05  6 24 18  2 30.0000000  0  7G14G22G15G 3G25G 1G19
  20277654.0974   -8985014.53749  -7001305.84447                  20277654.7294
       648.0004         65.0004
  21150828.7934    -521318.23749   -406219.96247                  21150828.1644
       805.0004         47.0004
  20753113.7974    -572462.55549   -446074.90747                  20753116.5694
       784.0004         46.0004
  22660959.1084   -4454526.66549  -3471060.67146                  22660962.6894
       409.0004         14.0004
  24062304.5844   -3439431.55048  -2680072.43644                  24062308.4284
       202.0004          3.0004
  21816352.8554  -16897409.88049 -13166801.36146                  21816356.1314
       551.0004         24.0004
  22381882.3764   -7990345.11049  -6226240.39946                  22381883.1444
       444.0004         21.0004
 05  6 24 18  3  0.0000000  0  7G14G22G15G 3G25G 1G19
  20275620.8564   -8995699.40949  -7009631.71247                  20275621.7784
       648.0004         65.0004
  21156006.4154    -494109.77249   -385018.56547                  21156005.3164
       805.0004         48.0004
  20764310.1664    -513625.76249   -400228.08947                  20764312.6454
       784.0004         46.0004
  22671736.3224   -4397892.44149  -3426930.14346                  22671739.5524
       409.0004         14.0004
  24042954.0304   -3541119.95248  -2759309.99344                  24042959.7544
       219.0004          3.0004
  21802157.1734  -16972011.62049 -13224932.55346                  21802160.3444
       566.0004         24.0004
  22381556.0994   -7992059.80349  -6227576.54046                  22381557.0704
       444.0004         21.0004
 05  6 24 18  3 30.0000000  0  7G22G 3G25G14G15G 1G19
  21161204.9374    -466792.07649   -363732.05447                  21161203.7434
       805.0004         48.0004
  22682574.7504   -4340936.95849  -3382549.28946                  22682578.2604
       409.0004         14.0004
  24023597.2254   -3642840.24148  -2838572.43144                  24023601.4824
       219.0004          3.0004
  20273676.5114   -9005917.17349  -7017593.59847                  20273677.4444
       648.0004         65.0004
  20775585.0004    -454375.27849   -354058.91147                  20775587.8164
       784.0004         44.0004
  21788024.3294  -17046280.00749 -13282803.99346                  21788027.4654
       566.0004         26.0004
  22381329.1484   -7993252.19649  -6228505.68846                  22381329.8814
       444.0004         20.0004
 05  6 24 18  4  0.0000000  0  7G14G22G15G 3G25G 1G19
  20271826.1614   -9015640.66649  -7025170.33647                  20271826.7924
       648.0004         65.0004
  21166429.3284    -439337.50549   -342338.88647                  21166428.4594
       805.0004         48.0004
  20786943.9974    -394684.02449   -307546.27947                  20786946.8274
       763.0004         44.0004
  22693479.1984   -4283634.94049  -3337898.39946                  22693482.3304
       420.0004         13.0004
  24004240.2284   -3744562.06148  -2917836.03244                  24004246.0594
       219.0004          3.0004
  21773960.0824  -17120186.13849 -13340393.15046                  21773963.4894
       566.0004         26.0004
  22381207.1044   -7993894.92849  -6229006.53846                  22381207.8074
       456.0004         20.0004
 05  6 24 18  4 30.0000000  0  7G14G22G15G 3G25G 1G19
  20270071.1494   -9024862.88249  -7032356.46947                  20270072.0084
       648.0004         65.0004
  21171681.1484    -411738.68249   -320833.31447                  21171680.1844
       805.0004         48.0004
  20798387.9814    -334544.98549   -260684.71847                  20798390.9414
       763.0004         43.0004
  22704450.1034   -4225981.27149  -3292973.49546                  22704453.2644
       409.0004         13.0004
  23984884.6914   -3846274.75748  -2997092.51645                  23984888.1784
       232.0004          4.0004
  21759966.6654  -17193721.16049 -13397693.14246                  21759969.9294
       566.0004         26.0004
  22381191.0834   -7993980.62749  -6229073.33346                  22381191.4434
       468.0004         21.0004
 05  6 24 18  5  0.0000000  0  8G14G22G15G 3G11G25G 1G19
  20268413.1764   -9033576.25749  -7039146.09947                  20268414.0784
       648.0004         67.0004
  21176962.1424    -383986.89849   -299208.55347                  21176961.3164
       805.0004         49.0004
  20809918.9284    -273950.32749   -213468.14447                  20809921.5404
       763.0004         43.0004
  22715489.1944   -4167969.87349  -3247769.85246                  22715492.7794
       409.0004         13.0004
  25057976.5754         -0.60958
       135.0004          1.0004
  23965532.9224   -3947967.01848  -3076333.09145                  23965537.2484
       244.0004          4.0004
  21746046.1654  -17266875.32849 -13454696.35946                  21746049.3984
       582.0004         26.0004
  22381282.3214   -7993501.27749  -6228699.82746                  22381282.6814
       468.0004         21.0004
 05  6 24 18  5 30.0000000  0  8G14G22G15G 3G11G25G 1G19
  20266851.3964   -9041783.25649  -7045541.15447                  20266852.3544
       648.0004         65.0004
  21182271.9324    -356084.32349   -277466.29547                  21182271.1184
       805.0004         49.0004
  20821535.7454    -212902.66849   -165898.57547                  20821538.3994
       742.0004         41.0004
  22726596.0164   -4109605.27149  -3202290.98346                  22726599.1854
       420.0004         14.0004
  25038810.1154    -100723.14048
       142.0004          1.0004
  23946184.9894   -4049637.90848  -3155557.06545                  23946188.8214
       232.0004          4.0004
  21732197.9014  -17339649.38449 -13511403.38546                  21732201.0574
       598.0004         27.0004
  22381480.7264   -7992459.35249  -6227887.95346                  22381481.2944
       468.0004         21.0004
 05  6 24 18  6  0.0000000  0  8G14G22G15G 3G11G25G 1G19
  20265381.8274   -9049505.83249  -7051558.73647                  20265382.5434
       648.0004         65.0004
  21187606.1464    -328052.38949   -255623.23847                  21187605.4084
       805.0004         49.0004
  20833234.6554    -151424.22049   -117993.32747                  20833237.6684
       722.0004         40.0004
  22737764.6274   -4050911.64049  -3156555.73446                  22737768.5334
       409.0004         13.0004
  25019650.8164    -201405.78748
       158.0004          1.0004
  23926837.6344   -4151306.11948  -3234778.90745                  23926841.7374
       225.0004          4.0004
  21718417.4754  -17412063.76749 -13567830.14646                  21718420.6004
       598.0004         28.0004
  22381781.6424   -7990876.84549  -6226654.85346                  22381781.9994
       456.0004         21.0004
 05  6 24 18  6 30.0000000  0  8G14G22G15G 3G11G25G 1G19
  20264009.3514   -9056718.31649  -7057178.84547                  20264010.0354
       648.0004         65.0004
  21192970.0374    -299864.69349   -233658.80947                  21192969.1454
       805.0004         48.0004
  20845020.7514     -89489.19549    -69732.29847                  20845023.5034
       722.0004         40.0004
  22749001.1144   -3991865.02549  -3110545.42446                  22749004.3364
       409.0004         14.0004
  25000503.8294    -302019.72448   -235339.93044
       146.0004          1.0004
  23907497.2594   -4252942.41948  -3313975.89745                  23907502.1784
       232.0004          4.0004
  21704711.2454  -17484090.78549 -13623955.06546                  21704714.4504
       598.0004         28.0004
  22382190.3494   -7988727.76549  -6224980.26546                  22382191.1384
       456.0004         21.0004
 05  6 24 18  7  0.0000000  0  8G14G22G15G 3G11G25G 1G19
  20262732.3094   -9063429.00849  -7062407.94647                  20262733.1484
       648.0004         65.0004
  21198362.2254    -271529.00049   -211579.05647                  21198361.5184
       805.0004         48.0004
  20856891.8394     -27105.57349    -21121.71647                  20856894.5874
       722.0004         39.0004
  22760302.6724   -3932475.37849  -3064267.82246                  22760306.5244
       420.0004         14.0004
  24981369.9614    -402570.44548
       142.0004          1.0004
  23888161.5784   -4354551.25148  -3393151.48145                  23888167.5154
       232.0004          4.0004
  21691077.8594  -17555736.69549 -13679783.01846                  21691080.9004
       631.0004         29.0004
  22382706.0794   -7986019.84749  -6222870.21446                  22382706.5674
       468.0004         22.0004
 05  6 24 18  7 30.0000000  0  8G14G22G15G 3G11G25G 1G19
  20261548.2004   -9069651.47849  -7067256.61747                  20261549.0174
       631.0004         65.0004
  21203780.0164    -243058.05249   -189393.91047                  21203779.0434
       805.0004         47.0004
  20868846.0154      35712.81449     27827.63647                  20868848.8964
       722.0004         39.0004
  22771666.4524   -3872758.29149  -3017735.06746                  22771669.6404
       420.0004         14.0004
  24962244.5394    -503069.19748   -392001.78744                  24962248.2134
       131.0004          1.0004
  23868829.4084   -4456142.73648  -3472313.53145                  23868834.4784
       232.0004          5.0004
  21677514.0474  -17627013.52749 -13735323.38146                  21677517.0224
       614.0004         29.0004
  22383325.2934   -7982766.73649  -6220335.33846                  22383325.7904
       481.0004         22.0004
 05  6 24 18  8  0.0000000  0  8G14G22G15G 3G11G25G 1G19
  20260456.6254   -9075387.02549  -7071725.87047                  20260457.5974
       631.0004         65.0004
  21209223.3914    -214452.67749   -167104.01047                  21209222.4844
       784.0004         47.0004
  20880882.3314      98964.48649     77114.61947                  20880884.8034
       722.0004         39.0004
  22783092.3524   -3812716.93049  -2970949.63646                  22783095.7624
       420.0004         14.0004
  24943129.9884    -603514.30248
       121.0004          1.0004
  23849500.4044   -4557715.12548  -3551460.72645                  23849505.4634
       219.0004          5.0004
  21664020.7994  -17697920.59549 -13790575.61346                  21664023.9524
       614.0004         29.0004
  22384047.4984   -7978969.39949  -6217376.39146                  22384048.1044
       456.0004         21.0004
 05  6 24 18  8 30.0000000  0  8G14G22G15G 3G11G25G 1G19
  20259461.2304   -9080618.43049  -7075802.28747                  20259461.9714
       631.0004         65.0004
  21214695.9954    -185694.16049   -144694.78447                  21214694.9794
       805.0004         46.0004
  20893004.6144     162667.31149    126753.15147                  20893007.5324
       722.0004         39.0004
  22794582.5224   -3752335.17749  -2923898.96346                  22794585.6654
       420.0004         13.0004
  24924029.4824    -703885.10848   -548481.65844
       115.0004          1.0004
  23830179.0254   -4659246.88448  -3630576.24345                  23830183.7504
       225.0004          4.0004
  21650601.7124  -17768438.33649 -13845524.47546                  21650604.9194
       614.0004         29.0004
  22384877.2354   -7974610.01449  -6213979.49046                  22384878.0544
       456.0004         22.0004
 05  6 24 18  9  0.0000000  0  8G14G22G15G 3G11G25G 1G19
  20258560.9054   -9085349.49249  -7079488.82747                  20258561.6384
       631.0004         61.0004
  21220197.1574    -156785.99149   -122168.94847                  21220195.9534
       805.0004         46.0004
  20905211.9204     226817.08349    176739.95047                  20905214.8074
       722.0004         39.0004
  22806136.1154   -3691619.17649  -2876587.84046                  22806140.1394
       398.0004         13.0004
  24904941.8054    -804182.98247
        97.0004          1.0004
  23810866.0414   -4760738.14148  -3709660.21145                  23810871.6254
       244.0004          5.0004
  21637256.3844  -17838568.90349 -13900171.64546                  21637259.6314
       614.0004         30.0004
  22385813.3384   -7969692.62849  -6210147.77846                  22385813.6984
       468.0004         22.0004
 05  6 24 18  9 30.0000000  0  8G14G22G15G 3G11G25G 1G19
  20257754.2714   -9089587.12449  -7082790.87847                  20257755.1764
       631.0004         63.0004
  21225725.4054    -127734.46149    -99531.39847                  21225724.4224
       805.0004         46.0004
  20917502.8244     291406.58549    227069.39647                  20917505.8454
       722.0004         38.0004
  22817751.5004   -3630578.10049  -2829023.42146                  22817756.5644
       387.0004         14.0004
  24885868.2554    -904412.38847
        87.0004          1.0004
  23791559.7884   -4862192.46648  -3788715.39445                  23791562.9694
       244.0004          5.0004
  21623983.3934  -17908317.77949 -13954521.39146                  21623986.6614
       598.0004         30.0004
  22386853.5614   -7964224.41449  -6205886.85346                  22386854.0534
       468.0004         22.0004
 05  6 24 18 10  0.0000000  0  7G14G22G15G 3G25G 1G19
  20257042.1424   -9093331.01949  -7085708.19647                  20257042.6414
       631.0004         63.0004
  21231281.2584     -98538.45749    -76781.27347                  21231280.1944
       805.0004         46.0004
  20929877.6074     356436.28449    277741.84247                  20929880.5744
       722.0004         39.0004
  22829429.4444   -3569213.09649  -2781206.56946                  22829433.4304
       398.0004         12.0004
  23772261.6824   -4963605.79748  -3867738.66145                  23772264.8914
       251.0004          5.0004
  21610783.5684  -17977682.61849 -14008571.88946                  21610786.7474
       598.0004         29.0004
  22387999.2774   -7958204.31249  -6201195.88746                  22387999.9104
       468.0004         21.0004
 05  6 24 18 10 30.0000000  0  8G14G22G15G 3G11G25G 1G19
  20256426.3244   -9096567.03349  -7088229.76047                  20256426.9024
       631.0004         63.0004
  21236867.5854     -69182.20749    -53906.27947                  21236866.3884
       805.0004         46.0004
  20942339.1184     421921.07549    328768.91047                  20942341.9054
       722.0004         38.0004
  22841171.0124   -3507511.25149  -2733127.27346                  22841174.6634
       398.0004         13.0004
  24847767.1304         -0.82557
        97.0004          1.0004
  23752974.8914   -5064959.61048  -3946715.52645                  23752978.3544
       265.0004          5.0004
  21597660.3394  -18046646.79549 -14062310.18846                  21597663.2594
       614.0004         28.0004
  22389252.5174   -7951617.91049  -6196063.64646                  22389253.0154
       456.0004         21.0004
 05  6 24 18 11  0.0000000  0  8G14G22G15G 3G11G25G 1G19
  20255905.5004   -9099303.50449  -7090362.07747                  20255906.1974
       631.0004         63.0004
  21242482.7914     -39673.98149    -30912.86147                  21242481.7024
       805.0004         46.0004
  20954885.3704     487852.28749    380143.84547                  20954888.2144
       722.0004         37.0004
  22852973.9544   -3445483.09449  -2684793.70046                  22852978.7434
       367.0004         12.0004
  24828740.9154     -99984.94848    -77909.94144
       108.0004          1.0004
  23733698.9384   -5166259.17748  -4025650.12745                  23733703.0644
       280.0004          6.0004
  21584611.6364  -18115217.24849 -14115741.68346                  21584614.8654
       614.0004         29.0004
  22390611.7544   -7944473.72549  -6190496.77046                  22390613.0664
       456.0004         22.0004
 05  6 24 18 11 30.0000000  0  8G14G22G15G 3G11G25G 1G19
  20255470.5404   -9101589.29549  -7092143.21447                  20255471.1564
       631.0004         63.0004
  21248117.7404     -10061.69249     -7838.35847                  21248116.8274
       784.0004         46.0004
  20967507.3664     554180.84349    431828.39347                  20967510.2684
       722.0004         38.0004
  22864830.5464   -3383179.40249  -2636245.42146                  22864833.7324
       387.0004         13.0004
  24809722.4174    -199931.39848
       128.0004          1.0004
  23714424.0644   -5267549.59548  -4104577.63845                  23714427.2884
       280.0004          5.0004
  21571629.2624  -18183440.95949 -14168902.98946                  21571632.1814
       614.0004         29.0004
  22392068.2074   -7936820.48649  -6184533.21846                  22392069.5324
       456.0004         21.0004
 05  6 24 18 12  0.0000000  0  8G14G22G15G 3G11G25G 1G19
  20255129.5034   -9103382.25849  -7093540.33047                  20255130.0704
       631.0004         63.0004
  21253780.8744      19698.02949     15351.02547                  21253780.1224
       784.0004         46.0004
  20980212.9044     620948.90449    483855.41647                  20980215.8314
       722.0004         37.0004
  22876746.7334   -3320559.74349  -2587450.93846                  22876750.7964
       387.0004         12.0004
  24790719.2594    -299794.78748
       121.0004          1.0004
  23695159.1604   -5368784.99848  -4183462.25845                  23695162.3154
       258.0004          5.0004
  21558720.8364  -18251273.75949 -14221759.68846                  21558724.1774
       614.0004         30.0004
  22393629.5734   -7928615.67349  -6178139.87946                  22393630.4764
       456.0004         22.0004
 05  6 24 18 12 30.0000000  0  8G14G22G15G 3G11G25G 1G19
  20254880.6804   -9104689.53949  -7094558.99347                  20254881.2774
       631.0004         63.0004
  21259470.7594      49598.66149     38650.20947                  21259470.2404
       784.0004         46.0004
  20993000.7974     688149.22249    536219.26847                  20993003.3794
       722.0004         36.0004
  22888720.9714   -3257632.98049  -2538417.15246                  22888724.5954
       377.0004         12.0004
  24771730.4274    -399579.18248
       121.0004          1.0004
  23675903.9834   -5469968.66348  -4262306.55645                  23675907.9464
       251.0004          5.0004
  21545886.2674  -18318721.12149 -14274316.04546                  21545889.3694
       631.0004         30.0004
  22395294.3844   -7919866.54449  -6171322.39446                  22395295.7814
       456.0004         22.0004
 05  6 24 18 13  0.0000000  0  8G14G22G15G 3G11G25G 1G19
  20254724.2554   -9105512.27449  -7095200.08447                  20254724.6914
       648.0004         65.0004
  21265187.5254      79640.27449     62059.24847                  21265186.7994
       784.0004         46.0004
  21005870.6764     755780.98049    588919.30347                  21005873.4064
       703.0004         36.0004
  22900754.1674   -3194401.82749  -2489146.16946                  22900757.8114
       387.0004         12.0004
  24752758.1014    -499282.59948
       142.0004          1.0004
  23656659.5564   -5571097.63748  -4341108.25945                  23656663.2014
       244.0004          5.0004
  21533124.9874  -18385782.03549 -14326571.27746                  21533128.2204
       631.0004         30.0004
  22397062.7484   -7910573.85349  -6164081.34946                  22397063.9774
       456.0004         21.0004
 05  6 24 18 13 30.0000000  0  8G14G22G15G 3G11G25G 1G19
  20254660.4234   -9105847.30249  -7095461.14247                  20254660.9014
       648.0004         65.0004
  21270931.9474     109827.02149     85581.37547                  21270931.0894
       784.0004         46.0004
  21018823.2054     823847.25649    641957.91647                  21018825.9224
       703.0004         35.0004
  22912844.2294   -3130864.83649  -2439636.88146                  22912848.1394
       377.0004         13.0004
  24733802.4124    -598898.90548
       163.0004          1.0004
  23637426.6124   -5672164.93448  -4419861.87345                  23637429.4584
       232.0004          5.0004
  21520437.8874  -18452451.32149 -14378521.34546                  21520441.0484
       614.0004         31.0004
  22398935.2154   -7900734.32549  -6156414.20746                  22398936.3824
       456.0004         22.0004
 05  6 24 18 14  0.0000000  0  8G14G22G15G 3G11G25G 1G19
  20254688.4584   -9105699.98949  -7095346.35247                  20254689.0524
       631.0004         65.0004
  21276702.9464     140154.43749    109213.11947                  21276702.2354
       784.0004         46.0004
  21031857.5144     892342.74349    695330.97947                  21031860.2984
       703.0004         35.0004
  22924992.4234   -3067029.05749  -2389894.76946                  22924995.8654
       387.0004         13.0004
  24714862.4874    -698430.48848   -544230.88044                  24714867.5884
       181.0004          2.0004
  23618206.2154   -5773172.30848  -4498568.80045                  23618209.1304
       265.0004          5.0004
  21507825.1264  -18518732.57349 -14430169.04746                  21507828.2694
       631.0004         31.0004
  22400910.4324   -7890353.22749  -6148325.06946                  22400912.0254
       432.0004         21.0004
